Time,TemperatureF,DewpointF,PressureIn,WindDirection,WindDirectionDegrees,WindSpeedMPH,WindSpeedGustMPH,Humidity,HourlyPrecipIn,Conditions,Clouds,dailyrainin,SoftwareType,DateUTC
2013-08-14 00:00:00,74.1,72.6,29.86,West,271,2.0,2.0,95,0.00,,---,0.64,VWS V14.01,2013-08-14 04:00:00,
2013-08-14 00:01:00,74.1,72.6,29.86,West,267,1.0,2.0,95,0.00,,---,0.00,VWS V14.01,2013-08-14 04:01:00,
2013-08-14 00:02:00,74.1,72.6,29.86,WSW,256,1.0,1.0,95,0.00,,---,0.00,VWS V14.01,2013-08-14 04:02:00,
2013-08-14 00:03:00,74.1,72.6,29.86,WSW,256,0.0,1.0,95,0.00,,---,0.00,VWS V14.01,2013-08-14 04:03:00,
2013-08-14 00:04:00,74.0,72.5,29.86,WSW,256,0.0,0.0,95,0.00,,---,0.00,VWS V14.01,2013-08-14 04:04:00,
2013-08-14 00:05:00,74.1,72.6,29.86,West,268,3.0,3.0,95,0.00,,---,0.00,VWS V14.01,2013-08-14 04:05:00,
2013-08-14 00:06:00,74.0,72.5,29.85,WSW,242,1.0,3.0,95,0.00,,---,0.00,VWS V14.01,2013-08-14 04:06:00,
2013-08-14 00:07:00,74.0,72.5,29.85,WSW,242,1.0,3.0,95,0.00,,---,0.00,VWS V14.01,2013-08-14 04:07:00,
2013-08-14 00:08:00,74.0,72.5,29.85,WSW,245,1.0,1.0,95,0.00,,---,0.00,VWS V14.01,2013-08-14 04:08:00,
2013-08-14 00:09:00,74.0,72.5,29.85,West,276,0.0,1.0,95,0.00,,---,0.00,VWS V14.01,2013-08-14 04:09:00,
2013-08-14 00:10:00,74.0,72.5,29.85,West,276,0.0,0.0,95,0.00,,---,0.00,VWS V14.01,2013-08-14 04:10:00,
2013-08-14 00:11:00,74.0,72.5,29.85,West,276,0.0,0.0,95,0.00,,---,0.00,VWS V14.01,2013-08-14 04:11:00,
2013-08-14 00:12:00,74.0,72.5,29.85,West,276,0.0,0.0,95,0.00,,---,0.00,VWS V14.01,2013-08-14 04:12:00,
2013-08-14 00:13:00,74.0,72.5,29.85,West,276,0.0,0.0,95,0.00,,---,0.00,VWS V14.01,2013-08-14 04:13:00,
2013-08-14 00:14:00,74.0,72.5,29.85,West,276,0.0,0.0,95,0.00,,---,0.00,VWS V14.01,2013-08-14 04:14:00,
2013-08-14 00:15:00,74.0,72.5,29.85,West,276,0.0,0.0,95,0.00,,---,0.00,VWS V14.01,2013-08-14 04:15:00,
2013-08-14 00:16:00,74.0,72.5,29.85,West,269,1.0,1.0,95,0.00,,---,0.00,VWS V14.01,2013-08-14 04:16:00,
2013-08-14 00:17:00,74.0,72.5,29.85,West,269,1.0,1.0,95,0.00,,---,0.00,VWS V14.01,2013-08-14 04:17:00,
2013-08-14 00:18:00,74.0,72.5,29.85,West,271,0.0,1.0,95,0.00,,---,0.00,VWS V14.01,2013-08-14 04:18:00,
2013-08-14 00:19:00,74.0,72.5,29.85,West,271,1.0,1.0,95,0.00,,---,0.00,VWS V14.01,2013-08-14 04:19:00,
2013-08-14 00:20:00,74.0,72.5,29.85,West,267,1.0,3.0,95,0.00,,---,0.00,VWS V14.01,2013-08-14 04:20:00,
2013-08-14 00:21:00,74.0,72.5,29.85,WNW,288,2.0,2.0,95,0.00,,---,0.00,VWS V14.01,2013-08-14 04:21:00,
2013-08-14 00:22:00,74.0,72.5,29.85,West,261,2.0,3.0,95,0.00,,---,0.00,VWS V14.01,2013-08-14 04:22:00,
2013-08-14 00:23:00,73.9,72.4,29.85,West,261,1.0,3.0,95,0.00,,---,0.00,VWS V14.01,2013-08-14 04:23:00,
2013-08-14 00:24:00,73.9,72.4,29.85,West,263,1.0,1.0,95,0.00,,---,0.00,VWS V14.01,2013-08-14 04:24:00,
2013-08-14 00:25:00,73.9,72.4,29.85,West,263,0.0,1.0,95,0.00,,---,0.00,VWS V14.01,2013-08-14 04:25:00,
2013-08-14 00:26:00,73.9,72.4,29.85,West,262,0.0,0.0,95,0.00,,---,0.00,VWS V14.01,2013-08-14 04:26:00,
2013-08-14 00:27:00,73.9,72.4,29.85,West,264,0.0,0.0,95,0.00,,---,0.00,VWS V14.01,2013-08-14 04:27:00,
2013-08-14 00:28:00,73.9,72.4,29.85,West,262,0.0,1.0,95,0.00,,---,0.00,VWS V14.01,2013-08-14 04:28:00,
2013-08-14 00:29:00,73.9,72.4,29.85,West,264,0.0,0.0,95,0.00,,---,0.00,VWS V14.01,2013-08-14 04:29:00,
2013-08-14 00:30:00,73.9,72.4,29.85,West,262,1.0,1.0,95,0.00,,---,0.00,VWS V14.01,2013-08-14 04:30:00,
2013-08-14 00:31:00,73.9,72.4,29.85,West,263,1.0,1.0,95,0.00,,---,0.00,VWS V14.01,2013-08-14 04:31:00,
2013-08-14 00:32:00,73.9,72.4,29.85,West,271,1.0,2.0,95,0.00,,---,0.00,VWS V14.01,2013-08-14 04:32:00,
2013-08-14 00:33:00,73.9,72.4,29.85,West,271,2.0,3.0,95,0.00,,---,0.00,VWS V14.01,2013-08-14 04:33:00,
2013-08-14 00:34:00,73.8,72.3,29.85,West,277,2.0,3.0,95,0.00,,---,0.00,VWS V14.01,2013-08-14 04:34:00,
2013-08-14 00:35:00,73.8,72.3,29.85,West,277,1.0,2.0,95,0.00,,---,0.00,VWS V14.01,2013-08-14 04:35:00,
2013-08-14 00:36:00,73.8,72.3,29.85,West,277,1.0,1.0,95,0.00,,---,0.00,VWS V14.01,2013-08-14 04:36:00,
2013-08-14 00:37:00,73.8,72.3,29.85,West,272,1.0,2.0,95,0.00,,---,0.00,VWS V14.01,2013-08-14 04:37:00,
2013-08-14 00:38:00,73.8,72.3,29.85,West,271,2.0,2.0,95,0.00,,---,0.00,VWS V14.01,2013-08-14 04:38:00,
2013-08-14 00:39:00,73.8,72.3,29.85,West,268,2.0,3.0,95,0.00,,---,0.00,VWS V14.01,2013-08-14 04:39:00,
2013-08-14 00:40:00,73.8,72.3,29.85,West,268,2.0,2.0,95,0.00,,---,0.00,VWS V14.01,2013-08-14 04:40:00,
2013-08-14 00:41:00,73.8,72.3,29.86,West,268,2.0,2.0,95,0.00,,---,0.00,VWS V14.01,2013-08-14 04:41:00,
2013-08-14 00:42:00,73.8,72.3,29.86,West,268,1.0,2.0,95,0.00,,---,0.00,VWS V14.01,2013-08-14 04:42:00,
2013-08-14 00:43:00,73.8,72.3,29.85,WSW,256,2.0,2.0,95,0.00,,---,0.00,VWS V14.01,2013-08-14 04:43:00,
2013-08-14 00:44:00,73.8,72.3,29.85,West,269,1.0,3.0,95,0.00,,---,0.00,VWS V14.01,2013-08-14 04:44:00,
2013-08-14 00:45:00,73.8,72.3,29.86,West,281,3.0,3.0,95,0.00,,---,0.00,VWS V14.01,2013-08-14 04:45:00,
2013-08-14 00:46:00,73.8,72.3,29.86,West,271,1.0,3.0,95,0.00,,---,0.00,VWS V14.01,2013-08-14 04:46:00,
2013-08-14 00:47:00,73.7,72.2,29.86,West,280,2.0,2.0,95,0.00,,---,0.00,VWS V14.01,2013-08-14 04:47:00,
2013-08-14 00:48:00,73.7,72.2,29.86,West,277,1.0,2.0,95,0.00,,---,0.00,VWS V14.01,2013-08-14 04:48:00,
2013-08-14 00:49:00,73.7,72.2,29.86,West,273,1.0,2.0,95,0.00,,---,0.00,VWS V14.01,2013-08-14 04:49:00,
2013-08-14 00:50:00,73.7,72.2,29.86,West,280,2.0,3.0,95,0.00,,---,0.00,VWS V14.01,2013-08-14 04:50:00,
2013-08-14 00:51:00,73.7,72.2,29.86,West,267,3.0,3.0,95,0.00,,---,0.00,VWS V14.01,2013-08-14 04:51:00,
2013-08-14 00:52:00,73.7,72.2,29.86,West,273,2.0,3.0,95,0.00,,---,0.00,VWS V14.01,2013-08-14 04:52:00,
2013-08-14 00:53:00,73.7,72.2,29.86,West,271,3.0,3.0,95,0.00,,---,0.00,VWS V14.01,2013-08-14 04:53:00,
2013-08-14 00:54:00,73.7,72.2,29.86,West,281,2.0,3.0,95,0.00,,---,0.00,VWS V14.01,2013-08-14 04:54:00,
2013-08-14 00:55:00,73.7,72.2,29.85,WNW,284,1.0,2.0,95,0.00,,---,0.00,VWS V14.01,2013-08-14 04:55:00,
2013-08-14 00:56:00,73.7,72.2,29.86,West,273,1.0,2.0,95,0.00,,---,0.00,VWS V14.01,2013-08-14 04:56:00,
2013-08-14 00:57:00,73.7,72.2,29.86,West,277,2.0,2.0,95,0.00,,---,0.00,VWS V14.01,2013-08-14 04:57:00,
2013-08-14 00:58:00,73.7,72.2,29.86,West,264,2.0,4.0,95,0.00,,---,0.00,VWS V14.01,2013-08-14 04:58:00,
2013-08-14 00:59:00,73.7,72.2,29.86,WNW,292,3.0,5.0,95,0.00,,---,0.00,VWS V14.01,2013-08-14 04:59:00,
2013-08-14 01:00:00,73.6,72.1,29.86,SW,229,4.0,4.0,95,0.00,,---,0.00,VWS V14.01,2013-08-14 05:00:00,
2013-08-14 01:01:00,73.6,72.1,29.85,WNW,283,0.0,4.0,95,0.00,,---,0.00,VWS V14.01,2013-08-14 05:01:00,
2013-08-14 01:02:00,73.6,72.1,29.85,WNW,283,2.0,2.0,95,0.00,,---,0.00,VWS V14.01,2013-08-14 05:02:00,
2013-08-14 01:03:00,73.6,72.1,29.85,WNW,289,1.0,3.0,95,0.00,,---,0.00,VWS V14.01,2013-08-14 05:03:00,
2013-08-14 01:04:00,73.6,72.1,29.85,WSW,248,1.0,2.0,95,0.00,,---,0.00,VWS V14.01,2013-08-14 05:04:00,
2013-08-14 01:05:00,73.6,72.1,29.85,West,265,2.0,3.0,95,0.00,,---,0.00,VWS V14.01,2013-08-14 05:05:00,
2013-08-14 01:06:00,73.6,72.1,29.85,West,281,2.0,3.0,95,0.00,,---,0.00,VWS V14.01,2013-08-14 05:06:00,
2013-08-14 01:07:00,73.6,72.1,29.85,West,265,4.0,4.0,95,0.00,,---,0.00,VWS V14.01,2013-08-14 05:07:00,
2013-08-14 01:08:00,73.6,72.1,29.85,West,271,4.0,5.0,95,0.00,,---,0.00,VWS V14.01,2013-08-14 05:08:00,
2013-08-14 01:09:00,73.7,72.2,29.85,WNW,288,3.0,4.0,95,0.00,,---,0.00,VWS V14.01,2013-08-14 05:09:00,
2013-08-14 01:10:00,73.6,72.1,29.85,West,259,3.0,4.0,95,0.00,,---,0.00,VWS V14.01,2013-08-14 05:10:00,
2013-08-14 01:11:00,73.6,72.1,29.86,West,275,2.0,4.0,95,0.00,,---,0.00,VWS V14.01,2013-08-14 05:11:00,
2013-08-14 01:12:00,73.6,72.1,29.86,West,263,2.0,4.0,95,0.00,,---,0.00,VWS V14.01,2013-08-14 05:12:00,
2013-08-14 01:13:00,73.6,72.1,29.86,West,281,2.0,2.0,95,0.00,,---,0.00,VWS V14.01,2013-08-14 05:13:00,
2013-08-14 01:14:00,73.6,72.1,29.86,WNW,286,4.0,4.0,95,0.00,,---,0.00,VWS V14.01,2013-08-14 05:14:00,
2013-08-14 01:15:00,73.6,72.1,29.86,West,272,2.0,4.0,95,0.00,,---,0.00,VWS V14.01,2013-08-14 05:15:00,
2013-08-14 01:16:00,73.6,72.1,29.86,West,281,2.0,2.0,95,0.00,,---,0.00,VWS V14.01,2013-08-14 05:16:00,
2013-08-14 01:17:00,73.6,72.1,29.85,West,281,3.0,4.0,95,0.00,,---,0.00,VWS V14.01,2013-08-14 05:17:00,
2013-08-14 01:18:00,73.7,72.2,29.86,West,268,0.0,3.0,95,0.00,,---,0.00,VWS V14.01,2013-08-14 05:18:00,
2013-08-14 01:19:00,73.7,72.5,29.86,West,269,1.0,1.0,96,0.00,,---,0.00,VWS V14.01,2013-08-14 05:19:00,
2013-08-14 01:20:00,73.7,72.5,29.85,WSW,258,2.0,3.0,96,0.00,,---,0.00,VWS V14.01,2013-08-14 05:20:00,
2013-08-14 01:21:00,73.7,72.2,29.85,West,269,3.0,4.0,95,0.00,,---,0.00,VWS V14.01,2013-08-14 05:21:00,
2013-08-14 01:22:00,73.7,72.2,29.85,West,281,1.0,6.0,95,0.00,,---,0.00,VWS V14.01,2013-08-14 05:22:00,
2013-08-14 01:23:00,73.7,72.2,29.85,WSW,248,4.0,4.0,95,0.00,,---,0.00,VWS V14.01,2013-08-14 05:23:00,
2013-08-14 01:24:00,73.7,72.5,29.85,West,272,2.0,4.0,96,0.00,,---,0.00,VWS V14.01,2013-08-14 05:24:00,
2013-08-14 01:25:00,73.7,72.2,29.85,West,267,2.0,2.0,95,0.00,,---,0.00,VWS V14.01,2013-08-14 05:25:00,
2013-08-14 01:26:00,73.7,72.5,29.85,West,275,1.0,3.0,96,0.00,,---,0.00,VWS V14.01,2013-08-14 05:26:00,
2013-08-14 01:27:00,73.7,72.2,29.85,WNW,295,3.0,3.0,95,0.00,,---,0.00,VWS V14.01,2013-08-14 05:27:00,
2013-08-14 01:28:00,73.7,72.2,29.85,West,271,2.0,3.0,95,0.00,,---,0.00,VWS V14.01,2013-08-14 05:28:00,
2013-08-14 01:29:00,73.7,72.2,29.85,West,277,1.0,2.0,95,0.00,,---,0.00,VWS V14.01,2013-08-14 05:29:00,
2013-08-14 01:30:00,73.7,72.2,29.85,WNW,290,3.0,3.0,95,0.00,,---,0.00,VWS V14.01,2013-08-14 05:30:00,
2013-08-14 01:31:00,73.7,72.2,29.85,West,265,2.0,5.0,95,0.00,,---,0.00,VWS V14.01,2013-08-14 05:31:00,
2013-08-14 01:32:00,73.7,72.2,29.85,West,275,2.0,3.0,95,0.00,,---,0.00,VWS V14.01,2013-08-14 05:32:00,
2013-08-14 01:33:00,73.7,72.2,29.85,WSW,252,2.0,3.0,95,0.00,,---,0.00,VWS V14.01,2013-08-14 05:33:00,
2013-08-14 01:34:00,73.7,72.2,29.85,West,276,2.0,2.0,95,0.00,,---,0.00,VWS V14.01,2013-08-14 05:34:00,
2013-08-14 01:35:00,73.7,72.2,29.85,WNW,294,4.0,4.0,95,0.00,,---,0.00,VWS V14.01,2013-08-14 05:35:00,
2013-08-14 01:36:00,73.7,72.2,29.85,West,268,2.0,4.0,95,0.00,,---,0.00,VWS V14.01,2013-08-14 05:36:00,
2013-08-14 01:37:00,73.7,72.2,29.85,WSW,257,2.0,3.0,95,0.00,,---,0.00,VWS V14.01,2013-08-14 05:37:00,
2013-08-14 01:38:00,73.7,72.2,29.85,WSW,250,2.0,2.0,95,0.00,,---,0.00,VWS V14.01,2013-08-14 05:38:00,
2013-08-14 01:39:00,73.7,72.2,29.85,West,280,2.0,4.0,95,0.00,,---,0.00,VWS V14.01,2013-08-14 05:39:00,
2013-08-14 01:40:00,73.7,72.2,29.85,WNW,292,2.0,2.0,95,0.00,,---,0.00,VWS V14.01,2013-08-14 05:40:00,
2013-08-14 01:41:00,73.7,72.2,29.85,West,281,2.0,3.0,95,0.00,,---,0.00,VWS V14.01,2013-08-14 05:41:00,
2013-08-14 01:42:00,73.7,72.2,29.85,West,273,3.0,3.0,95,0.00,,---,0.00,VWS V14.01,2013-08-14 05:42:00,
2013-08-14 01:43:00,73.7,72.2,29.85,WNW,282,3.0,3.0,95,0.00,,---,0.00,VWS V14.01,2013-08-14 05:43:00,
2013-08-14 01:44:00,73.7,72.2,29.85,West,260,3.0,4.0,95,0.00,,---,0.00,VWS V14.01,2013-08-14 05:44:00,
2013-08-14 01:45:00,73.7,72.2,29.85,WNW,291,2.0,4.0,95,0.00,,---,0.00,VWS V14.01,2013-08-14 05:45:00,
2013-08-14 01:46:00,73.7,72.2,29.85,WSW,245,4.0,4.0,95,0.00,,---,0.00,VWS V14.01,2013-08-14 05:46:00,
2013-08-14 01:47:00,73.7,72.2,29.85,West,280,3.0,4.0,95,0.00,,---,0.00,VWS V14.01,2013-08-14 05:47:00,
2013-08-14 01:48:00,73.7,72.2,29.85,West,273,4.0,6.0,95,0.00,,---,0.00,VWS V14.01,2013-08-14 05:48:00,
2013-08-14 01:49:00,73.8,72.3,29.85,West,265,4.0,5.0,95,0.00,,---,0.00,VWS V14.01,2013-08-14 05:49:00,
2013-08-14 01:50:00,73.8,72.3,29.85,West,269,3.0,6.0,95,0.00,,---,0.00,VWS V14.01,2013-08-14 05:50:00,
2013-08-14 01:51:00,73.8,72.3,29.86,WNW,292,3.0,3.0,95,0.00,,---,0.00,VWS V14.01,2013-08-14 05:51:00,
2013-08-14 01:52:00,73.8,72.3,29.85,WNW,288,3.0,3.0,95,0.00,,---,0.00,VWS V14.01,2013-08-14 05:52:00,
2013-08-14 01:53:00,73.8,72.3,29.86,West,272,3.0,4.0,95,0.00,,---,0.00,VWS V14.01,2013-08-14 05:53:00,
2013-08-14 01:54:00,73.8,72.3,29.85,West,260,6.0,6.0,95,0.00,,---,0.00,VWS V14.01,2013-08-14 05:54:00,
2013-08-14 01:55:00,73.8,72.3,29.85,WNW,286,3.0,6.0,95,0.00,,---,0.00,VWS V14.01,2013-08-14 05:55:00,
2013-08-14 01:56:00,73.8,72.3,29.85,West,264,4.0,5.0,95,0.00,,---,0.00,VWS V14.01,2013-08-14 05:56:00,
2013-08-14 01:57:00,73.8,72.3,29.85,West,263,1.0,4.0,95,0.00,,---,0.00,VWS V14.01,2013-08-14 05:57:00,
2013-08-14 01:58:00,73.8,72.3,29.85,WNW,284,5.0,5.0,95,0.00,,---,0.00,VWS V14.01,2013-08-14 05:58:00,
2013-08-14 01:59:00,73.9,72.4,29.85,West,271,3.0,5.0,95,0.00,,---,0.00,VWS V14.01,2013-08-14 05:59:00,
2013-08-14 02:01:00,73.9,72.4,29.85,NW,308,2.0,3.0,95,0.00,,---,0.00,VWS V14.01,2013-08-14 06:01:00,
2013-08-14 02:02:00,73.9,72.4,29.85,West,260,5.0,5.0,95,0.00,,---,0.00,VWS V14.01,2013-08-14 06:02:00,
2013-08-14 02:03:00,73.9,72.4,29.85,WNW,286,1.0,5.0,95,0.00,,---,0.00,VWS V14.01,2013-08-14 06:03:00,
2013-08-14 02:04:00,73.9,72.4,29.85,WNW,290,2.0,2.0,95,0.00,,---,0.00,VWS V14.01,2013-08-14 06:04:00,
2013-08-14 02:05:00,73.9,72.4,29.85,NNW,340,2.0,2.0,95,0.00,,---,0.00,VWS V14.01,2013-08-14 06:05:00,
2013-08-14 02:06:00,73.9,72.4,29.85,West,273,1.0,2.0,95,0.00,,---,0.00,VWS V14.01,2013-08-14 06:06:00,
2013-08-14 02:07:00,73.9,72.4,29.85,WNW,294,3.0,3.0,95,0.00,,---,0.00,VWS V14.01,2013-08-14 06:07:00,
2013-08-14 02:08:00,73.9,72.4,29.85,WNW,294,0.0,3.0,95,0.00,,---,0.00,VWS V14.01,2013-08-14 06:08:00,
2013-08-14 02:09:00,73.9,72.4,29.85,WSW,250,3.0,3.0,95,0.00,,---,0.00,VWS V14.01,2013-08-14 06:09:00,
2013-08-14 02:10:00,73.9,72.4,29.85,NE,42,2.0,3.0,95,0.00,,---,0.00,VWS V14.01,2013-08-14 06:10:00,
2013-08-14 02:11:00,73.9,72.4,29.85,NE,35,1.0,2.0,95,0.00,,---,0.00,VWS V14.01,2013-08-14 06:11:00,
2013-08-14 02:12:00,73.9,72.4,29.85,WNW,290,3.0,3.0,95,0.00,,---,0.00,VWS V14.01,2013-08-14 06:12:00,
2013-08-14 02:13:00,73.9,72.4,29.85,WNW,282,1.0,5.0,95,0.00,,---,0.00,VWS V14.01,2013-08-14 06:13:00,
2013-08-14 02:14:00,73.9,72.4,29.85,WNW,283,1.0,2.0,95,0.00,,---,0.00,VWS V14.01,2013-08-14 06:14:00,
2013-08-14 02:15:00,73.9,72.4,29.85,NNW,328,1.0,3.0,95,0.00,,---,0.00,VWS V14.01,2013-08-14 06:15:00,
2013-08-14 02:16:00,73.9,72.4,29.85,WNW,295,3.0,6.0,95,0.00,,---,0.00,VWS V14.01,2013-08-14 06:16:00,
2013-08-14 02:17:00,73.9,72.4,29.85,WNW,288,3.0,3.0,95,0.00,,---,0.00,VWS V14.01,2013-08-14 06:17:00,
2013-08-14 02:18:00,73.9,72.4,29.85,WNW,283,0.0,3.0,95,0.00,,---,0.00,VWS V14.01,2013-08-14 06:18:00,
2013-08-14 02:19:00,73.9,72.4,29.85,WNW,283,1.0,1.0,95,0.00,,---,0.00,VWS V14.01,2013-08-14 06:19:00,
2013-08-14 02:20:00,73.9,72.4,29.85,WNW,284,1.0,2.0,95,0.00,,---,0.00,VWS V14.01,2013-08-14 06:20:00,
2013-08-14 02:21:00,73.9,72.4,29.85,WNW,286,1.0,3.0,95,0.00,,---,0.00,VWS V14.01,2013-08-14 06:21:00,
2013-08-14 02:22:00,73.9,72.4,29.85,WNW,299,2.0,3.0,95,0.00,,---,0.00,VWS V14.01,2013-08-14 06:22:00,
2013-08-14 02:23:00,73.9,72.4,29.85,West,269,1.0,2.0,95,0.00,,---,0.00,VWS V14.01,2013-08-14 06:23:00,
2013-08-14 02:24:00,73.9,72.4,29.85,WNW,283,1.0,1.0,95,0.00,,---,0.00,VWS V14.01,2013-08-14 06:24:00,
2013-08-14 02:25:00,73.9,72.4,29.85,NW,310,1.0,2.0,95,0.00,,---,0.00,VWS V14.01,2013-08-14 06:25:00,
2013-08-14 02:26:00,73.8,72.3,29.85,West,276,2.0,2.0,95,0.00,,---,0.00,VWS V14.01,2013-08-14 06:26:00,
2013-08-14 02:27:00,73.8,72.3,29.85,WNW,290,1.0,2.0,95,0.00,,---,0.00,VWS V14.01,2013-08-14 06:27:00,
2013-08-14 02:28:00,73.8,72.3,29.85,WNW,293,1.0,1.0,95,0.00,,---,0.00,VWS V14.01,2013-08-14 06:28:00,
2013-08-14 02:29:00,73.8,72.3,29.85,West,261,0.0,2.0,95,0.00,,---,0.00,VWS V14.01,2013-08-14 06:29:00,
2013-08-14 02:30:00,73.8,72.3,29.85,West,273,1.0,4.0,95,0.00,,---,0.00,VWS V14.01,2013-08-14 06:30:00,
2013-08-14 02:31:00,73.8,72.3,29.85,NW,318,2.0,3.0,95,0.00,,---,0.00,VWS V14.01,2013-08-14 06:31:00,
2013-08-14 02:32:00,73.8,72.3,29.85,WNW,284,3.0,3.0,95,0.00,,---,0.00,VWS V14.01,2013-08-14 06:32:00,
2013-08-14 02:33:00,73.8,72.3,29.85,WNW,295,2.0,3.0,95,0.00,,---,0.00,VWS V14.01,2013-08-14 06:33:00,
2013-08-14 02:34:00,73.8,72.3,29.85,West,281,1.0,2.0,95,0.00,,---,0.00,VWS V14.01,2013-08-14 06:34:00,
2013-08-14 02:35:00,73.8,72.3,29.85,West,281,1.0,2.0,95,0.00,,---,0.00,VWS V14.01,2013-08-14 06:35:00,
2013-08-14 02:36:00,73.8,72.3,29.85,West,275,1.0,3.0,95,0.00,,---,0.00,VWS V14.01,2013-08-14 06:36:00,
2013-08-14 02:37:00,73.8,72.3,29.85,WSW,252,2.0,2.0,95,0.00,,---,0.00,VWS V14.01,2013-08-14 06:37:00,
2013-08-14 02:38:00,73.8,72.3,29.85,West,281,1.0,3.0,95,0.00,,---,0.00,VWS V14.01,2013-08-14 06:38:00,
2013-08-14 02:39:00,73.8,72.3,29.85,West,281,2.0,3.0,95,0.00,,---,0.00,VWS V14.01,2013-08-14 06:39:00,
2013-08-14 02:40:00,73.8,72.3,29.85,WNW,282,2.0,3.0,95,0.00,,---,0.00,VWS V14.01,2013-08-14 06:40:00,
2013-08-14 02:41:00,73.8,72.3,29.85,West,281,2.0,2.0,95,0.00,,---,0.00,VWS V14.01,2013-08-14 06:41:00,
2013-08-14 02:42:00,73.8,72.3,29.85,West,280,2.0,2.0,95,0.00,,---,0.00,VWS V14.01,2013-08-14 06:42:00,
2013-08-14 02:43:00,73.8,72.3,29.85,WNW,284,1.0,2.0,95,0.00,,---,0.00,VWS V14.01,2013-08-14 06:43:00,
2013-08-14 02:44:00,73.8,72.3,29.85,West,277,3.0,3.0,95,0.00,,---,0.00,VWS V14.01,2013-08-14 06:44:00,
2013-08-14 02:45:00,73.8,72.3,29.85,West,281,0.0,4.0,95,0.00,,---,0.00,VWS V14.01,2013-08-14 06:45:00,
2013-08-14 02:46:00,73.8,72.3,29.85,West,281,1.0,1.0,95,0.00,,---,0.00,VWS V14.01,2013-08-14 06:46:00,
2013-08-14 02:47:00,73.8,72.3,29.85,WNW,286,3.0,3.0,95,0.00,,---,0.00,VWS V14.01,2013-08-14 06:47:00,
2013-08-14 02:48:00,73.8,72.3,29.85,WNW,300,2.0,5.0,95,0.00,,---,0.00,VWS V14.01,2013-08-14 06:48:00,
2013-08-14 02:49:00,73.7,72.2,29.85,West,275,1.0,3.0,95,0.00,,---,0.00,VWS V14.01,2013-08-14 06:49:00,
2013-08-14 02:50:00,73.7,72.2,29.85,West,261,1.0,3.0,95,0.00,,---,0.00,VWS V14.01,2013-08-14 06:50:00,
2013-08-14 02:51:00,73.7,72.2,29.85,NW,311,1.0,3.0,95,0.00,,---,0.00,VWS V14.01,2013-08-14 06:51:00,
2013-08-14 02:52:00,73.7,72.2,29.85,WSW,241,1.0,3.0,95,0.00,,---,0.00,VWS V14.01,2013-08-14 06:52:00,
2013-08-14 02:53:00,73.7,72.2,29.85,West,260,2.0,3.0,95,0.00,,---,0.00,VWS V14.01,2013-08-14 06:53:00,
2013-08-14 02:54:00,73.7,72.2,29.85,NW,314,1.0,5.0,95,0.00,,---,0.00,VWS V14.01,2013-08-14 06:54:00,
2013-08-14 02:55:00,73.7,72.2,29.85,NW,318,1.0,3.0,95,0.00,,---,0.00,VWS V14.01,2013-08-14 06:55:00,
2013-08-14 02:56:00,73.7,72.2,29.85,WNW,294,1.0,1.0,95,0.00,,---,0.00,VWS V14.01,2013-08-14 06:56:00,
2013-08-14 02:57:00,73.7,72.2,29.85,NNE,13,0.0,3.0,95,0.00,,---,0.00,VWS V14.01,2013-08-14 06:57:00,
2013-08-14 02:58:00,73.7,72.2,29.85,NNE,13,1.0,1.0,95,0.00,,---,0.00,VWS V14.01,2013-08-14 06:58:00,
2013-08-14 02:59:00,73.7,72.2,29.85,West,273,0.0,2.0,95,0.00,,---,0.00,VWS V14.01,2013-08-14 06:59:00,
2013-08-14 03:00:00,73.6,72.1,29.85,West,273,0.0,1.0,95,0.00,,---,0.00,VWS V14.01,2013-08-14 07:00:00,
2013-08-14 03:01:00,73.7,72.2,29.85,West,273,0.0,0.0,95,0.00,,---,0.00,VWS V14.01,2013-08-14 07:01:00,
2013-08-14 03:02:00,73.7,72.2,29.85,West,276,1.0,1.0,95,0.00,,---,0.00,VWS V14.01,2013-08-14 07:02:00,
2013-08-14 03:03:00,73.7,72.2,29.85,NW,311,1.0,2.0,95,0.00,,---,0.00,VWS V14.01,2013-08-14 07:03:00,
2013-08-14 03:04:00,73.6,72.1,29.85,NW,311,0.0,1.0,95,0.00,,---,0.00,VWS V14.01,2013-08-14 07:04:00,
2013-08-14 03:05:00,73.7,72.2,29.85,West,280,1.0,1.0,95,0.00,,---,0.00,VWS V14.01,2013-08-14 07:05:00,
2013-08-14 03:06:00,73.7,72.2,29.85,West,260,2.0,3.0,95,0.00,,---,0.00,VWS V14.01,2013-08-14 07:06:00,
2013-08-14 03:07:00,73.6,72.1,29.85,West,272,2.0,4.0,95,0.00,,---,0.00,VWS V14.01,2013-08-14 07:07:00,
2013-08-14 03:08:00,73.7,72.2,29.85,West,267,2.0,3.0,95,0.00,,---,0.00,VWS V14.01,2013-08-14 07:08:00,
2013-08-14 03:09:00,73.7,72.2,29.85,West,268,2.0,2.0,95,0.00,,---,0.00,VWS V14.01,2013-08-14 07:09:00,
2013-08-14 03:10:00,73.7,72.2,29.85,WNW,291,2.0,2.0,95,0.00,,---,0.00,VWS V14.01,2013-08-14 07:10:00,
2013-08-14 03:11:00,73.7,72.2,29.85,NW,316,2.0,4.0,95,0.00,,---,0.00,VWS V14.01,2013-08-14 07:11:00,
2013-08-14 03:12:00,73.7,72.2,29.85,West,271,1.0,2.0,95,0.00,,---,0.00,VWS V14.01,2013-08-14 07:12:00,
2013-08-14 03:13:00,73.6,72.1,29.85,West,272,0.0,1.0,95,0.00,,---,0.00,VWS V14.01,2013-08-14 07:13:00,
2013-08-14 03:14:00,73.6,72.1,29.85,West,271,0.0,0.0,95,0.00,,---,0.00,VWS V14.01,2013-08-14 07:14:00,
2013-08-14 03:15:00,73.7,72.2,29.85,West,272,1.0,1.0,95,0.00,,---,0.00,VWS V14.01,2013-08-14 07:15:00,
2013-08-14 03:16:00,73.7,72.2,29.85,West,271,1.0,1.0,95,0.00,,---,0.00,VWS V14.01,2013-08-14 07:16:00,
2013-08-14 03:17:00,73.7,72.2,29.85,West,272,1.0,1.0,95,0.00,,---,0.00,VWS V14.01,2013-08-14 07:17:00,
2013-08-14 03:18:00,73.6,72.1,29.85,West,281,3.0,3.0,95,0.00,,---,0.00,VWS V14.01,2013-08-14 07:18:00,
2013-08-14 03:19:00,73.6,72.1,29.85,West,276,1.0,3.0,95,0.00,,---,0.00,VWS V14.01,2013-08-14 07:19:00,
2013-08-14 03:20:00,73.6,72.1,29.85,West,276,2.0,3.0,95,0.00,,---,0.00,VWS V14.01,2013-08-14 07:20:00,
2013-08-14 03:21:00,73.6,72.1,29.85,West,275,0.0,2.0,95,0.00,,---,0.00,VWS V14.01,2013-08-14 07:21:00,
2013-08-14 03:22:00,73.6,72.1,29.85,West,277,0.0,0.0,95,0.00,,---,0.00,VWS V14.01,2013-08-14 07:22:00,
2013-08-14 03:23:00,73.6,72.1,29.85,West,277,0.0,0.0,95,0.00,,---,0.00,VWS V14.01,2013-08-14 07:23:00,
2013-08-14 03:24:00,73.6,72.1,29.85,WNW,284,2.0,2.0,95,0.00,,---,0.00,VWS V14.01,2013-08-14 07:24:00,
2013-08-14 03:25:00,73.6,72.1,29.85,WNW,291,2.0,2.0,95,0.00,,---,0.00,VWS V14.01,2013-08-14 07:25:00,
2013-08-14 03:26:00,73.5,72.0,29.85,WNW,294,1.0,4.0,95,0.00,,---,0.00,VWS V14.01,2013-08-14 07:26:00,
2013-08-14 03:27:00,73.5,72.0,29.85,WNW,300,2.0,2.0,95,0.00,,---,0.00,VWS V14.01,2013-08-14 07:27:00,
2013-08-14 03:28:00,73.5,72.0,29.85,WNW,291,0.0,2.0,95,0.00,,---,0.00,VWS V14.01,2013-08-14 07:28:00,
2013-08-14 03:29:00,73.5,72.0,29.85,WNW,291,2.0,2.0,95,0.00,,---,0.00,VWS V14.01,2013-08-14 07:29:00,
2013-08-14 03:30:00,73.5,72.0,29.85,West,271,2.0,3.0,95,0.00,,---,0.00,VWS V14.01,2013-08-14 07:30:00,
2013-08-14 03:31:00,73.5,72.0,29.85,West,271,0.0,2.0,95,0.00,,---,0.00,VWS V14.01,2013-08-14 07:31:00,
2013-08-14 03:32:00,73.5,72.0,29.85,West,261,0.0,1.0,95,0.00,,---,0.00,VWS V14.01,2013-08-14 07:32:00,
2013-08-14 03:33:00,73.4,71.9,29.85,NNW,336,2.0,3.0,95,0.00,,---,0.00,VWS V14.01,2013-08-14 07:33:00,
2013-08-14 03:34:00,73.4,71.9,29.85,NNW,331,0.0,2.0,95,0.00,,---,0.00,VWS V14.01,2013-08-14 07:34:00,
2013-08-14 03:35:00,73.4,71.9,29.85,WNW,298,1.0,1.0,95,0.00,,---,0.00,VWS V14.01,2013-08-14 07:35:00,
2013-08-14 03:36:00,73.4,71.9,29.85,NNE,27,0.0,3.0,95,0.00,,---,0.00,VWS V14.01,2013-08-14 07:36:00,
2013-08-14 03:37:00,73.4,71.9,29.85,NNW,340,1.0,1.0,95,0.00,,---,0.00,VWS V14.01,2013-08-14 07:37:00,
2013-08-14 03:38:00,73.4,71.9,29.85,NW,310,1.0,1.0,95,0.00,,---,0.00,VWS V14.01,2013-08-14 07:38:00,
2013-08-14 03:39:00,73.4,71.9,29.85,NW,325,1.0,1.0,95,0.00,,---,0.00,VWS V14.01,2013-08-14 07:39:00,
2013-08-14 03:40:00,73.3,71.8,29.85,NNW,327,1.0,3.0,95,0.00,,---,0.00,VWS V14.01,2013-08-14 07:40:00,
2013-08-14 03:41:00,73.3,71.8,29.85,NNW,327,1.0,1.0,95,0.00,,---,0.00,VWS V14.01,2013-08-14 07:41:00,
2013-08-14 03:42:00,73.3,71.8,29.85,WNW,292,0.0,1.0,95,0.00,,---,0.00,VWS V14.01,2013-08-14 07:42:00,
2013-08-14 03:43:00,73.3,71.8,29.85,WNW,292,1.0,1.0,95,0.00,,---,0.00,VWS V14.01,2013-08-14 07:43:00,
2013-08-14 03:44:00,73.3,71.8,29.85,NNW,342,1.0,3.0,95,0.00,,---,0.00,VWS V14.01,2013-08-14 07:44:00,
2013-08-14 03:45:00,73.3,71.8,29.85,North,349,2.0,2.0,95,0.00,,---,0.00,VWS V14.01,2013-08-14 07:45:00,
2013-08-14 03:46:00,73.2,71.7,29.85,NNE,13,1.0,3.0,95,0.00,,---,0.00,VWS V14.01,2013-08-14 07:46:00,
2013-08-14 03:47:00,73.2,71.7,29.85,NNE,13,0.0,1.0,95,0.00,,---,0.00,VWS V14.01,2013-08-14 07:47:00,
2013-08-14 03:48:00,73.2,71.7,29.85,NNW,335,1.0,2.0,95,0.00,,---,0.00,VWS V14.01,2013-08-14 07:48:00,
2013-08-14 03:49:00,73.2,71.7,29.85,NNW,336,0.0,1.0,95,0.00,,---,0.00,VWS V14.01,2013-08-14 07:49:00,
2013-08-14 03:50:00,73.2,71.7,29.85,West,277,1.0,1.0,95,0.00,,---,0.00,VWS V14.01,2013-08-14 07:50:00,
2013-08-14 03:51:00,73.2,71.7,29.85,West,277,0.0,1.0,95,0.00,,---,0.00,VWS V14.01,2013-08-14 07:51:00,
2013-08-14 03:52:00,73.2,71.7,29.85,West,277,0.0,1.0,95,0.00,,---,0.00,VWS V14.01,2013-08-14 07:52:00,
2013-08-14 03:53:00,73.1,71.6,29.85,WNW,284,0.0,2.0,95,0.00,,---,0.00,VWS V14.01,2013-08-14 07:53:00,
2013-08-14 03:54:00,73.1,71.6,29.85,NW,325,1.0,1.0,95,0.00,,---,0.00,VWS V14.01,2013-08-14 07:54:00,
2013-08-14 03:55:00,73.1,71.6,29.85,NNW,331,0.0,1.0,95,0.00,,---,0.00,VWS V14.01,2013-08-14 07:55:00,
2013-08-14 03:56:00,73.1,71.6,29.85,NNE,17,0.0,1.0,95,0.00,,---,0.00,VWS V14.01,2013-08-14 07:56:00,
2013-08-14 03:57:00,73.1,71.6,29.85,West,275,2.0,2.0,95,0.00,,---,0.00,VWS V14.01,2013-08-14 07:57:00,
2013-08-14 03:58:00,73.1,71.6,29.85,WNW,291,0.0,2.0,95,0.00,,---,0.00,VWS V14.01,2013-08-14 07:58:00,
2013-08-14 03:59:00,73.1,71.6,29.85,WNW,291,1.0,1.0,95,0.00,,---,0.00,VWS V14.01,2013-08-14 07:59:00,
2013-08-14 04:00:00,73.1,71.6,29.85,WNW,291,0.0,1.0,95,0.00,,---,0.00,VWS V14.01,2013-08-14 08:00:00,
2013-08-14 04:01:00,73.1,71.6,29.86,NW,307,0.0,2.0,95,0.00,,---,0.00,VWS V14.01,2013-08-14 08:01:00,
2013-08-14 04:02:00,73.0,71.5,29.86,NW,307,0.0,1.0,95,0.00,,---,0.00,VWS V14.01,2013-08-14 08:02:00,
2013-08-14 04:03:00,73.0,71.5,29.85,NW,306,0.0,0.0,95,0.00,,---,0.00,VWS V14.01,2013-08-14 08:03:00,
2013-08-14 04:04:00,73.0,71.5,29.86,NW,325,1.0,5.0,95,0.00,,---,0.00,VWS V14.01,2013-08-14 08:04:00,
2013-08-14 04:05:00,73.0,71.5,29.86,WNW,283,0.0,1.0,95,0.00,,---,0.00,VWS V14.01,2013-08-14 08:05:00,
2013-08-14 04:06:00,73.0,71.5,29.86,NW,310,1.0,3.0,95,0.00,,---,0.00,VWS V14.01,2013-08-14 08:06:00,
2013-08-14 04:07:00,73.0,71.5,29.86,WNW,297,0.0,2.0,95,0.00,,---,0.00,VWS V14.01,2013-08-14 08:07:00,
2013-08-14 04:08:00,72.9,71.4,29.86,NW,305,1.0,1.0,95,0.00,,---,0.00,VWS V14.01,2013-08-14 08:08:00,
2013-08-14 04:09:00,73.0,71.5,29.86,NW,305,0.0,1.0,95,0.00,,---,0.00,VWS V14.01,2013-08-14 08:09:00,
2013-08-14 04:10:00,73.0,71.2,29.86,NW,307,1.0,1.0,94,0.00,,---,0.00,VWS V14.01,2013-08-14 08:10:00,
2013-08-14 04:11:00,72.9,71.1,29.86,NW,307,1.0,2.0,94,0.00,,---,0.00,VWS V14.01,2013-08-14 08:11:00,
2013-08-14 04:12:00,72.9,71.1,29.86,NNE,23,1.0,3.0,94,0.00,,---,0.00,VWS V14.01,2013-08-14 08:12:00,
2013-08-14 04:13:00,72.9,71.1,29.86,NNE,23,1.0,1.0,94,0.00,,---,0.00,VWS V14.01,2013-08-14 08:13:00,
2013-08-14 04:14:00,72.9,71.1,29.86,NNE,23,1.0,1.0,94,0.00,,---,0.00,VWS V14.01,2013-08-14 08:14:00,
2013-08-14 04:15:00,72.9,71.1,29.86,NNE,23,1.0,3.0,94,0.00,,---,0.00,VWS V14.01,2013-08-14 08:15:00,
2013-08-14 04:16:00,72.9,71.1,29.86,NNE,27,1.0,2.0,94,0.00,,---,0.00,VWS V14.01,2013-08-14 08:16:00,
2013-08-14 04:17:00,72.9,71.1,29.86,NNE,27,1.0,2.0,94,0.00,,---,0.00,VWS V14.01,2013-08-14 08:17:00,
2013-08-14 04:18:00,72.9,71.1,29.86,NNE,27,0.0,1.0,94,0.00,,---,0.00,VWS V14.01,2013-08-14 08:18:00,
2013-08-14 04:19:00,72.9,71.1,29.86,NE,49,2.0,2.0,94,0.00,,---,0.00,VWS V14.01,2013-08-14 08:19:00,
2013-08-14 04:20:00,72.9,71.1,29.86,North,351,1.0,2.0,94,0.00,,---,0.00,VWS V14.01,2013-08-14 08:20:00,
2013-08-14 04:21:00,72.9,71.1,29.86,North,355,0.0,1.0,94,0.00,,---,0.00,VWS V14.01,2013-08-14 08:21:00,
2013-08-14 04:22:00,72.9,71.1,29.86,North,355,1.0,1.0,94,0.00,,---,0.00,VWS V14.01,2013-08-14 08:22:00,
2013-08-14 04:23:00,72.8,70.7,29.86,NW,321,0.0,1.0,93,0.00,,---,0.00,VWS V14.01,2013-08-14 08:23:00,
2013-08-14 04:24:00,72.8,70.7,29.86,NW,321,0.0,1.0,93,0.00,,---,0.00,VWS V14.01,2013-08-14 08:24:00,
2013-08-14 04:25:00,72.8,70.7,29.86,NW,321,0.0,0.0,93,0.00,,---,0.00,VWS V14.01,2013-08-14 08:25:00,
2013-08-14 04:26:00,72.8,70.7,29.86,NNW,344,1.0,2.0,93,0.00,,---,0.00,VWS V14.01,2013-08-14 08:26:00,
2013-08-14 04:27:00,72.8,70.7,29.86,NNW,329,2.0,2.0,93,0.00,,---,0.00,VWS V14.01,2013-08-14 08:27:00,
2013-08-14 04:28:00,72.8,70.7,29.86,NNE,16,1.0,2.0,93,0.00,,---,0.00,VWS V14.01,2013-08-14 08:28:00,
2013-08-14 04:29:00,72.8,70.7,29.86,NNE,16,1.0,1.0,93,0.00,,---,0.00,VWS V14.01,2013-08-14 08:29:00,
2013-08-14 04:30:00,72.8,70.7,29.86,NNE,16,1.0,1.0,93,0.00,,---,0.00,VWS V14.01,2013-08-14 08:30:00,
2013-08-14 04:31:00,72.8,70.7,29.86,NNE,16,1.0,1.0,93,0.00,,---,0.00,VWS V14.01,2013-08-14 08:31:00,
2013-08-14 04:32:00,72.8,70.7,29.86,NNE,17,1.0,1.0,93,0.00,,---,0.00,VWS V14.01,2013-08-14 08:32:00,
2013-08-14 04:33:00,72.8,70.7,29.86,NNE,16,1.0,1.0,93,0.00,,---,0.00,VWS V14.01,2013-08-14 08:33:00,
2013-08-14 04:34:00,72.8,70.7,29.86,NNE,16,2.0,2.0,93,0.00,,---,0.00,VWS V14.01,2013-08-14 08:34:00,
2013-08-14 04:35:00,72.8,70.7,29.86,NNE,15,1.0,2.0,93,0.00,,---,0.00,VWS V14.01,2013-08-14 08:35:00,
2013-08-14 04:36:00,72.8,70.7,29.86,NNE,16,0.0,1.0,93,0.00,,---,0.00,VWS V14.01,2013-08-14 08:36:00,
2013-08-14 04:37:00,72.8,70.7,29.86,NNE,16,1.0,1.0,93,0.00,,---,0.00,VWS V14.01,2013-08-14 08:37:00,
2013-08-14 04:38:00,72.8,70.3,29.86,NNE,16,0.0,1.0,92,0.00,,---,0.00,VWS V14.01,2013-08-14 08:38:00,
2013-08-14 04:39:00,72.8,70.3,29.86,NNE,17,1.0,2.0,92,0.00,,---,0.00,VWS V14.01,2013-08-14 08:39:00,
2013-08-14 04:40:00,72.8,70.3,29.86,NNE,17,2.0,2.0,92,0.00,,---,0.00,VWS V14.01,2013-08-14 08:40:00,
2013-08-14 04:41:00,72.8,70.3,29.86,NNE,17,2.0,2.0,92,0.00,,---,0.00,VWS V14.01,2013-08-14 08:41:00,
2013-08-14 04:42:00,72.7,70.2,29.86,NNE,27,1.0,2.0,92,0.00,,---,0.00,VWS V14.01,2013-08-14 08:42:00,
2013-08-14 04:43:00,72.7,70.2,29.86,NNE,28,2.0,2.0,92,0.00,,---,0.00,VWS V14.01,2013-08-14 08:43:00,
2013-08-14 04:44:00,72.7,70.2,29.87,NNE,28,1.0,2.0,92,0.00,,---,0.00,VWS V14.01,2013-08-14 08:44:00,
2013-08-14 04:45:00,72.7,69.9,29.87,NNE,28,1.0,2.0,91,0.00,,---,0.00,VWS V14.01,2013-08-14 08:45:00,
2013-08-14 04:46:00,72.7,69.9,29.86,ENE,74,1.0,2.0,91,0.00,,---,0.00,VWS V14.01,2013-08-14 08:46:00,
2013-08-14 04:47:00,72.7,69.9,29.87,ENE,74,1.0,1.0,91,0.00,,---,0.00,VWS V14.01,2013-08-14 08:47:00,
2013-08-14 04:48:00,72.7,69.9,29.86,NE,53,1.0,2.0,91,0.00,,---,0.00,VWS V14.01,2013-08-14 08:48:00,
2013-08-14 04:49:00,72.7,69.9,29.86,NE,51,1.0,2.0,91,0.00,,---,0.00,VWS V14.01,2013-08-14 08:49:00,
2013-08-14 04:50:00,72.7,69.9,29.87,NE,51,1.0,1.0,91,0.00,,---,0.00,VWS V14.01,2013-08-14 08:50:00,
2013-08-14 04:51:00,72.7,69.9,29.86,NE,51,1.0,1.0,91,0.00,,---,0.00,VWS V14.01,2013-08-14 08:51:00,
2013-08-14 04:52:00,72.7,69.9,29.87,NE,51,2.0,2.0,91,0.00,,---,0.00,VWS V14.01,2013-08-14 08:52:00,
2013-08-14 04:53:00,72.7,69.6,29.87,NE,51,1.0,2.0,90,0.00,,---,0.00,VWS V14.01,2013-08-14 08:53:00,
2013-08-14 04:54:00,72.7,69.6,29.87,NE,43,2.0,2.0,90,0.00,,---,0.00,VWS V14.01,2013-08-14 08:54:00,
2013-08-14 04:55:00,72.7,69.6,29.87,NE,42,2.0,2.0,90,0.00,,---,0.00,VWS V14.01,2013-08-14 08:55:00,
2013-08-14 04:56:00,72.7,69.6,29.87,NNE,27,2.0,3.0,90,0.00,,---,0.00,VWS V14.01,2013-08-14 08:56:00,
2013-08-14 04:57:00,72.7,69.6,29.87,NNE,20,1.0,3.0,90,0.00,,---,0.00,VWS V14.01,2013-08-14 08:57:00,
2013-08-14 04:58:00,72.7,69.6,29.87,NNE,20,1.0,2.0,90,0.00,,---,0.00,VWS V14.01,2013-08-14 08:58:00,
2013-08-14 04:59:00,72.7,69.6,29.87,NNE,23,2.0,3.0,90,0.00,,---,0.00,VWS V14.01,2013-08-14 08:59:00,
2013-08-14 05:00:00,72.7,69.3,29.87,NNE,23,1.0,3.0,89,0.00,,---,0.00,VWS V14.01,2013-08-14 09:00:00,
2013-08-14 05:01:00,72.7,69.3,29.87,NNE,23,2.0,3.0,89,0.00,,---,0.00,VWS V14.01,2013-08-14 09:01:00,
2013-08-14 05:02:00,72.7,69.3,29.87,NNE,23,2.0,2.0,89,0.00,,---,0.00,VWS V14.01,2013-08-14 09:02:00,
2013-08-14 05:03:00,72.7,69.3,29.87,NNE,24,2.0,3.0,89,0.00,,---,0.00,VWS V14.01,2013-08-14 09:03:00,
2013-08-14 05:04:00,72.7,69.3,29.87,NNE,24,1.0,2.0,89,0.00,,---,0.00,VWS V14.01,2013-08-14 09:04:00,
2013-08-14 05:05:00,72.8,69.4,29.87,NNE,23,1.0,2.0,89,0.00,,---,0.00,VWS V14.01,2013-08-14 09:05:00,
2013-08-14 05:06:00,72.7,69.3,29.87,NNE,30,2.0,2.0,89,0.00,,---,0.00,VWS V14.01,2013-08-14 09:06:00,
2013-08-14 05:07:00,72.7,69.3,29.87,NNE,29,2.0,2.0,89,0.00,,---,0.00,VWS V14.01,2013-08-14 09:07:00,
2013-08-14 05:08:00,72.7,69.3,29.87,NNE,28,3.0,3.0,89,0.00,,---,0.00,VWS V14.01,2013-08-14 09:08:00,
2013-08-14 05:09:00,72.7,69.3,29.87,NNE,27,2.0,3.0,89,0.00,,---,0.00,VWS V14.01,2013-08-14 09:09:00,
2013-08-14 05:10:00,72.7,69.3,29.87,NNE,30,1.0,2.0,89,0.00,,---,0.00,VWS V14.01,2013-08-14 09:10:00,
2013-08-14 05:11:00,72.6,69.2,29.87,NNE,30,2.0,3.0,89,0.00,,---,0.00,VWS V14.01,2013-08-14 09:11:00,
2013-08-14 05:12:00,72.6,68.8,29.87,NNE,29,2.0,2.0,88,0.00,,---,0.00,VWS V14.01,2013-08-14 09:12:00,
2013-08-14 05:13:00,72.6,68.8,29.87,NNE,23,2.0,2.0,88,0.00,,---,0.00,VWS V14.01,2013-08-14 09:13:00,
2013-08-14 05:14:00,72.6,68.8,29.87,NNE,30,2.0,3.0,88,0.00,,---,0.00,VWS V14.01,2013-08-14 09:14:00,
2013-08-14 05:15:00,72.6,68.8,29.87,NNE,22,2.0,2.0,88,0.00,,---,0.00,VWS V14.01,2013-08-14 09:15:00,
2013-08-14 05:16:00,72.6,68.8,29.87,NE,34,3.0,3.0,88,0.00,,---,0.00,VWS V14.01,2013-08-14 09:16:00,
2013-08-14 05:17:00,72.5,68.8,29.87,NNE,30,2.0,3.0,88,0.00,,---,0.00,VWS V14.01,2013-08-14 09:17:00,
2013-08-14 05:18:00,72.6,68.8,29.87,NNE,29,1.0,2.0,88,0.00,,---,0.00,VWS V14.01,2013-08-14 09:18:00,
2013-08-14 05:19:00,72.6,68.8,29.87,NNE,29,2.0,3.0,88,0.00,,---,0.00,VWS V14.01,2013-08-14 09:19:00,
2013-08-14 05:20:00,72.6,68.8,29.87,North,5,1.0,3.0,88,0.00,,---,0.00,VWS V14.01,2013-08-14 09:20:00,
2013-08-14 05:21:00,72.5,68.8,29.87,NNE,24,2.0,3.0,88,0.00,,---,0.00,VWS V14.01,2013-08-14 09:21:00,
2013-08-14 05:22:00,72.5,68.8,29.87,NNE,24,2.0,2.0,88,0.00,,---,0.00,VWS V14.01,2013-08-14 09:22:00,
2013-08-14 05:23:00,72.5,68.8,29.87,NNE,23,2.0,3.0,88,0.00,,---,0.00,VWS V14.01,2013-08-14 09:23:00,
2013-08-14 05:24:00,72.5,68.8,29.87,NNE,23,2.0,2.0,88,0.00,,---,0.00,VWS V14.01,2013-08-14 09:24:00,
2013-08-14 05:25:00,72.5,68.8,29.87,NNE,28,2.0,2.0,88,0.00,,---,0.00,VWS V14.01,2013-08-14 09:25:00,
2013-08-14 05:26:00,72.5,68.8,29.87,NNE,28,0.0,2.0,88,0.00,,---,0.00,VWS V14.01,2013-08-14 09:26:00,
2013-08-14 05:27:00,72.4,68.3,29.87,NNE,28,2.0,2.0,87,0.00,,---,0.00,VWS V14.01,2013-08-14 09:27:00,
2013-08-14 05:28:00,72.4,68.7,29.87,NNE,28,2.0,2.0,88,0.00,,---,0.00,VWS V14.01,2013-08-14 09:28:00,
2013-08-14 05:29:00,72.4,68.7,29.87,NNE,27,3.0,3.0,88,0.00,,---,0.00,VWS V14.01,2013-08-14 09:29:00,
2013-08-14 05:30:00,72.4,68.3,29.87,NNE,22,1.0,3.0,87,0.00,,---,0.00,VWS V14.01,2013-08-14 09:30:00,
2013-08-14 05:31:00,72.4,68.3,29.87,NNE,22,1.0,2.0,87,0.00,,---,0.00,VWS V14.01,2013-08-14 09:31:00,
2013-08-14 05:32:00,72.4,68.3,29.87,NNE,22,2.0,2.0,87,0.00,,---,0.00,VWS V14.01,2013-08-14 09:32:00,
2013-08-14 05:33:00,72.3,68.2,29.87,NNE,33,2.0,3.0,87,0.00,,---,0.00,VWS V14.01,2013-08-14 09:33:00,
2013-08-14 05:34:00,72.3,68.2,29.87,NE,34,2.0,2.0,87,0.00,,---,0.00,VWS V14.01,2013-08-14 09:34:00,
2013-08-14 05:35:00,72.3,68.2,29.87,NE,34,1.0,2.0,87,0.00,,---,0.00,VWS V14.01,2013-08-14 09:35:00,
2013-08-14 05:36:00,72.3,68.2,29.87,NE,34,1.0,2.0,87,0.00,,---,0.00,VWS V14.01,2013-08-14 09:36:00,
2013-08-14 05:37:00,72.3,68.2,29.87,NNE,33,2.0,3.0,87,0.00,,---,0.00,VWS V14.01,2013-08-14 09:37:00,
2013-08-14 05:38:00,72.3,68.2,29.88,NNE,32,2.0,2.0,87,0.00,,---,0.00,VWS V14.01,2013-08-14 09:38:00,
2013-08-14 05:39:00,72.3,68.2,29.88,NNE,32,2.0,2.0,87,0.00,,---,0.00,VWS V14.01,2013-08-14 09:39:00,
2013-08-14 05:40:00,72.3,68.2,29.88,NNE,32,3.0,3.0,87,0.00,,---,0.00,VWS V14.01,2013-08-14 09:40:00,
2013-08-14 05:41:00,72.2,68.1,29.88,NNE,31,2.0,3.0,87,0.00,,---,0.00,VWS V14.01,2013-08-14 09:41:00,
2013-08-14 05:42:00,72.2,68.1,29.88,NNE,29,2.0,3.0,87,0.00,,---,0.00,VWS V14.01,2013-08-14 09:42:00,
2013-08-14 05:43:00,72.2,68.1,29.88,NNE,30,2.0,4.0,87,0.00,,---,0.00,VWS V14.01,2013-08-14 09:43:00,
2013-08-14 05:44:00,72.2,68.1,29.88,NNE,20,2.0,3.0,87,0.00,,---,0.00,VWS V14.01,2013-08-14 09:44:00,
2013-08-14 05:45:00,72.2,68.1,29.88,NNE,24,3.0,3.0,87,0.00,,---,0.00,VWS V14.01,2013-08-14 09:45:00,
2013-08-14 05:46:00,72.2,67.8,29.88,NNE,24,2.0,3.0,86,0.00,,---,0.00,VWS V14.01,2013-08-14 09:46:00,
2013-08-14 05:47:00,72.3,67.9,29.88,NNE,24,2.0,2.0,86,0.00,,---,0.00,VWS V14.01,2013-08-14 09:47:00,
2013-08-14 05:48:00,72.3,67.9,29.88,NNE,27,2.0,2.0,86,0.00,,---,0.00,VWS V14.01,2013-08-14 09:48:00,
2013-08-14 05:49:00,72.2,67.8,29.88,NNE,33,2.0,4.0,86,0.00,,---,0.00,VWS V14.01,2013-08-14 09:49:00,
2013-08-14 05:50:00,72.2,67.8,29.88,NNE,19,2.0,2.0,86,0.00,,---,0.00,VWS V14.01,2013-08-14 09:50:00,
2013-08-14 05:51:00,72.2,67.8,29.88,NNE,27,2.0,4.0,86,0.00,,---,0.00,VWS V14.01,2013-08-14 09:51:00,
2013-08-14 05:52:00,72.2,67.8,29.88,NNE,17,2.0,2.0,86,0.00,,---,0.00,VWS V14.01,2013-08-14 09:52:00,
2013-08-14 05:53:00,72.2,67.8,29.88,NNE,27,2.0,2.0,86,0.00,,---,0.00,VWS V14.01,2013-08-14 09:53:00,
2013-08-14 05:54:00,72.2,67.8,29.88,NNE,28,1.0,2.0,86,0.00,,---,0.00,VWS V14.01,2013-08-14 09:54:00,
2013-08-14 05:55:00,72.3,67.9,29.89,NNE,27,1.0,1.0,86,0.00,,---,0.00,VWS V14.01,2013-08-14 09:55:00,
2013-08-14 05:56:00,72.2,67.8,29.89,NNE,27,0.0,1.0,86,0.00,,---,0.00,VWS V14.01,2013-08-14 09:56:00,
2013-08-14 05:57:00,72.2,67.8,29.89,NNE,27,1.0,1.0,86,0.00,,---,0.00,VWS V14.01,2013-08-14 09:57:00,
2013-08-14 05:58:00,72.2,67.8,29.89,NNE,27,1.0,1.0,86,0.00,,---,0.00,VWS V14.01,2013-08-14 09:58:00,
2013-08-14 05:59:00,72.2,67.8,29.89,NNE,27,1.0,1.0,86,0.00,,---,0.00,VWS V14.01,2013-08-14 09:59:00,
2013-08-14 06:00:00,72.2,67.8,29.89,NNE,27,1.0,1.0,86,0.00,,---,0.00,VWS V14.01,2013-08-14 10:00:00,
2013-08-14 06:01:00,72.1,67.7,29.89,NNE,27,2.0,2.0,86,0.00,,---,0.00,VWS V14.01,2013-08-14 10:01:00,
2013-08-14 06:02:00,72.1,67.7,29.89,NNE,27,2.0,2.0,86,0.00,,---,0.00,VWS V14.01,2013-08-14 10:02:00,
2013-08-14 06:03:00,72.0,67.6,29.89,NNE,27,2.0,2.0,86,0.00,,---,0.00,VWS V14.01,2013-08-14 10:03:00,
2013-08-14 06:04:00,72.0,67.6,29.89,NNE,27,1.0,2.0,86,0.00,,---,0.00,VWS V14.01,2013-08-14 10:04:00,
2013-08-14 06:05:00,72.0,67.6,29.89,NNE,27,1.0,1.0,86,0.00,,---,0.00,VWS V14.01,2013-08-14 10:05:00,
2013-08-14 06:06:00,72.0,67.6,29.89,NNE,27,1.0,2.0,86,0.00,,---,0.00,VWS V14.01,2013-08-14 10:06:00,
2013-08-14 06:07:00,72.0,67.6,29.89,NNE,27,2.0,3.0,86,0.00,,---,0.00,VWS V14.01,2013-08-14 10:07:00,
2013-08-14 06:08:00,72.0,67.6,29.89,NNE,27,1.0,2.0,86,0.00,,---,0.00,VWS V14.01,2013-08-14 10:08:00,
2013-08-14 06:09:00,72.0,67.6,29.89,NNE,27,2.0,2.0,86,0.00,,---,0.00,VWS V14.01,2013-08-14 10:09:00,
2013-08-14 06:10:00,71.9,67.5,29.89,NNE,27,1.0,2.0,86,0.00,,---,0.00,VWS V14.01,2013-08-14 10:10:00,
2013-08-14 06:11:00,71.9,67.5,29.89,NNE,27,2.0,2.0,86,0.00,,---,0.00,VWS V14.01,2013-08-14 10:11:00,
2013-08-14 06:12:00,71.9,67.5,29.89,NNE,27,2.0,2.0,86,0.00,,---,0.00,VWS V14.01,2013-08-14 10:12:00,
2013-08-14 06:13:00,71.9,67.5,29.90,NNE,28,1.0,2.0,86,0.00,,---,0.00,VWS V14.01,2013-08-14 10:13:00,
2013-08-14 06:14:00,71.8,67.4,29.90,NNE,27,1.0,2.0,86,0.00,,---,0.00,VWS V14.01,2013-08-14 10:14:00,
2013-08-14 06:15:00,71.8,67.4,29.90,NNE,27,1.0,1.0,86,0.00,,---,0.00,VWS V14.01,2013-08-14 10:15:00,
2013-08-14 06:16:00,71.8,67.4,29.90,NNE,27,1.0,1.0,86,0.00,,---,0.00,VWS V14.01,2013-08-14 10:16:00,
2013-08-14 06:17:00,71.8,67.4,29.90,NNE,27,1.0,1.0,86,0.00,,---,0.00,VWS V14.01,2013-08-14 10:17:00,
2013-08-14 06:18:00,71.7,67.3,29.90,NNE,27,1.0,1.0,86,0.00,,---,0.00,VWS V14.01,2013-08-14 10:18:00,
2013-08-14 06:19:00,71.7,67.3,29.90,NNE,28,1.0,1.0,86,0.00,,---,0.00,VWS V14.01,2013-08-14 10:19:00,
2013-08-14 06:20:00,71.7,67.3,29.90,NNE,27,1.0,1.0,86,0.00,,---,0.00,VWS V14.01,2013-08-14 10:20:00,
2013-08-14 06:21:00,71.7,67.6,29.90,NNE,27,1.0,2.0,87,0.00,,---,0.00,VWS V14.01,2013-08-14 10:21:00,
2013-08-14 06:22:00,71.6,67.5,29.90,NNE,27,1.0,2.0,87,0.00,,---,0.00,VWS V14.01,2013-08-14 10:22:00,
2013-08-14 06:23:00,71.6,67.5,29.90,NNE,27,2.0,2.0,87,0.00,,---,0.00,VWS V14.01,2013-08-14 10:23:00,
2013-08-14 06:24:00,71.6,67.5,29.90,NNE,27,2.0,2.0,87,0.00,,---,0.00,VWS V14.01,2013-08-14 10:24:00,
2013-08-14 06:25:00,71.6,67.5,29.90,NNE,27,2.0,2.0,87,0.00,,---,0.00,VWS V14.01,2013-08-14 10:25:00,
2013-08-14 06:26:00,71.6,67.5,29.90,NNE,27,2.0,2.0,87,0.00,,---,0.00,VWS V14.01,2013-08-14 10:26:00,
2013-08-14 06:27:00,71.6,67.5,29.90,NNE,27,2.0,2.0,87,0.00,,---,0.00,VWS V14.01,2013-08-14 10:27:00,
2013-08-14 06:28:00,71.6,67.5,29.90,NNE,28,2.0,2.0,87,0.00,,---,0.00,VWS V14.01,2013-08-14 10:28:00,
2013-08-14 06:29:00,71.6,67.5,29.90,NNE,27,2.0,2.0,87,0.00,,---,0.00,VWS V14.01,2013-08-14 10:29:00,
2013-08-14 06:30:00,71.6,67.5,29.90,NNE,27,1.0,2.0,87,0.00,,---,0.00,VWS V14.01,2013-08-14 10:30:00,
2013-08-14 06:31:00,71.6,67.5,29.90,NNE,28,2.0,2.0,87,0.00,,---,0.00,VWS V14.01,2013-08-14 10:31:00,
2013-08-14 06:32:00,71.6,67.5,29.90,NNE,27,2.0,3.0,87,0.00,,---,0.00,VWS V14.01,2013-08-14 10:32:00,
2013-08-14 06:33:00,71.6,67.2,29.91,NNE,26,2.0,2.0,86,0.00,,---,0.00,VWS V14.01,2013-08-14 10:33:00,
2013-08-14 06:34:00,71.7,67.3,29.91,NNE,26,1.0,2.0,86,0.00,,---,0.00,VWS V14.01,2013-08-14 10:34:00,
2013-08-14 06:35:00,71.7,67.6,29.91,NNE,27,1.0,2.0,87,0.00,,---,0.00,VWS V14.01,2013-08-14 10:35:00,
2013-08-14 06:36:00,71.7,67.6,29.91,NNE,26,1.0,2.0,87,0.00,,---,0.00,VWS V14.01,2013-08-14 10:36:00,
2013-08-14 06:37:00,71.7,67.6,29.91,NNE,25,2.0,2.0,87,0.00,,---,0.00,VWS V14.01,2013-08-14 10:37:00,
2013-08-14 06:38:00,71.6,67.5,29.91,NNE,26,2.0,2.0,87,0.00,,---,0.00,VWS V14.01,2013-08-14 10:38:00,
2013-08-14 06:39:00,71.6,67.2,29.91,NNE,25,1.0,2.0,86,0.00,,---,0.00,VWS V14.01,2013-08-14 10:39:00,
2013-08-14 06:40:00,71.6,67.2,29.91,NNE,27,1.0,2.0,86,0.00,,---,0.00,VWS V14.01,2013-08-14 10:40:00,
2013-08-14 06:41:00,71.6,67.2,29.91,NNE,24,1.0,2.0,86,0.00,,---,0.00,VWS V14.01,2013-08-14 10:41:00,
2013-08-14 06:42:00,71.6,67.5,29.91,NNE,24,2.0,3.0,87,0.00,,---,0.00,VWS V14.01,2013-08-14 10:42:00,
2013-08-14 06:43:00,71.6,67.2,29.91,NNE,24,2.0,2.0,86,0.00,,---,0.00,VWS V14.01,2013-08-14 10:43:00,
2013-08-14 06:44:00,71.6,67.2,29.91,NNE,27,2.0,2.0,86,0.00,,---,0.00,VWS V14.01,2013-08-14 10:44:00,
2013-08-14 06:45:00,71.7,67.3,29.91,NNE,27,2.0,2.0,86,0.00,,---,0.00,VWS V14.01,2013-08-14 10:45:00,
2013-08-14 06:46:00,71.7,67.3,29.91,NNE,27,2.0,2.0,86,0.00,,---,0.00,VWS V14.01,2013-08-14 10:46:00,
2013-08-14 06:47:00,71.7,67.3,29.91,NNE,28,1.0,2.0,86,0.00,,---,0.00,VWS V14.01,2013-08-14 10:47:00,
2013-08-14 06:48:00,71.7,67.3,29.91,NNE,27,2.0,2.0,86,0.00,,---,0.00,VWS V14.01,2013-08-14 10:48:00,
2013-08-14 06:49:00,71.7,67.3,29.91,NE,47,2.0,2.0,86,0.00,,---,0.00,VWS V14.01,2013-08-14 10:49:00,
2013-08-14 06:50:00,71.7,67.3,29.91,NE,36,4.0,4.0,86,0.00,,---,0.00,VWS V14.01,2013-08-14 10:50:00,
2013-08-14 06:51:00,71.8,67.4,29.91,NE,46,2.0,4.0,86,0.00,,---,0.00,VWS V14.01,2013-08-14 10:51:00,
2013-08-14 06:52:00,71.8,67.4,29.91,NNE,23,3.0,4.0,86,0.00,,---,0.00,VWS V14.01,2013-08-14 10:52:00,
2013-08-14 06:53:00,71.8,67.4,29.91,NE,44,2.0,4.0,86,0.00,,---,0.00,VWS V14.01,2013-08-14 10:53:00,
2013-08-14 06:54:00,71.8,67.1,29.91,NE,44,2.0,2.0,85,0.00,,---,0.00,VWS V14.01,2013-08-14 10:54:00,
2013-08-14 06:55:00,71.9,67.2,29.91,NNE,31,4.0,4.0,85,0.00,,---,0.00,VWS V14.01,2013-08-14 10:55:00,
2013-08-14 06:56:00,71.9,67.2,29.91,NE,35,3.0,4.0,85,0.00,,---,0.00,VWS V14.01,2013-08-14 10:56:00,
2013-08-14 06:57:00,71.9,67.2,29.91,NNE,33,3.0,3.0,85,0.00,,---,0.00,VWS V14.01,2013-08-14 10:57:00,
2013-08-14 06:58:00,71.9,67.2,29.92,NNE,30,3.0,4.0,85,0.00,,---,0.00,VWS V14.01,2013-08-14 10:58:00,
2013-08-14 06:59:00,71.9,66.8,29.91,NE,38,2.0,4.0,84,0.00,,---,0.00,VWS V14.01,2013-08-14 10:59:00,
2013-08-14 07:00:00,72.0,66.9,29.91,NE,46,2.0,4.0,84,0.00,,---,0.00,VWS V14.01,2013-08-14 11:00:00,
2013-08-14 07:01:00,72.0,66.9,29.92,ENE,57,2.0,4.0,84,0.00,,---,0.00,VWS V14.01,2013-08-14 11:01:00,
2013-08-14 07:02:00,72.0,66.9,29.92,NNE,24,2.0,3.0,84,0.00,,---,0.00,VWS V14.01,2013-08-14 11:02:00,
2013-08-14 07:03:00,72.1,67.0,29.92,NNE,26,4.0,4.0,84,0.00,,---,0.00,VWS V14.01,2013-08-14 11:03:00,
2013-08-14 07:04:00,72.1,67.0,29.92,NE,47,1.0,4.0,84,0.00,,---,0.00,VWS V14.01,2013-08-14 11:04:00,
2013-08-14 07:05:00,72.1,67.0,29.92,NE,36,2.0,3.0,84,0.00,,---,0.00,VWS V14.01,2013-08-14 11:05:00,
2013-08-14 07:06:00,72.1,67.0,29.92,NNE,24,3.0,3.0,84,0.00,,---,0.00,VWS V14.01,2013-08-14 11:06:00,
2013-08-14 07:07:00,72.1,67.0,29.92,NNE,23,3.0,3.0,84,0.00,,---,0.00,VWS V14.01,2013-08-14 11:07:00,
2013-08-14 07:08:00,72.1,67.0,29.92,NE,42,2.0,3.0,84,0.00,,---,0.00,VWS V14.01,2013-08-14 11:08:00,
2013-08-14 07:09:00,72.1,66.7,29.92,NNE,19,3.0,3.0,83,0.00,,---,0.00,VWS V14.01,2013-08-14 11:09:00,
2013-08-14 07:10:00,72.1,66.7,29.92,NNE,28,2.0,3.0,83,0.00,,---,0.00,VWS V14.01,2013-08-14 11:10:00,
2013-08-14 07:11:00,72.2,66.8,29.92,NNE,31,1.0,3.0,83,0.00,,---,0.00,VWS V14.01,2013-08-14 11:11:00,
2013-08-14 07:12:00,72.2,66.8,29.92,NNE,33,2.0,3.0,83,0.00,,---,0.00,VWS V14.01,2013-08-14 11:12:00,
2013-08-14 07:13:00,72.2,66.8,29.92,NE,35,2.0,3.0,83,0.00,,---,0.00,VWS V14.01,2013-08-14 11:13:00,
2013-08-14 07:14:00,72.2,66.8,29.93,NNE,20,3.0,3.0,83,0.00,,---,0.00,VWS V14.01,2013-08-14 11:14:00,
2013-08-14 07:15:00,72.2,66.8,29.93,NNE,27,2.0,3.0,83,0.00,,---,0.00,VWS V14.01,2013-08-14 11:15:00,
2013-08-14 07:16:00,72.2,66.8,29.93,NNE,24,3.0,3.0,83,0.00,,---,0.00,VWS V14.01,2013-08-14 11:16:00,
2013-08-14 07:17:00,72.2,66.8,29.93,NNE,27,2.0,3.0,83,0.00,,---,0.00,VWS V14.01,2013-08-14 11:17:00,
2013-08-14 07:18:00,72.2,66.8,29.93,NNE,27,2.0,2.0,83,0.00,,---,0.00,VWS V14.01,2013-08-14 11:18:00,
2013-08-14 07:19:00,72.2,66.8,29.93,NNE,27,2.0,2.0,83,0.00,,---,0.00,VWS V14.01,2013-08-14 11:19:00,
2013-08-14 07:20:00,72.2,66.8,29.93,NNE,32,3.0,3.0,83,0.00,,---,0.00,VWS V14.01,2013-08-14 11:20:00,
2013-08-14 07:21:00,72.2,66.8,29.93,NNE,31,3.0,3.0,83,0.00,,---,0.00,VWS V14.01,2013-08-14 11:21:00,
2013-08-14 07:22:00,72.2,66.8,29.93,NNE,32,2.0,3.0,83,0.00,,---,0.00,VWS V14.01,2013-08-14 11:22:00,
2013-08-14 07:23:00,72.2,66.8,29.93,NNE,32,2.0,2.0,83,0.00,,---,0.00,VWS V14.01,2013-08-14 11:23:00,
2013-08-14 07:24:00,72.2,66.8,29.93,NNE,25,2.0,3.0,83,0.00,,---,0.00,VWS V14.01,2013-08-14 11:24:00,
2013-08-14 07:25:00,72.2,66.8,29.93,NNE,32,3.0,4.0,83,0.00,,---,0.00,VWS V14.01,2013-08-14 11:25:00,
2013-08-14 07:26:00,72.2,66.8,29.93,NNE,23,3.0,4.0,83,0.00,,---,0.00,VWS V14.01,2013-08-14 11:26:00,
2013-08-14 07:27:00,72.3,66.8,29.93,NE,51,3.0,4.0,83,0.00,,---,0.00,VWS V14.01,2013-08-14 11:27:00,
2013-08-14 07:28:00,72.4,66.9,29.93,NNE,30,3.0,4.0,83,0.00,,---,0.00,VWS V14.01,2013-08-14 11:28:00,
2013-08-14 07:29:00,72.4,66.6,29.94,NE,36,3.0,3.0,82,0.00,,---,0.00,VWS V14.01,2013-08-14 11:29:00,
2013-08-14 07:30:00,72.5,67.1,29.93,NE,47,2.0,3.0,83,0.00,,---,0.00,VWS V14.01,2013-08-14 11:30:00,
2013-08-14 07:31:00,72.6,67.2,29.93,NE,39,3.0,3.0,83,0.00,,---,0.00,VWS V14.01,2013-08-14 11:31:00,
2013-08-14 07:32:00,72.6,67.2,29.93,NE,39,2.0,3.0,83,0.00,,---,0.00,VWS V14.01,2013-08-14 11:32:00,
2013-08-14 07:33:00,72.7,66.9,29.94,NNE,28,4.0,4.0,82,0.00,,---,0.00,VWS V14.01,2013-08-14 11:33:00,
2013-08-14 07:34:00,72.7,66.9,29.94,NNE,24,4.0,4.0,82,0.00,,---,0.00,VWS V14.01,2013-08-14 11:34:00,
2013-08-14 07:35:00,72.8,67.0,29.93,NNE,32,3.0,4.0,82,0.00,,---,0.00,VWS V14.01,2013-08-14 11:35:00,
2013-08-14 07:36:00,72.8,67.0,29.93,NE,36,3.0,4.0,82,0.00,,---,0.00,VWS V14.01,2013-08-14 11:36:00,
2013-08-14 07:37:00,72.8,67.0,29.93,NE,52,3.0,5.0,82,0.00,,---,0.00,VWS V14.01,2013-08-14 11:37:00,
2013-08-14 07:38:00,72.8,67.0,29.93,NNE,30,3.0,3.0,82,0.00,,---,0.00,VWS V14.01,2013-08-14 11:38:00,
2013-08-14 07:39:00,72.8,67.0,29.93,NE,49,2.0,4.0,82,0.00,,---,0.00,VWS V14.01,2013-08-14 11:39:00,
2013-08-14 07:40:00,72.8,67.0,29.93,NE,39,3.0,4.0,82,0.00,,---,0.00,VWS V14.01,2013-08-14 11:40:00,
2013-08-14 07:41:00,72.8,67.0,29.93,NE,38,2.0,3.0,82,0.00,,---,0.00,VWS V14.01,2013-08-14 11:41:00,
2013-08-14 07:42:00,72.8,67.0,29.93,NNE,20,2.0,3.0,82,0.00,,---,0.00,VWS V14.01,2013-08-14 11:42:00,
2013-08-14 07:43:00,72.8,67.0,29.93,NNE,29,5.0,5.0,82,0.00,,---,0.00,VWS V14.01,2013-08-14 11:43:00,
2013-08-14 07:44:00,72.8,67.0,29.94,NE,36,2.0,3.0,82,0.00,,---,0.00,VWS V14.01,2013-08-14 11:44:00,
2013-08-14 07:45:00,72.8,67.0,29.94,NE,46,2.0,3.0,82,0.00,,---,0.00,VWS V14.01,2013-08-14 11:45:00,
2013-08-14 07:46:00,72.8,67.0,29.94,NE,53,2.0,3.0,82,0.00,,---,0.00,VWS V14.01,2013-08-14 11:46:00,
2013-08-14 07:47:00,72.8,67.0,29.94,NNE,30,3.0,3.0,82,0.00,,---,0.00,VWS V14.01,2013-08-14 11:47:00,
2013-08-14 07:48:00,72.8,67.0,29.94,NE,38,2.0,3.0,82,0.00,,---,0.00,VWS V14.01,2013-08-14 11:48:00,
2013-08-14 07:49:00,72.8,67.0,29.94,NE,36,2.0,3.0,82,0.00,,---,0.00,VWS V14.01,2013-08-14 11:49:00,
2013-08-14 07:50:00,72.8,67.0,29.94,NE,36,3.0,3.0,82,0.00,,---,0.00,VWS V14.01,2013-08-14 11:50:00,
2013-08-14 07:51:00,72.8,67.0,29.94,NNE,30,2.0,3.0,82,0.00,,---,0.00,VWS V14.01,2013-08-14 11:51:00,
2013-08-14 07:52:00,72.8,67.0,29.94,NE,43,1.0,2.0,82,0.00,,---,0.00,VWS V14.01,2013-08-14 11:52:00,
2013-08-14 07:53:00,72.8,67.0,29.94,ENE,57,3.0,3.0,82,0.00,,---,0.00,VWS V14.01,2013-08-14 11:53:00,
2013-08-14 07:54:00,72.8,67.0,29.94,NE,49,2.0,3.0,82,0.00,,---,0.00,VWS V14.01,2013-08-14 11:54:00,
2013-08-14 07:55:00,72.8,67.0,29.94,NE,48,3.0,3.0,82,0.00,,---,0.00,VWS V14.01,2013-08-14 11:55:00,
2013-08-14 07:56:00,72.8,67.0,29.94,NE,39,2.0,3.0,82,0.00,,---,0.00,VWS V14.01,2013-08-14 11:56:00,
2013-08-14 07:57:00,72.8,67.0,29.95,NE,38,2.0,2.0,82,0.00,,---,0.00,VWS V14.01,2013-08-14 11:57:00,
2013-08-14 07:58:00,72.8,67.0,29.95,NNE,32,1.0,2.0,82,0.00,,---,0.00,VWS V14.01,2013-08-14 11:58:00,
2013-08-14 07:59:00,72.8,67.0,29.95,NNE,27,3.0,3.0,82,0.00,,---,0.00,VWS V14.01,2013-08-14 11:59:00,
2013-08-14 08:00:00,72.8,67.0,29.95,NE,53,1.0,2.0,82,0.00,,---,0.00,VWS V14.01,2013-08-14 12:00:00,
2013-08-14 08:05:00,72.8,67.0,29.95,NE,53,1.0,2.0,82,0.00,,---,0.00,VWS V14.01,2013-08-14 12:05:00,
2013-08-14 08:06:00,72.9,67.1,29.95,NE,36,2.0,2.0,82,0.00,,---,0.00,VWS V14.01,2013-08-14 12:06:00,
2013-08-14 08:07:00,72.8,67.0,29.95,NE,53,3.0,3.0,82,0.00,,---,0.00,VWS V14.01,2013-08-14 12:07:00,
2013-08-14 08:08:00,72.9,67.1,29.95,NE,53,1.0,3.0,82,0.00,,---,0.00,VWS V14.01,2013-08-14 12:08:00,
2013-08-14 08:09:00,72.9,67.1,29.95,NE,38,1.0,2.0,82,0.00,,---,0.00,VWS V14.01,2013-08-14 12:09:00,
2013-08-14 08:10:00,72.9,67.1,29.95,NE,49,2.0,2.0,82,0.00,,---,0.00,VWS V14.01,2013-08-14 12:10:00,
2013-08-14 08:11:00,72.9,67.1,29.95,NNE,33,3.0,3.0,82,0.00,,---,0.00,VWS V14.01,2013-08-14 12:11:00,
2013-08-14 08:12:00,72.9,67.1,29.96,NE,44,2.0,3.0,82,0.00,,---,0.00,VWS V14.01,2013-08-14 12:12:00,
2013-08-14 08:13:00,72.9,67.1,29.95,NE,46,2.0,2.0,82,0.00,,---,0.00,VWS V14.01,2013-08-14 12:13:00,
2013-08-14 08:14:00,72.9,67.1,29.96,NE,51,1.0,2.0,82,0.00,,---,0.00,VWS V14.01,2013-08-14 12:14:00,
2013-08-14 08:15:00,72.9,67.1,29.96,NE,51,2.0,2.0,82,0.00,,---,0.00,VWS V14.01,2013-08-14 12:15:00,
2013-08-14 08:16:00,72.9,67.1,29.96,NE,51,1.0,1.0,82,0.00,,---,0.00,VWS V14.01,2013-08-14 12:16:00,
2013-08-14 08:17:00,72.9,67.1,29.96,NE,36,2.0,2.0,82,0.00,,---,0.00,VWS V14.01,2013-08-14 12:17:00,
2013-08-14 08:18:00,72.9,67.1,29.96,NE,48,1.0,2.0,82,0.00,,---,0.00,VWS V14.01,2013-08-14 12:18:00,
2013-08-14 08:19:00,72.9,67.1,29.96,NE,49,1.0,2.0,82,0.00,,---,0.00,VWS V14.01,2013-08-14 12:19:00,
2013-08-14 08:20:00,72.9,67.1,29.96,NE,48,0.0,2.0,82,0.00,,---,0.00,VWS V14.01,2013-08-14 12:20:00,
2013-08-14 08:21:00,72.9,67.1,29.96,NE,48,1.0,2.0,82,0.00,,---,0.00,VWS V14.01,2013-08-14 12:21:00,
2013-08-14 08:22:00,72.9,67.1,29.96,NE,48,1.0,1.0,82,0.00,,---,0.00,VWS V14.01,2013-08-14 12:22:00,
2013-08-14 08:23:00,72.9,67.4,29.96,NE,48,1.0,1.0,83,0.00,,---,0.00,VWS V14.01,2013-08-14 12:23:00,
2013-08-14 08:24:00,73.0,67.5,29.96,NE,48,2.0,2.0,83,0.00,,---,0.00,VWS V14.01,2013-08-14 12:24:00,
2013-08-14 08:25:00,73.0,67.5,29.96,NE,55,2.0,3.0,83,0.00,,---,0.00,VWS V14.01,2013-08-14 12:25:00,
2013-08-14 08:26:00,73.0,67.2,29.96,NE,36,3.0,3.0,82,0.00,,---,0.00,VWS V14.01,2013-08-14 12:26:00,
2013-08-14 08:27:00,73.0,67.2,29.96,ENE,59,2.0,3.0,82,0.00,,---,0.00,VWS V14.01,2013-08-14 12:27:00,
2013-08-14 08:28:00,73.0,67.2,29.96,NE,55,1.0,3.0,82,0.00,,---,0.00,VWS V14.01,2013-08-14 12:28:00,
2013-08-14 08:29:00,73.0,67.2,29.96,NE,53,1.0,2.0,82,0.00,,---,0.00,VWS V14.01,2013-08-14 12:29:00,
2013-08-14 08:30:00,73.0,67.5,29.96,NE,53,1.0,1.0,83,0.00,,---,0.00,VWS V14.01,2013-08-14 12:30:00,
2013-08-14 08:31:00,73.1,67.6,29.96,ENE,62,3.0,3.0,83,0.00,,---,0.00,VWS V14.01,2013-08-14 12:31:00,
2013-08-14 08:32:00,73.1,67.3,29.96,ENE,61,2.0,3.0,82,0.00,,---,0.00,VWS V14.01,2013-08-14 12:32:00,
2013-08-14 08:33:00,73.1,67.3,29.97,ENE,57,2.0,2.0,82,0.00,,---,0.00,VWS V14.01,2013-08-14 12:33:00,
2013-08-14 08:34:00,73.1,67.3,29.97,ENE,57,2.0,2.0,82,0.00,,---,0.00,VWS V14.01,2013-08-14 12:34:00,
2013-08-14 08:35:00,73.1,67.3,29.97,ENE,57,1.0,2.0,82,0.00,,---,0.00,VWS V14.01,2013-08-14 12:35:00,
2013-08-14 08:36:00,73.1,67.6,29.97,ENE,57,2.0,2.0,83,0.00,,---,0.00,VWS V14.01,2013-08-14 12:36:00,
2013-08-14 08:37:00,73.2,67.7,29.97,NE,39,2.0,3.0,83,0.00,,---,0.00,VWS V14.01,2013-08-14 12:37:00,
2013-08-14 08:38:00,73.2,67.7,29.97,NE,36,4.0,4.0,83,0.00,,---,0.00,VWS V14.01,2013-08-14 12:38:00,
2013-08-14 08:39:00,73.2,67.4,29.97,NE,47,3.0,4.0,82,0.00,,---,0.00,VWS V14.01,2013-08-14 12:39:00,
2013-08-14 08:40:00,73.2,67.4,29.97,NE,51,3.0,4.0,82,0.00,,---,0.00,VWS V14.01,2013-08-14 12:40:00,
2013-08-14 08:41:00,73.2,67.4,29.97,NE,53,4.0,4.0,82,0.00,,---,0.00,VWS V14.01,2013-08-14 12:41:00,
2013-08-14 08:42:00,73.2,67.4,29.97,ENE,57,3.0,4.0,82,0.00,,---,0.00,VWS V14.01,2013-08-14 12:42:00,
2013-08-14 08:43:00,73.2,67.4,29.97,NE,50,2.0,3.0,82,0.00,,---,0.00,VWS V14.01,2013-08-14 12:43:00,
2013-08-14 08:44:00,73.3,67.5,29.97,NE,47,4.0,4.0,82,0.00,,---,0.00,VWS V14.01,2013-08-14 12:44:00,
2013-08-14 08:45:00,73.3,67.5,29.97,NNE,28,2.0,4.0,82,0.00,,---,0.00,VWS V14.01,2013-08-14 12:45:00,
2013-08-14 08:46:00,73.3,67.5,29.97,NE,48,2.0,3.0,82,0.00,,---,0.00,VWS V14.01,2013-08-14 12:46:00,
2013-08-14 08:47:00,73.3,67.5,29.97,NNE,28,2.0,2.0,82,0.00,,---,0.00,VWS V14.01,2013-08-14 12:47:00,
2013-08-14 08:48:00,73.3,67.8,29.97,NE,35,2.0,2.0,83,0.00,,---,0.00,VWS V14.01,2013-08-14 12:48:00,
2013-08-14 08:49:00,73.3,67.8,29.97,NNE,26,3.0,3.0,83,0.00,,---,0.00,VWS V14.01,2013-08-14 12:49:00,
2013-08-14 08:50:00,73.3,67.5,29.97,NE,52,4.0,4.0,82,0.00,,---,0.00,VWS V14.01,2013-08-14 12:50:00,
2013-08-14 08:51:00,73.3,67.5,29.97,NE,51,4.0,4.0,82,0.00,,---,0.00,VWS V14.01,2013-08-14 12:51:00,
2013-08-14 08:52:00,73.3,67.5,29.97,NE,52,3.0,4.0,82,0.00,,---,0.00,VWS V14.01,2013-08-14 12:52:00,
2013-08-14 08:53:00,73.3,67.5,29.97,NE,53,4.0,4.0,82,0.00,,---,0.00,VWS V14.01,2013-08-14 12:53:00,
2013-08-14 08:54:00,73.3,67.5,29.97,NE,48,2.0,4.0,82,0.00,,---,0.00,VWS V14.01,2013-08-14 12:54:00,
2013-08-14 08:55:00,73.3,67.5,29.97,NE,53,3.0,3.0,82,0.00,,---,0.00,VWS V14.01,2013-08-14 12:55:00,
2013-08-14 08:56:00,73.3,67.5,29.97,NE,44,4.0,5.0,82,0.00,,---,0.00,VWS V14.01,2013-08-14 12:56:00,
2013-08-14 08:57:00,73.3,67.5,29.97,NE,48,3.0,4.0,82,0.00,,---,0.00,VWS V14.01,2013-08-14 12:57:00,
2013-08-14 08:58:00,73.3,67.5,29.97,NE,47,2.0,4.0,82,0.00,,---,0.00,VWS V14.01,2013-08-14 12:58:00,
2013-08-14 08:59:00,73.3,67.8,29.97,NE,42,1.0,2.0,83,0.00,,---,0.00,VWS V14.01,2013-08-14 12:59:00,
2013-08-14 09:00:00,73.4,67.9,29.97,NNE,32,2.0,3.0,83,0.00,,---,0.00,VWS V14.01,2013-08-14 13:00:00,
2013-08-14 09:01:00,73.4,67.9,29.97,NNE,32,2.0,2.0,83,0.00,,---,0.00,VWS V14.01,2013-08-14 13:01:00,
2013-08-14 09:02:00,73.5,68.0,29.97,NE,42,4.0,4.0,83,0.00,,---,0.00,VWS V14.01,2013-08-14 13:02:00,
2013-08-14 09:03:00,73.5,67.7,29.97,NE,47,6.0,7.0,82,0.00,,---,0.00,VWS V14.01,2013-08-14 13:03:00,
2013-08-14 09:04:00,73.5,67.7,29.97,NNE,29,3.0,6.0,82,0.00,,---,0.00,VWS V14.01,2013-08-14 13:04:00,
2013-08-14 09:05:00,73.5,67.7,29.97,NNE,20,3.0,3.0,82,0.00,,---,0.00,VWS V14.01,2013-08-14 13:05:00,
2013-08-14 09:06:00,73.5,67.7,29.97,NNE,30,2.0,3.0,82,0.00,,---,0.00,VWS V14.01,2013-08-14 13:06:00,
2013-08-14 09:07:00,73.5,68.0,29.97,NNE,32,3.0,4.0,83,0.00,,---,0.00,VWS V14.01,2013-08-14 13:07:00,
2013-08-14 09:08:00,73.5,67.7,29.97,NE,46,2.0,3.0,82,0.00,,---,0.00,VWS V14.01,2013-08-14 13:08:00,
2013-08-14 09:09:00,73.6,67.8,29.97,NE,47,3.0,4.0,82,0.00,,---,0.00,VWS V14.01,2013-08-14 13:09:00,
2013-08-14 09:10:00,73.6,67.8,29.97,NE,51,3.0,4.0,82,0.00,,---,0.00,VWS V14.01,2013-08-14 13:10:00,
2013-08-14 09:11:00,73.6,67.8,29.97,NE,44,3.0,4.0,82,0.00,,---,0.00,VWS V14.01,2013-08-14 13:11:00,
2013-08-14 09:12:00,73.6,67.8,29.97,NE,46,1.0,3.0,82,0.00,,---,0.00,VWS V14.01,2013-08-14 13:12:00,
2013-08-14 09:13:00,73.7,67.9,29.97,NE,49,4.0,5.0,82,0.00,,---,0.00,VWS V14.01,2013-08-14 13:13:00,
2013-08-14 09:14:00,73.7,67.9,29.97,NE,42,3.0,4.0,82,0.00,,---,0.00,VWS V14.01,2013-08-14 13:14:00,
2013-08-14 09:15:00,73.7,67.9,29.97,NNE,29,4.0,5.0,82,0.00,,---,0.00,VWS V14.01,2013-08-14 13:15:00,
2013-08-14 09:16:00,73.6,67.4,29.97,NNE,27,5.0,5.0,81,0.00,,---,0.00,VWS V14.01,2013-08-14 13:16:00,
2013-08-14 09:17:00,73.6,67.4,29.97,NE,44,6.0,6.0,81,0.00,,---,0.00,VWS V14.01,2013-08-14 13:17:00,
2013-08-14 09:18:00,73.6,67.8,29.97,NE,51,3.0,7.0,82,0.00,,---,0.00,VWS V14.01,2013-08-14 13:18:00,
2013-08-14 09:19:00,73.7,67.9,29.97,ENE,57,1.0,3.0,82,0.00,,---,0.00,VWS V14.01,2013-08-14 13:19:00,
2013-08-14 09:20:00,73.7,67.9,29.97,NNE,22,1.0,2.0,82,0.00,,---,0.00,VWS V14.01,2013-08-14 13:20:00,
2013-08-14 09:21:00,73.7,67.9,29.97,NNE,30,5.0,5.0,82,0.00,,---,0.00,VWS V14.01,2013-08-14 13:21:00,
2013-08-14 09:22:00,73.8,68.0,29.97,NE,36,4.0,5.0,82,0.00,,---,0.00,VWS V14.01,2013-08-14 13:22:00,
2013-08-14 09:23:00,73.8,68.0,29.97,ENE,60,4.0,4.0,82,0.00,,---,0.00,VWS V14.01,2013-08-14 13:23:00,
2013-08-14 09:24:00,73.8,68.0,29.97,NE,53,4.0,4.0,82,0.00,,---,0.00,VWS V14.01,2013-08-14 13:24:00,
2013-08-14 09:25:00,73.8,68.0,29.97,NE,40,3.0,6.0,82,0.00,,---,0.00,VWS V14.01,2013-08-14 13:25:00,
2013-08-14 09:26:00,73.8,67.6,29.97,NE,50,2.0,5.0,81,0.00,,---,0.00,VWS V14.01,2013-08-14 13:26:00,
2013-08-14 09:27:00,73.8,67.6,29.97,NE,43,3.0,4.0,81,0.00,,---,0.00,VWS V14.01,2013-08-14 13:27:00,
2013-08-14 09:28:00,73.8,67.6,29.97,NNE,22,3.0,3.0,81,0.00,,---,0.00,VWS V14.01,2013-08-14 13:28:00,
2013-08-14 09:29:00,73.9,67.7,29.97,NNE,33,3.0,3.0,81,0.00,,---,0.00,VWS V14.01,2013-08-14 13:29:00,
2013-08-14 09:30:00,73.9,67.7,29.97,NE,38,2.0,3.0,81,0.00,,---,0.00,VWS V14.01,2013-08-14 13:30:00,
2013-08-14 09:31:00,73.9,68.1,29.97,ENE,58,3.0,4.0,82,0.00,,---,0.00,VWS V14.01,2013-08-14 13:31:00,
2013-08-14 09:32:00,73.9,67.7,29.97,NNE,31,3.0,4.0,81,0.00,,---,0.00,VWS V14.01,2013-08-14 13:32:00,
2013-08-14 09:33:00,73.9,67.7,29.97,NNE,31,4.0,4.0,81,0.00,,---,0.00,VWS V14.01,2013-08-14 13:33:00,
2013-08-14 09:34:00,74.0,67.8,29.97,NE,49,3.0,4.0,81,0.00,,---,0.00,VWS V14.01,2013-08-14 13:34:00,
2013-08-14 09:35:00,74.0,67.8,29.97,NE,34,3.0,5.0,81,0.00,,---,0.00,VWS V14.01,2013-08-14 13:35:00,
2013-08-14 09:36:00,74.0,67.8,29.97,NE,42,3.0,5.0,81,0.00,,---,0.00,VWS V14.01,2013-08-14 13:36:00,
2013-08-14 09:37:00,74.0,67.8,29.97,ENE,72,7.0,7.0,81,0.00,,---,0.00,VWS V14.01,2013-08-14 13:37:00,
2013-08-14 09:38:00,74.0,67.8,29.97,ENE,58,2.0,7.0,81,0.00,,---,0.00,VWS V14.01,2013-08-14 13:38:00,
2013-08-14 09:39:00,74.0,67.8,29.98,ENE,60,3.0,4.0,81,0.00,,---,0.00,VWS V14.01,2013-08-14 13:39:00,
2013-08-14 09:40:00,74.0,67.8,29.98,ENE,74,3.0,4.0,81,0.00,,---,0.00,VWS V14.01,2013-08-14 13:40:00,
2013-08-14 09:41:00,74.1,67.9,29.97,ENE,57,4.0,5.0,81,0.00,,---,0.00,VWS V14.01,2013-08-14 13:41:00,
2013-08-14 09:42:00,74.1,67.9,29.97,NE,53,3.0,5.0,81,0.00,,---,0.00,VWS V14.01,2013-08-14 13:42:00,
2013-08-14 09:43:00,74.2,68.0,29.97,NE,53,2.0,3.0,81,0.00,,---,0.00,VWS V14.01,2013-08-14 13:43:00,
2013-08-14 09:44:00,74.2,68.4,29.98,ENE,70,3.0,3.0,82,0.00,,---,0.00,VWS V14.01,2013-08-14 13:44:00,
2013-08-14 09:45:00,74.2,68.4,29.98,ENE,61,3.0,3.0,82,0.00,,---,0.00,VWS V14.01,2013-08-14 13:45:00,
2013-08-14 09:46:00,74.3,68.1,29.98,ENE,59,5.0,5.0,81,0.00,,---,0.00,VWS V14.01,2013-08-14 13:46:00,
2013-08-14 09:47:00,74.3,68.1,29.98,NNE,33,3.0,6.0,81,0.00,,---,0.00,VWS V14.01,2013-08-14 13:47:00,
2013-08-14 09:48:00,74.3,68.1,29.98,NE,46,3.0,4.0,81,0.00,,---,0.00,VWS V14.01,2013-08-14 13:48:00,
2013-08-14 09:49:00,74.4,68.2,29.98,NE,48,4.0,5.0,81,0.00,,---,0.00,VWS V14.01,2013-08-14 13:49:00,
2013-08-14 09:50:00,74.4,67.8,29.98,ENE,72,4.0,7.0,80,0.00,,---,0.00,VWS V14.01,2013-08-14 13:50:00,
2013-08-14 09:51:00,74.3,67.7,29.98,ENE,61,5.0,7.0,80,0.00,,---,0.00,VWS V14.01,2013-08-14 13:51:00,
2013-08-14 09:52:00,74.3,67.7,29.98,ENE,57,2.0,5.0,80,0.00,,---,0.00,VWS V14.01,2013-08-14 13:52:00,
2013-08-14 09:53:00,74.3,68.1,29.98,NE,50,2.0,3.0,81,0.00,,---,0.00,VWS V14.01,2013-08-14 13:53:00,
2013-08-14 09:54:00,74.4,68.2,29.98,NNE,28,2.0,4.0,81,0.00,,---,0.00,VWS V14.01,2013-08-14 13:54:00,
2013-08-14 09:55:00,74.4,68.2,29.98,NNE,31,3.0,4.0,81,0.00,,---,0.00,VWS V14.01,2013-08-14 13:55:00,
2013-08-14 09:56:00,74.4,67.8,29.98,NE,55,3.0,4.0,80,0.00,,---,0.00,VWS V14.01,2013-08-14 13:56:00,
2013-08-14 09:57:00,74.4,68.2,29.98,ENE,63,3.0,4.0,81,0.00,,---,0.00,VWS V14.01,2013-08-14 13:57:00,
2013-08-14 09:58:00,74.4,68.2,29.98,ENE,66,3.0,4.0,81,0.00,,---,0.00,VWS V14.01,2013-08-14 13:58:00,
2013-08-14 09:59:00,74.4,68.2,29.98,East,87,7.0,9.0,81,0.00,,---,0.00,VWS V14.01,2013-08-14 13:59:00,
2013-08-14 10:00:00,74.4,68.2,29.98,East,83,7.0,9.0,81,0.00,,---,0.00,VWS V14.01,2013-08-14 14:00:00,
2013-08-14 10:01:00,74.4,67.8,29.98,ENE,70,4.0,7.0,80,0.00,,---,0.00,VWS V14.01,2013-08-14 14:01:00,
2013-08-14 10:02:00,74.4,67.8,29.98,NE,55,4.0,7.0,80,0.00,,---,0.00,VWS V14.01,2013-08-14 14:02:00,
2013-08-14 10:03:00,74.4,68.2,29.98,NE,51,3.0,4.0,81,0.00,,---,0.00,VWS V14.01,2013-08-14 14:03:00,
2013-08-14 10:04:00,74.5,68.3,29.99,NE,44,3.0,3.0,81,0.00,,---,0.00,VWS V14.01,2013-08-14 14:04:00,
2013-08-14 10:05:00,74.5,68.3,29.99,NE,44,2.0,3.0,81,0.00,,---,0.00,VWS V14.01,2013-08-14 14:05:00,
2013-08-14 10:06:00,74.5,68.3,29.98,ENE,72,7.0,8.0,81,0.00,,---,0.00,VWS V14.01,2013-08-14 14:06:00,
2013-08-14 10:07:00,74.5,67.9,29.98,ENE,76,7.0,7.0,80,0.00,,---,0.00,VWS V14.01,2013-08-14 14:07:00,
2013-08-14 10:08:00,74.5,67.9,29.99,East,86,6.0,9.0,80,0.00,,---,0.00,VWS V14.01,2013-08-14 14:08:00,
2013-08-14 10:09:00,74.5,67.9,29.99,NE,53,3.0,5.0,80,0.00,,---,0.00,VWS V14.01,2013-08-14 14:09:00,
2013-08-14 10:10:00,74.5,67.9,29.99,ENE,57,5.0,5.0,80,0.00,,---,0.00,VWS V14.01,2013-08-14 14:10:00,
2013-08-14 10:11:00,74.5,67.9,29.99,ENE,70,5.0,8.0,80,0.00,,---,0.00,VWS V14.01,2013-08-14 14:11:00,
2013-08-14 10:12:00,74.5,67.9,29.99,NE,54,4.0,7.0,80,0.00,,---,0.00,VWS V14.01,2013-08-14 14:12:00,
2013-08-14 10:13:00,74.5,67.9,29.99,NE,39,4.0,5.0,80,0.00,,---,0.00,VWS V14.01,2013-08-14 14:13:00,
2013-08-14 10:14:00,74.5,67.9,29.99,ENE,63,4.0,4.0,80,0.00,,---,0.00,VWS V14.01,2013-08-14 14:14:00,
2013-08-14 10:15:00,74.5,67.9,29.99,ENE,57,5.0,5.0,80,0.00,,---,0.00,VWS V14.01,2013-08-14 14:15:00,
2013-08-14 10:16:00,74.5,67.9,29.99,NE,49,3.0,5.0,80,0.00,,---,0.00,VWS V14.01,2013-08-14 14:16:00,
2013-08-14 10:17:00,74.5,67.9,29.99,NE,53,5.0,7.0,80,0.00,,---,0.00,VWS V14.01,2013-08-14 14:17:00,
2013-08-14 10:18:00,74.5,67.9,29.99,ENE,66,5.0,7.0,80,0.00,,---,0.00,VWS V14.01,2013-08-14 14:18:00,
2013-08-14 10:19:00,74.5,67.6,29.99,ENE,74,7.0,7.0,79,0.00,,---,0.00,VWS V14.01,2013-08-14 14:19:00,
2013-08-14 10:20:00,74.4,67.5,29.99,NE,44,7.0,7.0,79,0.00,,---,0.00,VWS V14.01,2013-08-14 14:20:00,
2013-08-14 10:21:00,74.4,67.5,29.99,NE,50,6.0,7.0,79,0.00,,---,0.00,VWS V14.01,2013-08-14 14:21:00,
2013-08-14 10:22:00,74.4,67.5,29.99,ENE,59,4.0,6.0,79,0.00,,---,0.00,VWS V14.01,2013-08-14 14:22:00,
2013-08-14 10:23:00,74.4,67.5,29.99,ENE,65,4.0,4.0,79,0.00,,---,0.00,VWS V14.01,2013-08-14 14:23:00,
2013-08-14 10:24:00,74.4,67.8,29.99,ENE,57,7.0,7.0,80,0.00,,---,0.00,VWS V14.01,2013-08-14 14:24:00,
2013-08-14 10:25:00,74.4,67.8,29.99,ENE,67,5.0,7.0,80,0.00,,---,0.00,VWS V14.01,2013-08-14 14:25:00,
2013-08-14 10:26:00,74.4,67.8,29.99,ENE,63,5.0,8.0,80,0.00,,---,0.00,VWS V14.01,2013-08-14 14:26:00,
2013-08-14 10:27:00,74.4,67.8,29.99,NE,52,4.0,5.0,80,0.00,,---,0.00,VWS V14.01,2013-08-14 14:27:00,
2013-08-14 10:28:00,74.4,67.8,29.99,ENE,61,4.0,5.0,80,0.00,,---,0.00,VWS V14.01,2013-08-14 14:28:00,
2013-08-14 10:29:00,74.5,67.9,29.99,NE,53,3.0,3.0,80,0.00,,---,0.00,VWS V14.01,2013-08-14 14:29:00,
2013-08-14 10:30:00,74.5,67.9,29.99,ENE,66,4.0,4.0,80,0.00,,---,0.00,VWS V14.01,2013-08-14 14:30:00,
2013-08-14 10:31:00,74.6,68.0,29.99,ENE,67,4.0,5.0,80,0.00,,---,0.00,VWS V14.01,2013-08-14 14:31:00,
2013-08-14 10:32:00,74.6,68.0,29.99,ENE,57,3.0,4.0,80,0.00,,---,0.00,VWS V14.01,2013-08-14 14:32:00,
2013-08-14 10:33:00,74.6,68.0,29.99,ENE,60,2.0,5.0,80,0.00,,---,0.00,VWS V14.01,2013-08-14 14:33:00,
2013-08-14 10:34:00,74.6,68.0,30.00,ENE,76,4.0,4.0,80,0.00,,---,0.00,VWS V14.01,2013-08-14 14:34:00,
2013-08-14 10:35:00,74.6,68.0,29.99,ENE,57,3.0,4.0,80,0.00,,---,0.00,VWS V14.01,2013-08-14 14:35:00,
2013-08-14 10:36:00,74.6,68.0,30.00,ENE,66,7.0,7.0,80,0.00,,---,0.00,VWS V14.01,2013-08-14 14:36:00,
2013-08-14 10:37:00,74.5,67.6,29.99,ENE,71,7.0,8.0,79,0.00,,---,0.00,VWS V14.01,2013-08-14 14:37:00,
2013-08-14 10:38:00,74.4,67.5,30.00,ENE,74,9.0,9.0,79,0.00,,---,0.00,VWS V14.01,2013-08-14 14:38:00,
2013-08-14 10:39:00,74.3,67.7,29.99,NE,53,5.0,5.0,80,0.00,,---,0.00,VWS V14.01,2013-08-14 14:39:00,
2013-08-14 10:40:00,74.3,67.7,29.99,ENE,57,4.0,5.0,80,0.00,,---,0.00,VWS V14.01,2013-08-14 14:40:00,
2013-08-14 10:41:00,74.2,67.6,30.00,ENE,68,5.0,5.0,80,0.00,,---,0.00,VWS V14.01,2013-08-14 14:41:00,
2013-08-14 10:42:00,74.2,67.6,30.00,ENE,61,5.0,7.0,80,0.00,,---,0.00,VWS V14.01,2013-08-14 14:42:00,
2013-08-14 10:43:00,74.1,67.5,30.00,ENE,58,7.0,7.0,80,0.00,,---,0.00,VWS V14.01,2013-08-14 14:43:00,
2013-08-14 10:44:00,74.1,67.5,29.99,East,94,5.0,7.0,80,0.00,,---,0.00,VWS V14.01,2013-08-14 14:44:00,
2013-08-14 10:45:00,74.0,67.8,29.99,NE,53,6.0,6.0,81,0.00,,---,0.00,VWS V14.01,2013-08-14 14:45:00,
2013-08-14 10:46:00,74.0,67.8,29.99,ENE,71,4.0,6.0,81,0.00,,---,0.00,VWS V14.01,2013-08-14 14:46:00,
2013-08-14 10:47:00,73.9,67.7,29.99,ENE,69,4.0,8.0,81,0.00,,---,0.00,VWS V14.01,2013-08-14 14:47:00,
2013-08-14 10:48:00,73.9,67.7,30.00,ENE,66,3.0,5.0,81,0.00,,---,0.00,VWS V14.01,2013-08-14 14:48:00,
2013-08-14 10:49:00,73.8,67.6,30.00,ENE,76,2.0,3.0,81,0.00,,---,0.00,VWS V14.01,2013-08-14 14:49:00,
2013-08-14 10:50:00,73.8,68.0,30.00,ENE,63,4.0,4.0,82,0.00,,---,0.00,VWS V14.01,2013-08-14 14:50:00,
2013-08-14 10:51:00,73.8,68.0,30.00,ENE,64,2.0,4.0,82,0.00,,---,0.00,VWS V14.01,2013-08-14 14:51:00,
2013-08-14 10:52:00,73.8,68.0,30.00,ENE,70,2.0,3.0,82,0.00,,---,0.00,VWS V14.01,2013-08-14 14:52:00,
2013-08-14 10:53:00,73.8,68.0,30.00,ENE,72,4.0,4.0,82,0.00,,---,0.00,VWS V14.01,2013-08-14 14:53:00,
2013-08-14 10:54:00,73.8,68.0,30.00,East,84,5.0,5.0,82,0.00,,---,0.00,VWS V14.01,2013-08-14 14:54:00,
2013-08-14 10:55:00,73.8,68.0,30.00,ENE,78,4.0,5.0,82,0.00,,---,0.00,VWS V14.01,2013-08-14 14:55:00,
2013-08-14 10:56:00,73.8,68.0,30.00,NE,50,4.0,4.0,82,0.00,,---,0.00,VWS V14.01,2013-08-14 14:56:00,
2013-08-14 10:57:00,73.8,67.6,30.00,ENE,70,9.0,9.0,81,0.00,,---,0.00,VWS V14.01,2013-08-14 14:57:00,
2013-08-14 10:58:00,73.8,67.6,30.00,East,80,5.0,9.0,81,0.00,,---,0.00,VWS V14.01,2013-08-14 14:58:00,
2013-08-14 10:59:00,73.8,68.0,30.00,ENE,70,5.0,5.0,82,0.00,,---,0.00,VWS V14.01,2013-08-14 14:59:00,
2013-08-14 11:00:00,73.8,68.0,30.00,ENE,58,3.0,5.0,82,0.00,,---,0.00,VWS V14.01,2013-08-14 15:00:00,
2013-08-14 11:01:00,73.8,67.6,30.00,NE,52,4.0,4.0,81,0.00,,---,0.00,VWS V14.01,2013-08-14 15:01:00,
2013-08-14 11:02:00,73.8,67.6,30.00,ENE,58,3.0,4.0,81,0.00,,---,0.00,VWS V14.01,2013-08-14 15:02:00,
2013-08-14 11:03:00,73.8,67.6,30.00,ENE,74,5.0,6.0,81,0.00,,---,0.00,VWS V14.01,2013-08-14 15:03:00,
2013-08-14 11:04:00,73.8,67.6,30.00,ENE,67,4.0,5.0,81,0.00,,---,0.00,VWS V14.01,2013-08-14 15:04:00,
2013-08-14 11:05:00,73.8,67.6,30.00,ENE,67,4.0,5.0,81,0.00,,---,0.00,VWS V14.01,2013-08-14 15:05:00,
2013-08-14 11:06:00,73.8,67.6,30.00,ENE,57,3.0,4.0,81,0.00,,---,0.00,VWS V14.01,2013-08-14 15:06:00,
2013-08-14 11:07:00,73.9,68.1,30.00,ENE,63,3.0,5.0,82,0.00,,---,0.00,VWS V14.01,2013-08-14 15:07:00,
2013-08-14 11:08:00,73.9,68.1,30.00,ENE,63,3.0,3.0,82,0.00,,---,0.00,VWS V14.01,2013-08-14 15:08:00,
2013-08-14 11:09:00,73.9,68.1,30.00,ENE,76,5.0,6.0,82,0.00,,---,0.00,VWS V14.01,2013-08-14 15:09:00,
2013-08-14 11:10:00,73.9,68.1,30.00,ENE,76,5.0,6.0,82,0.00,,---,0.00,VWS V14.01,2013-08-14 15:10:00,
2013-08-14 11:11:00,73.9,68.1,30.00,ENE,70,4.0,4.0,82,0.00,,---,0.00,VWS V14.01,2013-08-14 15:11:00,
2013-08-14 11:12:00,73.9,68.4,30.00,East,80,7.0,8.0,83,0.00,,---,0.00,VWS V14.01,2013-08-14 15:12:00,
2013-08-14 11:13:00,73.8,68.0,30.00,ENE,64,5.0,9.0,82,0.00,,---,0.00,VWS V14.01,2013-08-14 15:13:00,
2013-08-14 11:14:00,73.8,68.0,30.00,East,79,5.0,5.0,82,0.00,,---,0.00,VWS V14.01,2013-08-14 15:14:00,
2013-08-14 11:15:00,73.8,68.0,30.00,ENE,70,2.0,3.0,82,0.00,,---,0.00,VWS V14.01,2013-08-14 15:15:00,
2013-08-14 11:16:00,73.7,67.9,30.00,ENE,72,4.0,4.0,82,0.00,,---,0.00,VWS V14.01,2013-08-14 15:16:00,
2013-08-14 11:17:00,73.7,68.2,30.00,East,83,6.0,8.0,83,0.00,,---,0.00,VWS V14.01,2013-08-14 15:17:00,
2013-08-14 11:18:00,73.7,68.2,30.00,NE,48,7.0,7.0,83,0.00,,---,0.00,VWS V14.01,2013-08-14 15:18:00,
2013-08-14 11:19:00,73.7,68.2,30.00,ENE,69,5.0,7.0,83,0.00,,---,0.00,VWS V14.01,2013-08-14 15:19:00,
2013-08-14 11:20:00,73.7,68.2,30.00,ENE,61,3.0,3.0,83,0.00,,---,0.00,VWS V14.01,2013-08-14 15:20:00,
2013-08-14 11:21:00,73.7,68.2,30.00,ENE,62,2.0,3.0,83,0.00,,---,0.00,VWS V14.01,2013-08-14 15:21:00,
2013-08-14 11:22:00,73.7,68.2,30.00,ENE,66,2.0,3.0,83,0.00,,---,0.00,VWS V14.01,2013-08-14 15:22:00,
2013-08-14 11:23:00,73.7,68.2,30.01,ENE,66,2.0,4.0,83,0.00,,---,0.00,VWS V14.01,2013-08-14 15:23:00,
2013-08-14 11:24:00,73.7,68.2,30.01,ENE,71,4.0,5.0,83,0.00,,---,0.00,VWS V14.01,2013-08-14 15:24:00,
2013-08-14 11:25:00,73.7,68.2,30.01,East,81,5.0,5.0,83,0.00,,---,0.00,VWS V14.01,2013-08-14 15:25:00,
2013-08-14 11:26:00,73.7,68.2,30.01,East,88,6.0,6.0,83,0.00,,---,0.00,VWS V14.01,2013-08-14 15:26:00,
2013-08-14 11:27:00,73.7,67.9,30.01,ENE,68,5.0,6.0,82,0.00,,---,0.00,VWS V14.01,2013-08-14 15:27:00,
2013-08-14 11:28:00,73.7,67.9,30.01,ENE,57,7.0,7.0,82,0.00,,---,0.00,VWS V14.01,2013-08-14 15:28:00,
2013-08-14 11:29:00,73.6,67.8,30.01,ENE,72,3.0,7.0,82,0.00,,---,0.00,VWS V14.01,2013-08-14 15:29:00,
2013-08-14 11:30:00,73.6,67.8,30.01,ENE,60,4.0,5.0,82,0.00,,---,0.00,VWS V14.01,2013-08-14 15:30:00,
2013-08-14 11:31:00,73.6,68.1,30.01,ENE,76,3.0,4.0,83,0.00,,---,0.00,VWS V14.01,2013-08-14 15:31:00,
2013-08-14 11:32:00,73.7,68.2,30.01,ENE,63,5.0,5.0,83,0.00,,---,0.00,VWS V14.01,2013-08-14 15:32:00,
2013-08-14 11:33:00,73.7,67.9,30.01,NE,52,4.0,7.0,82,0.00,,---,0.00,VWS V14.01,2013-08-14 15:33:00,
2013-08-14 11:34:00,73.7,67.9,30.01,East,89,6.0,6.0,82,0.00,,---,0.00,VWS V14.01,2013-08-14 15:34:00,
2013-08-14 11:35:00,73.8,68.3,30.01,ENE,74,5.0,7.0,83,0.00,,---,0.00,VWS V14.01,2013-08-14 15:35:00,
2013-08-14 11:36:00,73.8,68.0,30.01,ENE,72,3.0,7.0,82,0.00,,---,0.00,VWS V14.01,2013-08-14 15:36:00,
2013-08-14 11:37:00,73.9,68.1,30.01,ENE,74,2.0,6.0,82,0.00,,---,0.00,VWS V14.01,2013-08-14 15:37:00,
2013-08-14 11:38:00,74.0,68.2,30.01,ENE,63,7.0,7.0,82,0.00,,---,0.00,VWS V14.01,2013-08-14 15:38:00,
2013-08-14 11:39:00,74.0,68.2,30.01,NE,53,3.0,7.0,82,0.00,,---,0.00,VWS V14.01,2013-08-14 15:39:00,
2013-08-14 11:40:00,74.0,68.2,30.01,NE,53,3.0,7.0,82,0.00,,---,0.00,VWS V14.01,2013-08-14 15:40:00,
2013-08-14 11:41:00,74.1,67.9,30.01,ENE,72,5.0,5.0,81,0.00,,---,0.00,VWS V14.01,2013-08-14 15:41:00,
2013-08-14 11:42:00,74.1,67.9,30.01,ENE,61,2.0,8.0,81,0.00,,---,0.00,VWS V14.01,2013-08-14 15:42:00,
2013-08-14 11:43:00,74.1,68.3,30.01,ENE,69,3.0,3.0,82,0.00,,---,0.00,VWS V14.01,2013-08-14 15:43:00,
2013-08-14 11:44:00,74.1,68.3,30.01,ENE,66,4.0,4.0,82,0.00,,---,0.00,VWS V14.01,2013-08-14 15:44:00,
2013-08-14 11:45:00,74.1,67.9,30.01,East,81,7.0,7.0,81,0.00,,---,0.00,VWS V14.01,2013-08-14 15:45:00,
2013-08-14 11:46:00,74.0,67.8,30.01,East,80,7.0,8.0,81,0.00,,---,0.00,VWS V14.01,2013-08-14 15:46:00,
2013-08-14 11:47:00,74.0,67.8,30.01,ENE,69,7.0,7.0,81,0.00,,---,0.00,VWS V14.01,2013-08-14 15:47:00,
2013-08-14 11:48:00,74.0,67.8,30.01,ENE,74,7.0,7.0,81,0.00,,---,0.00,VWS V14.01,2013-08-14 15:48:00,
2013-08-14 11:49:00,74.0,67.8,30.01,ENE,59,3.0,7.0,81,0.00,,---,0.00,VWS V14.01,2013-08-14 15:49:00,
2013-08-14 11:50:00,74.0,68.2,30.01,NNE,28,4.0,4.0,82,0.00,,---,0.00,VWS V14.01,2013-08-14 15:50:00,
2013-08-14 11:51:00,74.0,68.2,30.01,NE,47,3.0,4.0,82,0.00,,---,0.00,VWS V14.01,2013-08-14 15:51:00,
2013-08-14 11:52:00,74.0,67.8,30.01,NE,44,3.0,5.0,81,0.00,,---,0.00,VWS V14.01,2013-08-14 15:52:00,
2013-08-14 11:53:00,73.9,67.7,30.01,East,82,2.0,3.0,81,0.00,,---,0.00,VWS V14.01,2013-08-14 15:53:00,
2013-08-14 11:54:00,73.9,67.7,30.01,NE,46,3.0,3.0,81,0.00,,---,0.00,VWS V14.01,2013-08-14 15:54:00,
2013-08-14 11:55:00,73.8,67.6,30.01,NE,44,3.0,3.0,81,0.00,,---,0.00,VWS V14.01,2013-08-14 15:55:00,
2013-08-14 11:56:00,73.8,67.6,30.01,NE,44,3.0,3.0,81,0.00,,---,0.00,VWS V14.01,2013-08-14 15:56:00,
2013-08-14 11:57:00,73.8,67.6,30.01,East,81,1.0,6.0,81,0.00,,---,0.00,VWS V14.01,2013-08-14 15:57:00,
2013-08-14 11:58:00,73.8,67.6,30.01,ENE,78,1.0,1.0,81,0.00,,---,0.00,VWS V14.01,2013-08-14 15:58:00,
2013-08-14 11:59:00,73.8,67.6,30.01,ENE,78,1.0,1.0,81,0.00,,---,0.00,VWS V14.01,2013-08-14 15:59:00,
2013-08-14 12:00:00,73.7,67.5,30.01,NE,44,4.0,4.0,81,0.00,,---,0.00,VWS V14.01,2013-08-14 16:00:00,
2013-08-14 12:01:00,73.7,67.9,30.01,NE,48,2.0,4.0,82,0.00,,---,0.00,VWS V14.01,2013-08-14 16:01:00,
2013-08-14 12:02:00,73.7,67.5,30.01,NE,50,5.0,5.0,81,0.00,,---,0.00,VWS V14.01,2013-08-14 16:02:00,
2013-08-14 12:03:00,73.6,67.4,30.01,ENE,57,5.0,6.0,81,0.00,,---,0.00,VWS V14.01,2013-08-14 16:03:00,
2013-08-14 12:04:00,73.6,67.4,30.01,NE,42,3.0,5.0,81,0.00,,---,0.00,VWS V14.01,2013-08-14 16:04:00,
2013-08-14 12:05:00,73.5,67.3,30.01,NE,54,3.0,3.0,81,0.00,,---,0.00,VWS V14.01,2013-08-14 16:05:00,
2013-08-14 12:06:00,73.5,67.3,30.01,NE,51,3.0,4.0,81,0.00,,---,0.00,VWS V14.01,2013-08-14 16:06:00,
2013-08-14 12:07:00,73.5,67.7,30.01,NE,54,4.0,5.0,82,0.00,,---,0.00,VWS V14.01,2013-08-14 16:07:00,
2013-08-14 12:08:00,73.4,67.2,30.01,NE,53,3.0,4.0,81,0.00,,---,0.00,VWS V14.01,2013-08-14 16:08:00,
2013-08-14 12:09:00,73.4,67.2,30.01,NE,55,2.0,4.0,81,0.00,,---,0.00,VWS V14.01,2013-08-14 16:09:00,
2013-08-14 12:10:00,73.4,67.2,30.01,ENE,62,2.0,2.0,81,0.00,,---,0.00,VWS V14.01,2013-08-14 16:10:00,
2013-08-14 12:11:00,73.4,67.2,30.01,NE,50,4.0,4.0,81,0.00,,---,0.00,VWS V14.01,2013-08-14 16:11:00,
2013-08-14 12:12:00,73.4,67.2,30.01,ENE,61,4.0,4.0,81,0.00,,---,0.00,VWS V14.01,2013-08-14 16:12:00,
2013-08-14 12:13:00,73.3,67.1,30.01,NE,47,2.0,4.0,81,0.00,,---,0.00,VWS V14.01,2013-08-14 16:13:00,
2013-08-14 12:14:00,73.3,67.5,30.01,NE,46,3.0,3.0,82,0.00,,---,0.00,VWS V14.01,2013-08-14 16:14:00,
2013-08-14 12:15:00,73.4,67.6,30.01,ENE,61,8.0,8.0,82,0.00,,---,0.00,VWS V14.01,2013-08-14 16:15:00,
2013-08-14 12:16:00,73.3,67.5,30.01,ENE,63,8.0,8.0,82,0.00,,---,0.00,VWS V14.01,2013-08-14 16:16:00,
2013-08-14 12:17:00,73.3,67.1,30.01,ENE,61,4.0,8.0,81,0.00,,---,0.00,VWS V14.01,2013-08-14 16:17:00,
2013-08-14 12:18:00,73.2,67.0,30.01,ENE,71,5.0,5.0,81,0.00,,---,0.00,VWS V14.01,2013-08-14 16:18:00,
2013-08-14 12:19:00,73.2,67.0,30.01,NE,55,4.0,8.0,81,0.00,,---,0.00,VWS V14.01,2013-08-14 16:19:00,
2013-08-14 12:20:00,73.2,67.0,30.01,ENE,59,7.0,7.0,81,0.00,,---,0.00,VWS V14.01,2013-08-14 16:20:00,
2013-08-14 12:21:00,73.1,66.9,30.01,NE,54,7.0,8.0,81,0.00,,---,0.00,VWS V14.01,2013-08-14 16:21:00,
2013-08-14 12:22:00,73.1,66.6,30.01,ENE,58,4.0,7.0,80,0.00,,---,0.00,VWS V14.01,2013-08-14 16:22:00,
2013-08-14 12:23:00,73.1,66.9,30.01,ENE,78,2.0,4.0,81,0.00,,---,0.00,VWS V14.01,2013-08-14 16:23:00,
2013-08-14 12:24:00,73.1,66.9,30.01,East,79,5.0,5.0,81,0.00,,---,0.00,VWS V14.01,2013-08-14 16:24:00,
2013-08-14 12:25:00,73.1,66.9,30.01,ENE,69,3.0,6.0,81,0.00,,---,0.00,VWS V14.01,2013-08-14 16:25:00,
2013-08-14 12:26:00,73.1,67.3,30.01,ENE,67,3.0,4.0,82,0.00,,---,0.00,VWS V14.01,2013-08-14 16:26:00,
2013-08-14 12:27:00,73.1,67.3,30.01,ENE,63,3.0,4.0,82,0.00,,---,0.00,VWS V14.01,2013-08-14 16:27:00,
2013-08-14 12:28:00,73.1,66.9,30.01,ENE,66,3.0,4.0,81,0.00,,---,0.00,VWS V14.01,2013-08-14 16:28:00,
2013-08-14 12:29:00,73.1,66.9,30.01,ENE,73,4.0,4.0,81,0.00,,---,0.00,VWS V14.01,2013-08-14 16:29:00,
2013-08-14 12:30:00,73.1,66.9,30.01,East,81,9.0,9.0,81,0.00,,---,0.00,VWS V14.01,2013-08-14 16:30:00,
2013-08-14 12:31:00,73.1,66.9,30.01,ENE,78,5.0,9.0,81,0.00,,---,0.00,VWS V14.01,2013-08-14 16:31:00,
2013-08-14 12:32:00,73.1,66.9,30.01,ESE,104,3.0,8.0,81,0.00,,---,0.00,VWS V14.01,2013-08-14 16:32:00,
2013-08-14 12:33:00,73.1,66.9,30.01,ENE,77,2.0,3.0,81,0.00,,---,0.00,VWS V14.01,2013-08-14 16:33:00,
2013-08-14 12:34:00,73.1,67.3,30.01,ENE,69,2.0,2.0,82,0.00,,---,0.00,VWS V14.01,2013-08-14 16:34:00,
2013-08-14 12:35:00,73.1,67.3,30.01,NE,49,2.0,2.0,82,0.00,,---,0.00,VWS V14.01,2013-08-14 16:35:00,
2013-08-14 12:36:00,73.2,67.4,30.01,NE,50,1.0,2.0,82,0.00,,---,0.00,VWS V14.01,2013-08-14 16:36:00,
2013-08-14 12:37:00,73.2,67.4,30.01,NE,45,3.0,3.0,82,0.00,,---,0.00,VWS V14.01,2013-08-14 16:37:00,
2013-08-14 12:38:00,73.3,67.5,30.01,ENE,70,7.0,7.0,82,0.00,,---,0.00,VWS V14.01,2013-08-14 16:38:00,
2013-08-14 12:39:00,73.3,67.1,30.01,ENE,69,4.0,7.0,81,0.00,,---,0.00,VWS V14.01,2013-08-14 16:39:00,
2013-08-14 12:40:00,73.2,67.0,30.01,ENE,66,4.0,4.0,81,0.00,,---,0.00,VWS V14.01,2013-08-14 16:40:00,
2013-08-14 12:41:00,73.3,67.1,30.01,ENE,70,4.0,5.0,81,0.00,,---,0.00,VWS V14.01,2013-08-14 16:41:00,
2013-08-14 12:42:00,73.2,67.0,30.01,ENE,62,4.0,4.0,81,0.00,,---,0.00,VWS V14.01,2013-08-14 16:42:00,
2013-08-14 12:43:00,73.3,67.1,30.01,ENE,61,3.0,7.0,81,0.00,,---,0.00,VWS V14.01,2013-08-14 16:43:00,
2013-08-14 12:44:00,73.3,67.1,30.01,NE,51,3.0,4.0,81,0.00,,---,0.00,VWS V14.01,2013-08-14 16:44:00,
2013-08-14 12:45:00,73.3,67.1,30.01,ENE,62,3.0,3.0,81,0.00,,---,0.00,VWS V14.01,2013-08-14 16:45:00,
2013-08-14 12:46:00,73.3,67.1,30.01,ENE,76,5.0,7.0,81,0.00,,---,0.00,VWS V14.01,2013-08-14 16:46:00,
2013-08-14 12:47:00,73.3,67.1,30.01,ENE,67,4.0,5.0,81,0.00,,---,0.00,VWS V14.01,2013-08-14 16:47:00,
2013-08-14 12:48:00,73.3,67.1,30.02,NE,55,4.0,4.0,81,0.00,,---,0.00,VWS V14.01,2013-08-14 16:48:00,
2013-08-14 12:49:00,73.3,67.1,30.02,East,94,6.0,6.0,81,0.00,,---,0.00,VWS V14.01,2013-08-14 16:49:00,
2013-08-14 12:50:00,73.3,66.8,30.02,ENE,78,8.0,8.0,80,0.00,,---,0.00,VWS V14.01,2013-08-14 16:50:00,
2013-08-14 12:51:00,73.3,66.8,30.02,ENE,66,5.0,9.0,80,0.00,,---,0.00,VWS V14.01,2013-08-14 16:51:00,
2013-08-14 12:52:00,73.3,66.8,30.01,ENE,67,5.0,8.0,80,0.00,,---,0.00,VWS V14.01,2013-08-14 16:52:00,
2013-08-14 12:53:00,73.3,66.8,30.01,ENE,76,7.0,11.0,80,0.00,,---,0.00,VWS V14.01,2013-08-14 16:53:00,
2013-08-14 12:54:00,73.3,66.8,30.01,ENE,68,8.0,9.0,80,0.00,,---,0.00,VWS V14.01,2013-08-14 16:54:00,
2013-08-14 12:55:00,73.3,66.8,30.02,East,81,6.0,8.0,80,0.00,,---,0.00,VWS V14.01,2013-08-14 16:55:00,
2013-08-14 12:56:00,73.3,66.8,30.02,East,79,6.0,8.0,80,0.00,,---,0.00,VWS V14.01,2013-08-14 16:56:00,
2013-08-14 12:57:00,73.3,66.8,30.02,East,81,7.0,11.0,80,0.00,,---,0.00,VWS V14.01,2013-08-14 16:57:00,
2013-08-14 12:58:00,73.3,66.8,30.02,ENE,74,4.0,7.0,80,0.00,,---,0.00,VWS V14.01,2013-08-14 16:58:00,
2013-08-14 12:59:00,73.3,66.8,30.02,East,80,5.0,5.0,80,0.00,,---,0.00,VWS V14.01,2013-08-14 16:59:00,
2013-08-14 13:00:00,73.3,66.8,30.01,East,91,11.0,11.0,80,0.00,,---,0.00,VWS V14.01,2013-08-14 17:00:00,
2013-08-14 13:01:00,73.3,66.4,30.01,East,98,9.0,11.0,79,0.00,,---,0.00,VWS V14.01,2013-08-14 17:01:00,
2013-08-14 13:02:00,73.3,66.4,30.01,ENE,77,7.0,9.0,79,0.00,,---,0.00,VWS V14.01,2013-08-14 17:02:00,
2013-08-14 13:03:00,73.2,66.3,30.01,ESE,106,7.0,10.0,79,0.00,,---,0.00,VWS V14.01,2013-08-14 17:03:00,
2013-08-14 13:04:00,73.2,66.3,30.01,East,97,6.0,9.0,79,0.00,,---,0.00,VWS V14.01,2013-08-14 17:04:00,
2013-08-14 13:05:00,73.2,66.3,30.01,ENE,74,4.0,7.0,79,0.00,,---,0.00,VWS V14.01,2013-08-14 17:05:00,
2013-08-14 13:06:00,73.1,66.2,30.01,East,85,6.0,7.0,79,0.00,,---,0.00,VWS V14.01,2013-08-14 17:06:00,
2013-08-14 13:07:00,73.1,66.2,30.01,ENE,60,4.0,7.0,79,0.00,,---,0.00,VWS V14.01,2013-08-14 17:07:00,
2013-08-14 13:08:00,73.1,66.6,30.01,East,81,7.0,7.0,80,0.00,,---,0.00,VWS V14.01,2013-08-14 17:08:00,
2013-08-14 13:09:00,73.0,66.5,30.02,ESE,106,4.0,7.0,80,0.00,,---,0.00,VWS V14.01,2013-08-14 17:09:00,
2013-08-14 13:10:00,73.0,66.5,30.01,ENE,67,2.0,4.0,80,0.00,,---,0.00,VWS V14.01,2013-08-14 17:10:00,
2013-08-14 13:11:00,73.0,66.5,30.01,ENE,67,3.0,4.0,80,0.00,,---,0.00,VWS V14.01,2013-08-14 17:11:00,
2013-08-14 13:12:00,73.0,66.5,30.01,ENE,70,5.0,5.0,80,0.00,,---,0.00,VWS V14.01,2013-08-14 17:12:00,
2013-08-14 13:13:00,73.1,66.6,30.01,ENE,57,4.0,8.0,80,0.00,,---,0.00,VWS V14.01,2013-08-14 17:13:00,
2013-08-14 13:14:00,73.0,66.5,30.01,ENE,66,4.0,7.0,80,0.00,,---,0.00,VWS V14.01,2013-08-14 17:14:00,
2013-08-14 13:15:00,73.0,66.5,30.01,ENE,71,5.0,7.0,80,0.00,,---,0.00,VWS V14.01,2013-08-14 17:15:00,
2013-08-14 13:16:00,72.9,66.4,30.01,ENE,76,4.0,7.0,80,0.00,,---,0.00,VWS V14.01,2013-08-14 17:16:00,
2013-08-14 13:17:00,72.9,66.4,30.01,ENE,62,4.0,5.0,80,0.00,,---,0.00,VWS V14.01,2013-08-14 17:17:00,
2013-08-14 13:18:00,72.9,66.4,30.01,ENE,73,3.0,5.0,80,0.00,,---,0.00,VWS V14.01,2013-08-14 17:18:00,
2013-08-14 13:19:00,72.9,66.4,30.01,ENE,67,3.0,4.0,80,0.00,,---,0.00,VWS V14.01,2013-08-14 17:19:00,
2013-08-14 13:20:00,72.8,66.3,30.01,East,90,7.0,9.0,80,0.00,,---,0.00,VWS V14.01,2013-08-14 17:20:00,
2013-08-14 13:21:00,72.9,66.0,30.01,ENE,67,4.0,9.0,79,0.00,,---,0.00,VWS V14.01,2013-08-14 17:21:00,
2013-08-14 13:22:00,72.9,66.4,30.01,ENE,76,5.0,6.0,80,0.00,,---,0.00,VWS V14.01,2013-08-14 17:22:00,
2013-08-14 13:23:00,72.9,66.4,30.01,ENE,64,5.0,7.0,80,0.00,,---,0.00,VWS V14.01,2013-08-14 17:23:00,
2013-08-14 13:24:00,72.9,66.0,30.01,ENE,71,7.0,7.0,79,0.00,,---,0.00,VWS V14.01,2013-08-14 17:24:00,
2013-08-14 13:25:00,72.9,66.0,30.01,East,80,6.0,6.0,79,0.00,,---,0.00,VWS V14.01,2013-08-14 17:25:00,
2013-08-14 13:26:00,72.8,65.9,30.01,ENE,62,3.0,6.0,79,0.00,,---,0.00,VWS V14.01,2013-08-14 17:26:00,
2013-08-14 13:27:00,72.8,65.9,30.01,NE,48,3.0,4.0,79,0.00,,---,0.00,VWS V14.01,2013-08-14 17:27:00,
2013-08-14 13:28:00,72.8,65.6,30.01,NE,50,3.0,7.0,78,0.00,,---,0.00,VWS V14.01,2013-08-14 17:28:00,
2013-08-14 13:29:00,72.8,65.9,30.02,ENE,72,5.0,5.0,79,0.00,,---,0.00,VWS V14.01,2013-08-14 17:29:00,
2013-08-14 13:30:00,72.7,65.4,30.01,ENE,60,5.0,8.0,78,0.00,,---,0.00,VWS V14.01,2013-08-14 17:30:00,
2013-08-14 13:31:00,72.7,65.4,30.01,ENE,77,2.0,8.0,78,0.00,,---,0.00,VWS V14.01,2013-08-14 17:31:00,
2013-08-14 13:32:00,72.7,65.8,30.01,ENE,76,5.0,5.0,79,0.00,,---,0.00,VWS V14.01,2013-08-14 17:32:00,
2013-08-14 13:33:00,72.6,65.3,30.01,ENE,67,7.0,7.0,78,0.00,,---,0.00,VWS V14.01,2013-08-14 17:33:00,
2013-08-14 13:34:00,72.6,65.3,30.01,ENE,76,7.0,7.0,78,0.00,,---,0.00,VWS V14.01,2013-08-14 17:34:00,
2013-08-14 13:35:00,72.6,65.3,30.01,East,84,6.0,6.0,78,0.00,,---,0.00,VWS V14.01,2013-08-14 17:35:00,
2013-08-14 13:36:00,72.6,65.3,30.01,ENE,68,7.0,7.0,78,0.00,,---,0.00,VWS V14.01,2013-08-14 17:36:00,
2013-08-14 13:37:00,72.5,65.6,30.01,ENE,61,5.0,7.0,79,0.00,,---,0.00,VWS V14.01,2013-08-14 17:37:00,
2013-08-14 13:38:00,72.5,65.6,30.01,ENE,69,7.0,7.0,79,0.00,,---,0.00,VWS V14.01,2013-08-14 17:38:00,
2013-08-14 13:39:00,72.5,65.6,30.01,East,90,6.0,7.0,79,0.00,,---,0.00,VWS V14.01,2013-08-14 17:39:00,
2013-08-14 13:40:00,72.4,65.5,30.01,ENE,73,1.0,3.0,79,0.00,,---,0.00,VWS V14.01,2013-08-14 17:40:00,
2013-08-14 13:41:00,72.4,65.5,30.01,ENE,71,2.0,3.0,79,0.00,,---,0.00,VWS V14.01,2013-08-14 17:41:00,
2013-08-14 13:42:00,72.4,65.5,30.01,ENE,77,2.0,2.0,79,0.00,,---,0.00,VWS V14.01,2013-08-14 17:42:00,
2013-08-14 13:43:00,72.4,65.9,30.01,ENE,76,4.0,4.0,80,0.00,,---,0.00,VWS V14.01,2013-08-14 17:43:00,
2013-08-14 13:44:00,72.4,65.9,30.01,ENE,69,4.0,4.0,80,0.00,,---,0.00,VWS V14.01,2013-08-14 17:44:00,
2013-08-14 13:45:00,72.4,65.5,30.01,NE,48,4.0,4.0,79,0.00,,---,0.00,VWS V14.01,2013-08-14 17:45:00,
2013-08-14 13:46:00,72.4,65.5,30.01,ENE,66,3.0,4.0,79,0.00,,---,0.00,VWS V14.01,2013-08-14 17:46:00,
2013-08-14 13:47:00,72.4,65.5,30.01,ENE,72,4.0,5.0,79,0.00,,---,0.00,VWS V14.01,2013-08-14 17:47:00,
2013-08-14 13:48:00,72.4,65.5,30.01,ENE,76,3.0,4.0,79,0.00,,---,0.00,VWS V14.01,2013-08-14 17:48:00,
2013-08-14 13:49:00,72.3,65.8,30.01,ENE,76,2.0,3.0,80,0.00,,---,0.00,VWS V14.01,2013-08-14 17:49:00,
2013-08-14 13:50:00,72.3,65.8,30.01,ENE,57,2.0,2.0,80,0.00,,---,0.00,VWS V14.01,2013-08-14 17:50:00,
2013-08-14 13:51:00,72.4,65.9,30.01,ENE,77,3.0,3.0,80,0.00,,---,0.00,VWS V14.01,2013-08-14 17:51:00,
2013-08-14 13:52:00,72.3,65.8,30.01,ENE,57,2.0,4.0,80,0.00,,---,0.00,VWS V14.01,2013-08-14 17:52:00,
2013-08-14 13:53:00,72.3,65.8,30.01,NE,53,2.0,5.0,80,0.00,,---,0.00,VWS V14.01,2013-08-14 17:53:00,
2013-08-14 13:54:00,72.3,65.4,30.01,ENE,60,5.0,5.0,79,0.00,,---,0.00,VWS V14.01,2013-08-14 17:54:00,
2013-08-14 13:55:00,72.3,65.8,30.01,ENE,70,2.0,4.0,80,0.00,,---,0.00,VWS V14.01,2013-08-14 17:55:00,
2013-08-14 13:56:00,72.3,65.8,30.01,ENE,75,3.0,4.0,80,0.00,,---,0.00,VWS V14.01,2013-08-14 17:56:00,
2013-08-14 13:57:00,72.4,65.9,30.01,ENE,63,3.0,3.0,80,0.00,,---,0.00,VWS V14.01,2013-08-14 17:57:00,
2013-08-14 13:58:00,72.4,65.9,30.01,ENE,70,2.0,4.0,80,0.00,,---,0.00,VWS V14.01,2013-08-14 17:58:00,
2013-08-14 13:59:00,72.4,65.9,30.01,ENE,66,9.0,11.0,80,0.00,,---,0.00,VWS V14.01,2013-08-14 17:59:00,
2013-08-14 14:00:00,72.4,65.5,30.01,ENE,63,7.0,9.0,79,0.00,,---,0.00,VWS V14.01,2013-08-14 18:00:00,
2013-08-14 14:02:00,72.4,65.5,30.01,ENE,63,7.0,9.0,79,0.00,,---,0.00,VWS V14.01,2013-08-14 18:02:00,
2013-08-14 14:03:00,72.4,65.5,30.01,ENE,67,8.0,8.0,79,0.00,,---,0.00,VWS V14.01,2013-08-14 18:03:00,
2013-08-14 14:04:00,72.4,65.5,30.01,ENE,58,4.0,8.0,79,0.00,,---,0.00,VWS V14.01,2013-08-14 18:04:00,
2013-08-14 14:05:00,72.5,65.6,30.01,ENE,69,4.0,7.0,79,0.00,,---,0.00,VWS V14.01,2013-08-14 18:05:00,
2013-08-14 14:06:00,72.5,65.6,30.01,ENE,69,3.0,7.0,79,0.00,,---,0.00,VWS V14.01,2013-08-14 18:06:00,
2013-08-14 14:07:00,72.5,66.0,30.01,ENE,72,3.0,3.0,80,0.00,,---,0.00,VWS V14.01,2013-08-14 18:07:00,
2013-08-14 14:08:00,72.6,66.1,30.01,ENE,67,8.0,8.0,80,0.00,,---,0.00,VWS V14.01,2013-08-14 18:08:00,
2013-08-14 14:09:00,72.6,66.1,30.01,NE,47,5.0,8.0,80,0.00,,---,0.00,VWS V14.01,2013-08-14 18:09:00,
2013-08-14 14:10:00,72.6,66.1,30.01,ENE,64,4.0,7.0,80,0.00,,---,0.00,VWS V14.01,2013-08-14 18:10:00,
2013-08-14 14:11:00,72.6,66.1,30.01,ENE,63,4.0,7.0,80,0.00,,---,0.00,VWS V14.01,2013-08-14 18:11:00,
2013-08-14 14:12:00,72.6,66.1,30.01,ENE,67,5.0,7.0,80,0.00,,---,0.00,VWS V14.01,2013-08-14 18:12:00,
2013-08-14 14:13:00,72.6,66.1,30.01,ENE,59,4.0,5.0,80,0.00,,---,0.00,VWS V14.01,2013-08-14 18:13:00,
2013-08-14 14:14:00,72.6,66.1,30.01,ENE,71,4.0,5.0,80,0.00,,---,0.00,VWS V14.01,2013-08-14 18:14:00,
2013-08-14 14:15:00,72.5,66.0,30.01,ENE,76,3.0,4.0,80,0.00,,---,0.00,VWS V14.01,2013-08-14 18:15:00,
2013-08-14 14:16:00,72.5,66.0,30.01,ENE,74,5.0,5.0,80,0.00,,---,0.00,VWS V14.01,2013-08-14 18:16:00,
2013-08-14 14:17:00,72.5,66.0,30.01,ENE,71,3.0,5.0,80,0.00,,---,0.00,VWS V14.01,2013-08-14 18:17:00,
2013-08-14 14:18:00,72.5,66.0,30.01,ENE,62,3.0,4.0,80,0.00,,---,0.00,VWS V14.01,2013-08-14 18:18:00,
2013-08-14 14:19:00,72.5,66.3,30.01,NE,54,3.0,3.0,81,0.00,,---,0.00,VWS V14.01,2013-08-14 18:19:00,
2013-08-14 14:20:00,72.5,66.3,30.01,NE,54,3.0,3.0,81,0.00,,---,0.00,VWS V14.01,2013-08-14 18:20:00,
2013-08-14 14:21:00,72.6,66.4,30.01,ENE,59,3.0,3.0,81,0.00,,---,0.00,VWS V14.01,2013-08-14 18:21:00,
2013-08-14 14:22:00,72.6,66.4,30.01,ENE,66,3.0,6.0,81,0.00,,---,0.00,VWS V14.01,2013-08-14 18:22:00,
2013-08-14 14:23:00,72.6,66.1,30.01,NE,55,3.0,4.0,80,0.00,,---,0.00,VWS V14.01,2013-08-14 18:23:00,
2013-08-14 14:24:00,72.6,66.1,30.01,ENE,66,5.0,5.0,80,0.00,,---,0.00,VWS V14.01,2013-08-14 18:24:00,
2013-08-14 14:25:00,72.6,65.7,30.01,ENE,70,4.0,4.0,79,0.00,,---,0.00,VWS V14.01,2013-08-14 18:25:00,
2013-08-14 14:26:00,72.6,66.1,30.01,NE,53,3.0,4.0,80,0.00,,---,0.00,VWS V14.01,2013-08-14 18:26:00,
2013-08-14 14:27:00,72.5,65.6,30.01,ENE,57,5.0,5.0,79,0.00,,---,0.00,VWS V14.01,2013-08-14 18:27:00,
2013-08-14 14:28:00,72.5,65.6,30.01,ENE,70,3.0,5.0,79,0.00,,---,0.00,VWS V14.01,2013-08-14 18:28:00,
2013-08-14 14:29:00,72.5,65.6,30.01,ENE,63,5.0,5.0,79,0.00,,---,0.00,VWS V14.01,2013-08-14 18:29:00,
2013-08-14 14:30:00,72.4,65.5,30.01,ENE,65,7.0,7.0,79,0.00,,---,0.00,VWS V14.01,2013-08-14 18:30:00,
2013-08-14 14:31:00,72.3,65.4,30.01,ENE,74,7.0,9.0,79,0.00,,---,0.00,VWS V14.01,2013-08-14 18:31:00,
2013-08-14 14:32:00,72.3,65.1,30.01,ENE,66,8.0,10.0,78,0.00,,---,0.00,VWS V14.01,2013-08-14 18:32:00,
2013-08-14 14:33:00,72.2,65.0,30.01,ENE,57,4.0,10.0,78,0.00,,---,0.00,VWS V14.01,2013-08-14 18:33:00,
2013-08-14 14:34:00,72.1,64.9,30.01,ENE,58,4.0,5.0,78,0.00,,---,0.00,VWS V14.01,2013-08-14 18:34:00,
2013-08-14 14:35:00,72.1,65.2,30.01,ENE,66,5.0,5.0,79,0.00,,---,0.00,VWS V14.01,2013-08-14 18:35:00,
2013-08-14 14:36:00,72.1,64.9,30.01,NE,52,6.0,6.0,78,0.00,,---,0.00,VWS V14.01,2013-08-14 18:36:00,
2013-08-14 14:37:00,72.0,64.8,30.01,NE,42,4.0,9.0,78,0.00,,---,0.00,VWS V14.01,2013-08-14 18:37:00,
2013-08-14 14:38:00,72.0,64.8,30.01,ENE,68,5.0,8.0,78,0.00,,---,0.00,VWS V14.01,2013-08-14 18:38:00,
2013-08-14 14:39:00,72.0,65.1,30.01,ENE,69,3.0,7.0,79,0.00,,---,0.00,VWS V14.01,2013-08-14 18:39:00,
2013-08-14 14:40:00,72.0,65.1,30.01,ENE,67,4.0,6.0,79,0.00,,---,0.00,VWS V14.01,2013-08-14 18:40:00,
2013-08-14 14:41:00,72.0,65.1,30.01,ENE,70,7.0,7.0,79,0.00,,---,0.00,VWS V14.01,2013-08-14 18:41:00,
2013-08-14 14:42:00,72.0,65.1,30.01,East,83,5.0,7.0,79,0.00,,---,0.00,VWS V14.01,2013-08-14 18:42:00,
2013-08-14 14:43:00,72.0,65.1,30.02,ENE,72,5.0,10.0,79,0.00,,---,0.00,VWS V14.01,2013-08-14 18:43:00,
2013-08-14 14:44:00,72.0,65.1,30.01,ENE,68,3.0,5.0,79,0.00,,---,0.00,VWS V14.01,2013-08-14 18:44:00,
2013-08-14 14:45:00,72.0,65.1,30.01,ENE,59,7.0,9.0,79,0.00,,---,0.00,VWS V14.01,2013-08-14 18:45:00,
2013-08-14 14:46:00,72.0,64.8,30.01,East,98,10.0,10.0,78,0.00,,---,0.00,VWS V14.01,2013-08-14 18:46:00,
2013-08-14 14:47:00,72.0,64.8,30.01,East,82,5.0,13.0,78,0.00,,---,0.00,VWS V14.01,2013-08-14 18:47:00,
2013-08-14 14:48:00,72.0,64.8,30.01,ENE,76,8.0,8.0,78,0.00,,---,0.00,VWS V14.01,2013-08-14 18:48:00,
2013-08-14 14:49:00,72.0,64.8,30.01,ENE,66,5.0,10.0,78,0.00,,---,0.00,VWS V14.01,2013-08-14 18:49:00,
2013-08-14 14:50:00,72.0,65.1,30.01,ENE,73,3.0,5.0,79,0.00,,---,0.00,VWS V14.01,2013-08-14 18:50:00,
2013-08-14 14:51:00,72.1,65.2,30.01,ENE,57,2.0,4.0,79,0.00,,---,0.00,VWS V14.01,2013-08-14 18:51:00,
2013-08-14 14:52:00,72.1,65.2,30.01,ENE,63,3.0,4.0,79,0.00,,---,0.00,VWS V14.01,2013-08-14 18:52:00,
2013-08-14 14:53:00,72.2,65.3,30.01,ENE,57,4.0,4.0,79,0.00,,---,0.00,VWS V14.01,2013-08-14 18:53:00,
2013-08-14 14:54:00,72.2,65.3,30.01,ENE,66,4.0,5.0,79,0.00,,---,0.00,VWS V14.01,2013-08-14 18:54:00,
2013-08-14 14:55:00,72.2,65.0,30.01,ENE,67,4.0,4.0,78,0.00,,---,0.00,VWS V14.01,2013-08-14 18:55:00,
2013-08-14 14:56:00,72.3,65.1,30.01,ENE,68,4.0,7.0,78,0.00,,---,0.00,VWS V14.01,2013-08-14 18:56:00,
2013-08-14 14:57:00,72.3,65.1,30.01,ENE,59,3.0,4.0,78,0.00,,---,0.00,VWS V14.01,2013-08-14 18:57:00,
2013-08-14 14:58:00,72.3,65.1,30.01,ENE,76,7.0,7.0,78,0.00,,---,0.00,VWS V14.01,2013-08-14 18:58:00,
2013-08-14 14:59:00,72.3,65.1,30.01,East,80,2.0,7.0,78,0.00,,---,0.00,VWS V14.01,2013-08-14 18:59:00,
2013-08-14 15:00:00,72.3,65.1,30.01,ENE,66,4.0,5.0,78,0.00,,---,0.00,VWS V14.01,2013-08-14 19:00:00,
2013-08-14 15:01:00,72.3,65.1,30.01,NE,53,4.0,5.0,78,0.00,,---,0.00,VWS V14.01,2013-08-14 19:01:00,
2013-08-14 15:02:00,72.3,65.1,30.01,NE,50,5.0,6.0,78,0.00,,---,0.00,VWS V14.01,2013-08-14 19:02:00,
2013-08-14 15:03:00,72.3,65.1,30.01,NE,52,3.0,5.0,78,0.00,,---,0.00,VWS V14.01,2013-08-14 19:03:00,
2013-08-14 15:04:00,72.3,65.1,30.01,NE,52,2.0,3.0,78,0.00,,---,0.00,VWS V14.01,2013-08-14 19:04:00,
2013-08-14 15:05:00,72.3,65.1,30.01,ENE,58,3.0,3.0,78,0.00,,---,0.00,VWS V14.01,2013-08-14 19:05:00,
2013-08-14 15:06:00,72.3,65.1,30.01,ENE,65,2.0,3.0,78,0.00,,---,0.00,VWS V14.01,2013-08-14 19:06:00,
2013-08-14 15:07:00,72.4,65.2,30.01,ENE,65,2.0,2.0,78,0.00,,---,0.00,VWS V14.01,2013-08-14 19:07:00,
2013-08-14 15:08:00,72.4,65.5,30.01,ENE,65,2.0,3.0,79,0.00,,---,0.00,VWS V14.01,2013-08-14 19:08:00,
2013-08-14 15:09:00,72.5,65.6,30.01,NE,40,4.0,4.0,79,0.00,,---,0.00,VWS V14.01,2013-08-14 19:09:00,
2013-08-14 15:10:00,72.5,65.3,30.01,NE,49,3.0,4.0,78,0.00,,---,0.00,VWS V14.01,2013-08-14 19:10:00,
2013-08-14 15:11:00,72.5,65.3,30.01,ENE,59,1.0,3.0,78,0.00,,---,0.00,VWS V14.01,2013-08-14 19:11:00,
2013-08-14 15:12:00,72.6,65.3,30.01,ENE,72,2.0,2.0,78,0.00,,---,0.00,VWS V14.01,2013-08-14 19:12:00,
2013-08-14 15:13:00,72.6,65.3,30.01,NE,52,2.0,3.0,78,0.00,,---,0.00,VWS V14.01,2013-08-14 19:13:00,
2013-08-14 15:14:00,72.6,65.3,30.01,ENE,67,4.0,5.0,78,0.00,,---,0.00,VWS V14.01,2013-08-14 19:14:00,
2013-08-14 15:15:00,72.6,65.3,30.01,NE,54,3.0,5.0,78,0.00,,---,0.00,VWS V14.01,2013-08-14 19:15:00,
2013-08-14 15:16:00,72.6,65.3,30.01,ENE,58,1.0,3.0,78,0.00,,---,0.00,VWS V14.01,2013-08-14 19:16:00,
2013-08-14 15:17:00,72.6,65.3,30.01,NE,53,3.0,3.0,78,0.00,,---,0.00,VWS V14.01,2013-08-14 19:17:00,
2013-08-14 15:18:00,72.6,65.3,30.01,ENE,63,2.0,3.0,78,0.00,,---,0.00,VWS V14.01,2013-08-14 19:18:00,
2013-08-14 15:19:00,72.6,65.3,30.01,ENE,57,4.0,4.0,78,0.00,,---,0.00,VWS V14.01,2013-08-14 19:19:00,
2013-08-14 15:20:00,72.6,65.3,30.01,ENE,68,3.0,5.0,78,0.00,,---,0.00,VWS V14.01,2013-08-14 19:20:00,
2013-08-14 15:21:00,72.7,65.4,30.01,ENE,69,3.0,3.0,78,0.00,,---,0.00,VWS V14.01,2013-08-14 19:21:00,
2013-08-14 15:22:00,72.7,65.4,30.01,ENE,64,3.0,3.0,78,0.00,,---,0.00,VWS V14.01,2013-08-14 19:22:00,
2013-08-14 15:23:00,72.7,65.4,30.01,ENE,67,4.0,4.0,78,0.00,,---,0.00,VWS V14.01,2013-08-14 19:23:00,
2013-08-14 15:24:00,72.7,65.4,30.01,ENE,64,4.0,7.0,78,0.00,,---,0.00,VWS V14.01,2013-08-14 19:24:00,
2013-08-14 15:25:00,72.7,65.4,30.01,ENE,62,5.0,6.0,78,0.00,,---,0.00,VWS V14.01,2013-08-14 19:25:00,
2013-08-14 15:26:00,72.6,65.3,30.01,ENE,63,4.0,5.0,78,0.00,,---,0.00,VWS V14.01,2013-08-14 19:26:00,
2013-08-14 15:27:00,72.7,65.4,30.01,ENE,57,3.0,3.0,78,0.00,,---,0.00,VWS V14.01,2013-08-14 19:27:00,
2013-08-14 15:28:00,72.7,65.4,30.01,NE,47,3.0,3.0,78,0.00,,---,0.00,VWS V14.01,2013-08-14 19:28:00,
2013-08-14 15:29:00,72.7,65.4,30.01,NE,52,5.0,5.0,78,0.00,,---,0.00,VWS V14.01,2013-08-14 19:29:00,
2013-08-14 15:30:00,72.7,65.4,30.01,ENE,57,3.0,5.0,78,0.00,,---,0.00,VWS V14.01,2013-08-14 19:30:00,
2013-08-14 15:31:00,72.7,65.4,30.01,ENE,63,3.0,4.0,78,0.00,,---,0.00,VWS V14.01,2013-08-14 19:31:00,
2013-08-14 15:32:00,72.7,65.4,30.01,NE,54,3.0,5.0,78,0.00,,---,0.00,VWS V14.01,2013-08-14 19:32:00,
2013-08-14 15:33:00,72.7,65.4,30.01,NE,53,3.0,5.0,78,0.00,,---,0.00,VWS V14.01,2013-08-14 19:33:00,
2013-08-14 15:34:00,72.8,65.9,30.01,ENE,61,3.0,4.0,79,0.00,,---,0.00,VWS V14.01,2013-08-14 19:34:00,
2013-08-14 15:35:00,72.8,65.6,30.01,ENE,57,4.0,4.0,78,0.00,,---,0.00,VWS V14.01,2013-08-14 19:35:00,
2013-08-14 15:36:00,72.8,65.6,30.01,ENE,61,5.0,7.0,78,0.00,,---,0.00,VWS V14.01,2013-08-14 19:36:00,
2013-08-14 15:37:00,72.7,65.4,30.01,ENE,66,4.0,5.0,78,0.00,,---,0.00,VWS V14.01,2013-08-14 19:37:00,
2013-08-14 15:38:00,72.7,65.4,30.01,ENE,69,4.0,5.0,78,0.00,,---,0.00,VWS V14.01,2013-08-14 19:38:00,
2013-08-14 15:39:00,72.7,65.4,30.01,East,88,6.0,6.0,78,0.00,,---,0.00,VWS V14.01,2013-08-14 19:39:00,
2013-08-14 15:40:00,72.7,65.4,30.01,East,80,3.0,6.0,78,0.00,,---,0.00,VWS V14.01,2013-08-14 19:40:00,
2013-08-14 15:41:00,72.7,65.4,30.01,NE,52,4.0,4.0,78,0.00,,---,0.00,VWS V14.01,2013-08-14 19:41:00,
2013-08-14 15:42:00,72.7,65.4,30.01,ENE,66,3.0,5.0,78,0.00,,---,0.00,VWS V14.01,2013-08-14 19:42:00,
2013-08-14 15:43:00,72.7,65.4,30.01,ENE,68,5.0,5.0,78,0.00,,---,0.00,VWS V14.01,2013-08-14 19:43:00,
2013-08-14 15:44:00,72.6,65.3,30.01,NE,49,3.0,5.0,78,0.00,,---,0.00,VWS V14.01,2013-08-14 19:44:00,
2013-08-14 15:45:00,72.7,65.4,30.01,ENE,66,3.0,3.0,78,0.00,,---,0.00,VWS V14.01,2013-08-14 19:45:00,
2013-08-14 15:46:00,72.7,65.4,30.01,ENE,62,2.0,5.0,78,0.00,,---,0.00,VWS V14.01,2013-08-14 19:46:00,
2013-08-14 15:47:00,72.7,65.8,30.01,ENE,67,2.0,2.0,79,0.00,,---,0.00,VWS V14.01,2013-08-14 19:47:00,
2013-08-14 15:48:00,72.7,65.8,30.01,ENE,67,1.0,2.0,79,0.00,,---,0.00,VWS V14.01,2013-08-14 19:48:00,
2013-08-14 15:49:00,72.7,65.8,30.01,ENE,68,4.0,5.0,79,0.00,,---,0.00,VWS V14.01,2013-08-14 19:49:00,
2013-08-14 15:50:00,72.7,65.4,30.01,ENE,67,5.0,5.0,78,0.00,,---,0.00,VWS V14.01,2013-08-14 19:50:00,
2013-08-14 15:51:00,72.7,65.4,30.01,ENE,76,3.0,5.0,78,0.00,,---,0.00,VWS V14.01,2013-08-14 19:51:00,
2013-08-14 15:52:00,72.7,65.4,30.01,ENE,63,3.0,4.0,78,0.00,,---,0.00,VWS V14.01,2013-08-14 19:52:00,
2013-08-14 15:53:00,72.7,65.4,30.01,ENE,70,3.0,5.0,78,0.00,,---,0.00,VWS V14.01,2013-08-14 19:53:00,
2013-08-14 15:54:00,72.7,65.4,30.02,ENE,61,5.0,5.0,78,0.00,,---,0.00,VWS V14.01,2013-08-14 19:54:00,
2013-08-14 15:55:00,72.7,65.1,30.02,ENE,67,4.0,7.0,77,0.00,,---,0.00,VWS V14.01,2013-08-14 19:55:00,
2013-08-14 15:56:00,72.7,65.4,30.02,ENE,58,2.0,4.0,78,0.00,,---,0.00,VWS V14.01,2013-08-14 19:56:00,
2013-08-14 15:57:00,72.6,65.3,30.02,NE,55,5.0,7.0,78,0.00,,---,0.00,VWS V14.01,2013-08-14 19:57:00,
2013-08-14 15:58:00,72.7,65.4,30.02,ENE,61,3.0,7.0,78,0.00,,---,0.00,VWS V14.01,2013-08-14 19:58:00,
2013-08-14 15:59:00,72.6,65.3,30.02,ENE,59,1.0,3.0,78,0.00,,---,0.00,VWS V14.01,2013-08-14 19:59:00,
2013-08-14 16:00:00,72.6,65.3,30.02,ENE,70,3.0,5.0,78,0.00,,---,0.00,VWS V14.01,2013-08-14 20:00:00,
2013-08-14 16:01:00,72.6,65.3,30.02,ENE,59,2.0,4.0,78,0.00,,---,0.00,VWS V14.01,2013-08-14 20:01:00,
2013-08-14 16:02:00,72.6,65.3,30.02,ENE,65,3.0,3.0,78,0.00,,---,0.00,VWS V14.01,2013-08-14 20:02:00,
2013-08-14 16:03:00,72.6,65.3,30.02,ENE,74,3.0,6.0,78,0.00,,---,0.00,VWS V14.01,2013-08-14 20:03:00,
2013-08-14 16:04:00,72.7,65.4,30.02,ENE,72,3.0,4.0,78,0.00,,---,0.00,VWS V14.01,2013-08-14 20:04:00,
2013-08-14 16:05:00,72.7,65.4,30.02,ENE,65,3.0,4.0,78,0.00,,---,0.00,VWS V14.01,2013-08-14 20:05:00,
2013-08-14 16:06:00,72.7,65.4,30.02,ENE,72,3.0,4.0,78,0.00,,---,0.00,VWS V14.01,2013-08-14 20:06:00,
2013-08-14 16:07:00,72.7,65.4,30.02,ENE,63,7.0,7.0,78,0.00,,---,0.00,VWS V14.01,2013-08-14 20:07:00,
2013-08-14 16:08:00,72.7,65.4,30.02,East,80,7.0,7.0,78,0.00,,---,0.00,VWS V14.01,2013-08-14 20:08:00,
2013-08-14 16:09:00,72.6,65.0,30.02,ENE,69,5.0,7.0,77,0.00,,---,0.00,VWS V14.01,2013-08-14 20:09:00,
2013-08-14 16:10:00,72.6,65.3,30.02,ENE,59,2.0,5.0,78,0.00,,---,0.00,VWS V14.01,2013-08-14 20:10:00,
2013-08-14 16:11:00,72.6,65.3,30.02,East,81,1.0,2.0,78,0.00,,---,0.00,VWS V14.01,2013-08-14 20:11:00,
2013-08-14 16:12:00,72.7,65.4,30.02,East,82,2.0,2.0,78,0.00,,---,0.00,VWS V14.01,2013-08-14 20:12:00,
2013-08-14 16:13:00,72.7,65.8,30.02,East,82,1.0,2.0,79,0.00,,---,0.00,VWS V14.01,2013-08-14 20:13:00,
2013-08-14 16:14:00,72.7,65.4,30.02,ENE,67,3.0,4.0,78,0.00,,---,0.00,VWS V14.01,2013-08-14 20:14:00,
2013-08-14 16:15:00,72.7,65.4,30.02,ENE,65,3.0,5.0,78,0.00,,---,0.00,VWS V14.01,2013-08-14 20:15:00,
2013-08-14 16:16:00,72.7,65.4,30.02,ENE,62,3.0,4.0,78,0.00,,---,0.00,VWS V14.01,2013-08-14 20:16:00,
2013-08-14 16:17:00,72.8,65.6,30.02,ENE,74,3.0,3.0,78,0.00,,---,0.00,VWS V14.01,2013-08-14 20:17:00,
2013-08-14 16:18:00,72.8,65.6,30.02,ENE,67,2.0,3.0,78,0.00,,---,0.00,VWS V14.01,2013-08-14 20:18:00,
2013-08-14 16:19:00,72.8,65.6,30.02,ENE,63,2.0,3.0,78,0.00,,---,0.00,VWS V14.01,2013-08-14 20:19:00,
2013-08-14 16:20:00,72.8,65.6,30.02,ENE,65,2.0,3.0,78,0.00,,---,0.00,VWS V14.01,2013-08-14 20:20:00,
2013-08-14 16:21:00,72.8,65.9,30.02,NE,52,3.0,3.0,79,0.00,,---,0.00,VWS V14.01,2013-08-14 20:21:00,
2013-08-14 16:22:00,72.8,65.6,30.02,ENE,71,5.0,5.0,78,0.00,,---,0.00,VWS V14.01,2013-08-14 20:22:00,
2013-08-14 16:23:00,72.8,65.6,30.02,ENE,62,4.0,5.0,78,0.00,,---,0.00,VWS V14.01,2013-08-14 20:23:00,
2013-08-14 16:24:00,72.8,65.6,30.02,East,80,3.0,6.0,78,0.00,,---,0.00,VWS V14.01,2013-08-14 20:24:00,
2013-08-14 16:25:00,72.8,65.6,30.02,East,81,3.0,4.0,78,0.00,,---,0.00,VWS V14.01,2013-08-14 20:25:00,
2013-08-14 16:26:00,72.8,65.6,30.02,East,80,5.0,7.0,78,0.00,,---,0.00,VWS V14.01,2013-08-14 20:26:00,
2013-08-14 16:27:00,72.8,65.6,30.02,ENE,76,4.0,5.0,78,0.00,,---,0.00,VWS V14.01,2013-08-14 20:27:00,
2013-08-14 16:28:00,72.8,65.6,30.02,ENE,73,3.0,5.0,78,0.00,,---,0.00,VWS V14.01,2013-08-14 20:28:00,
2013-08-14 16:29:00,72.8,65.6,30.02,East,86,7.0,7.0,78,0.00,,---,0.00,VWS V14.01,2013-08-14 20:29:00,
2013-08-14 16:30:00,72.8,65.6,30.02,ENE,70,3.0,7.0,78,0.00,,---,0.00,VWS V14.01,2013-08-14 20:30:00,
2013-08-14 16:31:00,72.8,65.6,30.02,ENE,63,3.0,4.0,78,0.00,,---,0.00,VWS V14.01,2013-08-14 20:31:00,
2013-08-14 16:32:00,72.8,65.6,30.02,ENE,66,4.0,4.0,78,0.00,,---,0.00,VWS V14.01,2013-08-14 20:32:00,
2013-08-14 16:33:00,72.8,65.6,30.02,ENE,65,2.0,4.0,78,0.00,,---,0.00,VWS V14.01,2013-08-14 20:33:00,
2013-08-14 16:34:00,72.8,65.9,30.02,ENE,68,5.0,5.0,79,0.00,,---,0.00,VWS V14.01,2013-08-14 20:34:00,
2013-08-14 16:35:00,72.9,65.6,30.02,ENE,63,2.0,5.0,78,0.00,,---,0.00,VWS V14.01,2013-08-14 20:35:00,
2013-08-14 16:36:00,72.9,65.6,30.02,ENE,63,3.0,3.0,78,0.00,,---,0.00,VWS V14.01,2013-08-14 20:36:00,
2013-08-14 16:37:00,72.9,65.7,30.02,ENE,61,3.0,3.0,78,0.00,,---,0.00,VWS V14.01,2013-08-14 20:37:00,
2013-08-14 16:38:00,72.9,65.6,30.02,NE,55,3.0,4.0,78,0.00,,---,0.00,VWS V14.01,2013-08-14 20:38:00,
2013-08-14 16:39:00,72.9,65.6,30.02,NE,55,2.0,5.0,78,0.00,,---,0.00,VWS V14.01,2013-08-14 20:39:00,
2013-08-14 16:40:00,72.9,65.6,30.02,NE,55,3.0,4.0,78,0.00,,---,0.00,VWS V14.01,2013-08-14 20:40:00,
2013-08-14 16:41:00,72.9,65.3,30.02,ENE,65,3.0,4.0,77,0.00,,---,0.00,VWS V14.01,2013-08-14 20:41:00,
2013-08-14 16:42:00,72.9,65.3,30.02,ENE,74,3.0,3.0,77,0.00,,---,0.00,VWS V14.01,2013-08-14 20:42:00,
2013-08-14 16:43:00,72.9,65.6,30.02,ENE,71,3.0,3.0,78,0.00,,---,0.00,VWS V14.01,2013-08-14 20:43:00,
2013-08-14 16:44:00,72.9,65.6,30.02,ENE,57,3.0,4.0,78,0.00,,---,0.00,VWS V14.01,2013-08-14 20:44:00,
2013-08-14 16:45:00,73.0,65.7,30.02,ENE,74,4.0,4.0,78,0.00,,---,0.00,VWS V14.01,2013-08-14 20:45:00,
2013-08-14 16:46:00,73.0,65.4,30.02,ENE,65,4.0,6.0,77,0.00,,---,0.00,VWS V14.01,2013-08-14 20:46:00,
2013-08-14 16:47:00,72.9,65.3,30.02,ENE,64,5.0,7.0,77,0.00,,---,0.00,VWS V14.01,2013-08-14 20:47:00,
2013-08-14 16:48:00,72.9,65.3,30.02,ENE,67,4.0,7.0,77,0.00,,---,0.00,VWS V14.01,2013-08-14 20:48:00,
2013-08-14 16:49:00,72.9,65.3,30.02,ENE,74,3.0,5.0,77,0.00,,---,0.00,VWS V14.01,2013-08-14 20:49:00,
2013-08-14 16:50:00,72.9,65.3,30.02,ENE,67,7.0,7.0,77,0.00,,---,0.00,VWS V14.01,2013-08-14 20:50:00,
2013-08-14 16:51:00,72.8,65.2,30.02,ENE,62,5.0,7.0,77,0.00,,---,0.00,VWS V14.01,2013-08-14 20:51:00,
2013-08-14 16:52:00,72.8,65.2,30.02,ENE,74,4.0,6.0,77,0.00,,---,0.00,VWS V14.01,2013-08-14 20:52:00,
2013-08-14 16:53:00,72.8,65.6,30.02,East,83,5.0,6.0,78,0.00,,---,0.00,VWS V14.01,2013-08-14 20:53:00,
2013-08-14 16:54:00,72.8,65.2,30.02,ENE,68,7.0,7.0,77,0.00,,---,0.00,VWS V14.01,2013-08-14 20:54:00,
2013-08-14 16:55:00,72.8,65.2,30.02,ENE,63,4.0,7.0,77,0.00,,---,0.00,VWS V14.01,2013-08-14 20:55:00,
2013-08-14 16:56:00,72.8,65.2,30.02,ENE,58,5.0,5.0,77,0.00,,---,0.00,VWS V14.01,2013-08-14 20:56:00,
2013-08-14 16:57:00,72.8,65.2,30.02,ENE,65,2.0,3.0,77,0.00,,---,0.00,VWS V14.01,2013-08-14 20:57:00,
2013-08-14 16:58:00,72.8,65.2,30.02,ENE,65,2.0,3.0,77,0.00,,---,0.00,VWS V14.01,2013-08-14 20:58:00,
2013-08-14 16:59:00,72.8,65.6,30.02,ENE,63,3.0,3.0,78,0.00,,---,0.00,VWS V14.01,2013-08-14 20:59:00,
2013-08-14 17:00:00,72.8,65.2,30.02,ENE,78,4.0,4.0,77,0.00,,---,0.00,VWS V14.01,2013-08-14 21:00:00,
2013-08-14 17:01:00,72.8,64.8,30.02,ENE,63,4.0,7.0,76,0.00,,---,0.00,VWS V14.01,2013-08-14 21:01:00,
2013-08-14 17:02:00,72.8,64.8,30.02,ENE,57,3.0,5.0,76,0.00,,---,0.00,VWS V14.01,2013-08-14 21:02:00,
2013-08-14 17:03:00,72.8,64.8,30.02,ENE,66,3.0,4.0,76,0.00,,---,0.00,VWS V14.01,2013-08-14 21:03:00,
2013-08-14 17:04:00,72.8,65.2,30.02,ENE,76,4.0,7.0,77,0.00,,---,0.00,VWS V14.01,2013-08-14 21:04:00,
2013-08-14 17:05:00,72.8,65.2,30.01,ENE,67,2.0,4.0,77,0.00,,---,0.00,VWS V14.01,2013-08-14 21:05:00,
2013-08-14 17:06:00,72.8,65.2,30.01,NE,46,4.0,5.0,77,0.00,,---,0.00,VWS V14.01,2013-08-14 21:06:00,
2013-08-14 17:07:00,72.8,64.8,30.01,ENE,63,3.0,5.0,76,0.00,,---,0.00,VWS V14.01,2013-08-14 21:07:00,
2013-08-14 17:08:00,72.8,64.8,30.01,NNE,31,3.0,4.0,76,0.00,,---,0.00,VWS V14.01,2013-08-14 21:08:00,
2013-08-14 17:09:00,72.8,64.8,30.01,NE,53,4.0,4.0,76,0.00,,---,0.00,VWS V14.01,2013-08-14 21:09:00,
2013-08-14 17:10:00,72.8,64.8,30.02,ENE,67,2.0,4.0,76,0.00,,---,0.00,VWS V14.01,2013-08-14 21:10:00,
2013-08-14 17:11:00,72.8,64.4,30.01,NE,47,4.0,6.0,75,0.00,,---,0.00,VWS V14.01,2013-08-14 21:11:00,
2013-08-14 17:12:00,72.8,64.4,30.02,NE,51,4.0,4.0,75,0.00,,---,0.00,VWS V14.01,2013-08-14 21:12:00,
2013-08-14 17:13:00,72.8,64.4,30.02,ENE,57,3.0,6.0,75,0.00,,---,0.00,VWS V14.01,2013-08-14 21:13:00,
2013-08-14 17:14:00,72.8,64.8,30.02,ENE,59,4.0,7.0,76,0.00,,---,0.00,VWS V14.01,2013-08-14 21:14:00,
2013-08-14 17:15:00,72.8,64.4,30.02,NE,47,6.0,6.0,75,0.00,,---,0.00,VWS V14.01,2013-08-14 21:15:00,
2013-08-14 17:16:00,72.8,64.4,30.02,NE,46,4.0,6.0,75,0.00,,---,0.00,VWS V14.01,2013-08-14 21:16:00,
2013-08-14 17:17:00,72.8,64.4,30.02,NE,54,4.0,5.0,75,0.00,,---,0.00,VWS V14.01,2013-08-14 21:17:00,
2013-08-14 17:18:00,72.8,64.4,30.02,ENE,70,4.0,5.0,75,0.00,,---,0.00,VWS V14.01,2013-08-14 21:18:00,
2013-08-14 17:19:00,72.8,64.4,30.02,ENE,65,5.0,5.0,75,0.00,,---,0.00,VWS V14.01,2013-08-14 21:19:00,
2013-08-14 17:20:00,72.8,64.4,30.01,NE,49,3.0,5.0,75,0.00,,---,0.00,VWS V14.01,2013-08-14 21:20:00,
2013-08-14 17:21:00,72.8,64.4,30.01,NE,48,3.0,4.0,75,0.00,,---,0.00,VWS V14.01,2013-08-14 21:21:00,
2013-08-14 17:22:00,72.9,64.9,30.01,ENE,68,3.0,4.0,76,0.00,,---,0.00,VWS V14.01,2013-08-14 21:22:00,
2013-08-14 17:23:00,72.9,64.9,30.01,ENE,65,3.0,4.0,76,0.00,,---,0.00,VWS V14.01,2013-08-14 21:23:00,
2013-08-14 17:24:00,72.9,64.9,30.01,NE,51,3.0,5.0,76,0.00,,---,0.00,VWS V14.01,2013-08-14 21:24:00,
2013-08-14 17:25:00,72.9,64.5,30.01,NE,49,4.0,5.0,75,0.00,,---,0.00,VWS V14.01,2013-08-14 21:25:00,
2013-08-14 17:26:00,72.9,64.5,30.01,NE,55,4.0,5.0,75,0.00,,---,0.00,VWS V14.01,2013-08-14 21:26:00,
2013-08-14 17:27:00,72.9,64.5,30.01,NE,50,3.0,4.0,75,0.00,,---,0.00,VWS V14.01,2013-08-14 21:27:00,
2013-08-14 17:28:00,72.9,64.5,30.01,NE,42,4.0,4.0,75,0.00,,---,0.00,VWS V14.01,2013-08-14 21:28:00,
2013-08-14 17:29:00,72.9,64.5,30.01,ENE,58,4.0,4.0,75,0.00,,---,0.00,VWS V14.01,2013-08-14 21:29:00,
2013-08-14 17:30:00,72.9,64.5,30.01,NE,52,4.0,4.0,75,0.00,,---,0.00,VWS V14.01,2013-08-14 21:30:00,
2013-08-14 17:31:00,72.9,64.1,30.01,ENE,65,3.0,4.0,74,0.00,,---,0.00,VWS V14.01,2013-08-14 21:31:00,
2013-08-14 17:32:00,72.9,64.5,30.01,ENE,63,2.0,3.0,75,0.00,,---,0.00,VWS V14.01,2013-08-14 21:32:00,
2013-08-14 17:33:00,72.9,64.5,30.02,ENE,63,1.0,2.0,75,0.00,,---,0.00,VWS V14.01,2013-08-14 21:33:00,
2013-08-14 17:34:00,73.0,64.6,30.02,NE,47,2.0,3.0,75,0.00,,---,0.00,VWS V14.01,2013-08-14 21:34:00,
2013-08-14 17:35:00,73.0,64.6,30.01,NE,47,1.0,2.0,75,0.00,,---,0.00,VWS V14.01,2013-08-14 21:35:00,
2013-08-14 17:36:00,73.0,65.0,30.01,ENE,69,3.0,3.0,76,0.00,,---,0.00,VWS V14.01,2013-08-14 21:36:00,
2013-08-14 17:37:00,73.1,65.1,30.01,ENE,61,2.0,3.0,76,0.00,,---,0.00,VWS V14.01,2013-08-14 21:37:00,
2013-08-14 17:38:00,73.1,65.1,30.01,ENE,61,1.0,2.0,76,0.00,,---,0.00,VWS V14.01,2013-08-14 21:38:00,
2013-08-14 17:39:00,73.1,65.1,30.01,ENE,68,2.0,3.0,76,0.00,,---,0.00,VWS V14.01,2013-08-14 21:39:00,
2013-08-14 17:40:00,73.1,64.7,30.01,NE,45,3.0,3.0,75,0.00,,---,0.00,VWS V14.01,2013-08-14 21:40:00,
2013-08-14 17:41:00,73.1,64.7,30.01,ENE,68,2.0,3.0,75,0.00,,---,0.00,VWS V14.01,2013-08-14 21:41:00,
2013-08-14 17:42:00,73.1,65.1,30.02,ENE,68,1.0,2.0,76,0.00,,---,0.00,VWS V14.01,2013-08-14 21:42:00,
2013-08-14 17:43:00,73.1,65.1,30.01,ENE,68,2.0,3.0,76,0.00,,---,0.00,VWS V14.01,2013-08-14 21:43:00,
2013-08-14 17:44:00,73.1,64.7,30.02,NE,45,3.0,4.0,75,0.00,,---,0.00,VWS V14.01,2013-08-14 21:44:00,
2013-08-14 17:45:00,73.0,64.6,30.02,ENE,68,2.0,3.0,75,0.00,,---,0.00,VWS V14.01,2013-08-14 21:45:00,
2013-08-14 17:46:00,73.0,64.6,30.01,ENE,68,3.0,4.0,75,0.00,,---,0.00,VWS V14.01,2013-08-14 21:46:00,
2013-08-14 17:47:00,73.0,65.0,30.01,ENE,68,4.0,5.0,76,0.00,,---,0.00,VWS V14.01,2013-08-14 21:47:00,
2013-08-14 17:48:00,72.9,64.5,30.01,ENE,68,4.0,4.0,75,0.00,,---,0.00,VWS V14.01,2013-08-14 21:48:00,
2013-08-14 17:49:00,72.9,64.5,30.01,ENE,68,2.0,3.0,75,0.00,,---,0.00,VWS V14.01,2013-08-14 21:49:00,
2013-08-14 17:50:00,72.9,64.9,30.01,ENE,68,2.0,3.0,76,0.00,,---,0.00,VWS V14.01,2013-08-14 21:50:00,
2013-08-14 17:51:00,72.9,64.9,30.01,ENE,68,2.0,2.0,76,0.00,,---,0.00,VWS V14.01,2013-08-14 21:51:00,
2013-08-14 17:52:00,72.9,64.9,30.01,ENE,68,2.0,2.0,76,0.00,,---,0.00,VWS V14.01,2013-08-14 21:52:00,
2013-08-14 17:53:00,72.9,64.9,30.02,ENE,68,1.0,2.0,76,0.00,,---,0.00,VWS V14.01,2013-08-14 21:53:00,
2013-08-14 17:54:00,72.9,64.9,30.02,ENE,68,2.0,4.0,76,0.00,,---,0.00,VWS V14.01,2013-08-14 21:54:00,
2013-08-14 17:55:00,72.9,64.9,30.02,ENE,68,3.0,5.0,76,0.00,,---,0.00,VWS V14.01,2013-08-14 21:55:00,
2013-08-14 17:56:00,72.9,64.9,30.02,ENE,68,3.0,5.0,76,0.00,,---,0.00,VWS V14.01,2013-08-14 21:56:00,
2013-08-14 17:57:00,72.8,64.8,30.02,ENE,68,4.0,4.0,76,0.00,,---,0.00,VWS V14.01,2013-08-14 21:57:00,
2013-08-14 17:58:00,72.7,64.7,30.02,ENE,68,4.0,5.0,76,0.00,,---,0.00,VWS V14.01,2013-08-14 21:58:00,
2013-08-14 17:59:00,72.7,64.7,30.02,ENE,68,4.0,7.0,76,0.00,,---,0.00,VWS V14.01,2013-08-14 21:59:00,
2013-08-14 18:00:00,72.6,64.6,30.02,ENE,68,3.0,5.0,76,0.00,,---,0.00,VWS V14.01,2013-08-14 22:00:00,
2013-08-14 18:01:00,72.6,65.0,30.02,ENE,68,3.0,4.0,77,0.00,,---,0.00,VWS V14.01,2013-08-14 22:01:00,
2013-08-14 18:02:00,72.6,64.6,30.02,ENE,68,2.0,3.0,76,0.00,,---,0.00,VWS V14.01,2013-08-14 22:02:00,
2013-08-14 18:03:00,72.5,64.9,30.02,ENE,68,2.0,3.0,77,0.00,,---,0.00,VWS V14.01,2013-08-14 22:03:00,
2013-08-14 18:04:00,72.5,64.9,30.02,ENE,68,1.0,2.0,77,0.00,,---,0.00,VWS V14.01,2013-08-14 22:04:00,
2013-08-14 18:05:00,72.5,64.9,30.02,ENE,68,2.0,2.0,77,0.00,,---,0.00,VWS V14.01,2013-08-14 22:05:00,
2013-08-14 18:06:00,72.5,64.9,30.02,ENE,68,3.0,4.0,77,0.00,,---,0.00,VWS V14.01,2013-08-14 22:06:00,
2013-08-14 18:07:00,72.4,64.8,30.02,ENE,68,4.0,6.0,77,0.00,,---,0.00,VWS V14.01,2013-08-14 22:07:00,
2013-08-14 18:08:00,72.3,64.7,30.02,East,90,3.0,3.0,77,0.00,,---,0.00,VWS V14.01,2013-08-14 22:08:00,
2013-08-14 18:09:00,72.3,64.7,30.02,ENE,68,2.0,3.0,77,0.00,,---,0.00,VWS V14.01,2013-08-14 22:09:00,
2013-08-14 18:10:00,72.3,65.1,30.02,ENE,68,2.0,3.0,78,0.00,,---,0.00,VWS V14.01,2013-08-14 22:10:00,
2013-08-14 18:11:00,72.3,65.1,30.02,ENE,68,2.0,3.0,78,0.00,,---,0.00,VWS V14.01,2013-08-14 22:11:00,
2013-08-14 18:12:00,72.3,65.1,30.02,ENE,68,3.0,4.0,78,0.00,,---,0.00,VWS V14.01,2013-08-14 22:12:00,
2013-08-14 18:13:00,72.3,64.7,30.03,ENE,68,3.0,4.0,77,0.00,,---,0.00,VWS V14.01,2013-08-14 22:13:00,
2013-08-14 18:14:00,72.2,64.6,30.03,ENE,68,2.0,4.0,77,0.00,,---,0.00,VWS V14.01,2013-08-14 22:14:00,
2013-08-14 18:15:00,72.2,65.0,30.03,ENE,68,1.0,4.0,78,0.00,,---,0.00,VWS V14.01,2013-08-14 22:15:00,
2013-08-14 18:16:00,72.2,65.0,30.03,ENE,68,2.0,3.0,78,0.00,,---,0.00,VWS V14.01,2013-08-14 22:16:00,
2013-08-14 18:17:00,72.2,64.6,30.03,ENE,68,2.0,3.0,77,0.00,,---,0.00,VWS V14.01,2013-08-14 22:17:00,
2013-08-14 18:18:00,72.2,65.0,30.03,ENE,68,2.0,2.0,78,0.00,,---,0.00,VWS V14.01,2013-08-14 22:18:00,
2013-08-14 18:19:00,72.2,64.6,30.03,East,90,3.0,5.0,77,0.00,,---,0.00,VWS V14.01,2013-08-14 22:19:00,
2013-08-14 18:20:00,72.2,64.6,30.03,ENE,68,2.0,2.0,77,0.00,,---,0.00,VWS V14.01,2013-08-14 22:20:00,
2013-08-14 18:21:00,72.2,64.6,30.03,ENE,68,2.0,2.0,77,0.00,,---,0.00,VWS V14.01,2013-08-14 22:21:00,
2013-08-14 18:22:00,72.2,64.6,30.03,ENE,68,1.0,2.0,77,0.00,,---,0.00,VWS V14.01,2013-08-14 22:22:00,
2013-08-14 18:23:00,72.2,64.6,30.03,ENE,68,3.0,4.0,77,0.00,,---,0.00,VWS V14.01,2013-08-14 22:23:00,
2013-08-14 18:24:00,72.2,64.6,30.03,ENE,68,3.0,4.0,77,0.00,,---,0.00,VWS V14.01,2013-08-14 22:24:00,
2013-08-14 18:25:00,72.2,64.2,30.03,ENE,68,3.0,4.0,76,0.00,,---,0.00,VWS V14.01,2013-08-14 22:25:00,
2013-08-14 18:26:00,72.2,64.6,30.03,ENE,68,4.0,5.0,77,0.00,,---,0.00,VWS V14.01,2013-08-14 22:26:00,
2013-08-14 18:27:00,72.2,64.2,30.03,ENE,68,4.0,4.0,76,0.00,,---,0.00,VWS V14.01,2013-08-14 22:27:00,
2013-08-14 18:28:00,72.1,64.1,30.03,ENE,68,2.0,2.0,76,0.00,,---,0.00,VWS V14.01,2013-08-14 22:28:00,
2013-08-14 18:29:00,72.1,64.5,30.03,ENE,68,2.0,2.0,77,0.00,,---,0.00,VWS V14.01,2013-08-14 22:29:00,
2013-08-14 18:30:00,72.1,64.5,30.03,ENE,68,2.0,2.0,77,0.00,,---,0.00,VWS V14.01,2013-08-14 22:30:00,
2013-08-14 18:31:00,72.1,64.5,30.03,ENE,68,2.0,2.0,77,0.00,,---,0.00,VWS V14.01,2013-08-14 22:31:00,
2013-08-14 18:32:00,72.1,64.5,30.03,ENE,68,3.0,4.0,77,0.00,,---,0.00,VWS V14.01,2013-08-14 22:32:00,
2013-08-14 18:33:00,72.1,64.5,30.03,ENE,68,3.0,4.0,77,0.00,,---,0.00,VWS V14.01,2013-08-14 22:33:00,
2013-08-14 18:34:00,72.1,64.5,30.03,East,90,3.0,5.0,77,0.00,,---,0.00,VWS V14.01,2013-08-14 22:34:00,
2013-08-14 18:35:00,72.0,64.4,30.03,East,90,4.0,6.0,77,0.00,,---,0.00,VWS V14.01,2013-08-14 22:35:00,
2013-08-14 18:36:00,72.0,64.4,30.03,ENE,68,3.0,4.0,77,0.00,,---,0.00,VWS V14.01,2013-08-14 22:36:00,
2013-08-14 18:37:00,72.0,64.4,30.03,East,90,2.0,2.0,77,0.00,,---,0.00,VWS V14.01,2013-08-14 22:37:00,
2013-08-14 18:38:00,72.0,64.4,30.03,East,90,5.0,6.0,77,0.00,,---,0.00,VWS V14.01,2013-08-14 22:38:00,
2013-08-14 18:39:00,72.0,64.4,30.03,East,90,3.0,5.0,77,0.00,,---,0.00,VWS V14.01,2013-08-14 22:39:00,
2013-08-14 18:40:00,71.9,64.3,30.03,East,90,2.0,2.0,77,0.00,,---,0.00,VWS V14.01,2013-08-14 22:40:00,
2013-08-14 18:43:00,71.9,64.7,30.03,East,90,2.0,3.0,78,0.00,,---,0.00,VWS V14.01,2013-08-14 22:43:00,
2013-08-14 18:44:00,72.0,64.8,30.03,East,90,2.0,2.0,78,0.00,,---,0.00,VWS V14.01,2013-08-14 22:44:00,
2013-08-14 18:46:00,72.0,64.8,30.04,East,90,0.0,1.0,78,0.00,,---,0.00,VWS V14.01,2013-08-14 22:46:00,
2013-08-14 18:47:00,72.0,64.8,30.04,East,90,1.0,2.0,78,0.00,,---,0.00,VWS V14.01,2013-08-14 22:47:00,
2013-08-14 18:48:00,71.9,64.7,30.04,East,90,1.0,2.0,78,0.00,,---,0.00,VWS V14.01,2013-08-14 22:48:00,
2013-08-14 18:49:00,71.9,64.7,30.04,East,90,1.0,1.0,78,0.00,,---,0.00,VWS V14.01,2013-08-14 22:49:00,
2013-08-14 18:50:00,71.9,64.7,30.04,ENE,68,2.0,3.0,78,0.00,,---,0.00,VWS V14.01,2013-08-14 22:50:00,
2013-08-14 18:51:00,71.9,64.7,30.04,East,90,2.0,3.0,78,0.00,,---,0.00,VWS V14.01,2013-08-14 22:51:00,
2013-08-14 18:52:00,71.8,64.6,30.04,ENE,68,2.0,2.0,78,0.00,,---,0.00,VWS V14.01,2013-08-14 22:52:00,
2013-08-14 18:53:00,71.8,64.6,30.04,East,90,3.0,5.0,78,0.00,,---,0.00,VWS V14.01,2013-08-14 22:53:00,
2013-08-14 18:54:00,71.8,64.6,30.04,ENE,68,2.0,3.0,78,0.00,,---,0.00,VWS V14.01,2013-08-14 22:54:00,
2013-08-14 18:55:00,71.8,64.6,30.04,East,90,3.0,3.0,78,0.00,,---,0.00,VWS V14.01,2013-08-14 22:55:00,
2013-08-14 18:56:00,71.7,64.5,30.04,ENE,68,3.0,3.0,78,0.00,,---,0.00,VWS V14.01,2013-08-14 22:56:00,
2013-08-14 18:57:00,71.7,64.5,30.04,East,90,3.0,5.0,78,0.00,,---,0.00,VWS V14.01,2013-08-14 22:57:00,
2013-08-14 18:58:00,71.7,64.5,30.03,ENE,68,3.0,3.0,78,0.00,,---,0.00,VWS V14.01,2013-08-14 22:58:00,
2013-08-14 18:59:00,71.7,64.5,30.03,East,90,3.0,6.0,78,0.00,,---,0.00,VWS V14.01,2013-08-14 22:59:00,
2013-08-14 19:00:00,71.6,64.4,30.04,ENE,68,2.0,3.0,78,0.00,,---,0.00,VWS V14.01,2013-08-14 23:00:00,
2013-08-14 19:01:00,71.6,64.4,30.04,ENE,68,1.0,1.0,78,0.00,,---,0.00,VWS V14.01,2013-08-14 23:01:00,
2013-08-14 19:02:00,71.6,64.8,30.04,ENE,68,2.0,3.0,79,0.00,,---,0.00,VWS V14.01,2013-08-14 23:02:00,
2013-08-14 19:03:00,71.6,64.4,30.04,East,90,2.0,3.0,78,0.00,,---,0.00,VWS V14.01,2013-08-14 23:03:00,
2013-08-14 19:04:00,71.6,64.4,30.04,East,90,2.0,3.0,78,0.00,,---,0.00,VWS V14.01,2013-08-14 23:04:00,
2013-08-14 19:05:00,71.6,64.4,30.04,East,90,3.0,5.0,78,0.00,,---,0.00,VWS V14.01,2013-08-14 23:05:00,
2013-08-14 19:06:00,71.6,64.4,30.04,East,90,2.0,3.0,78,0.00,,---,0.00,VWS V14.01,2013-08-14 23:06:00,
2013-08-14 19:07:00,71.6,64.4,30.04,ENE,68,2.0,2.0,78,0.00,,---,0.00,VWS V14.01,2013-08-14 23:07:00,
2013-08-14 19:08:00,71.6,64.4,30.04,ENE,68,2.0,3.0,78,0.00,,---,0.00,VWS V14.01,2013-08-14 23:08:00,
2013-08-14 19:09:00,71.6,64.4,30.04,ENE,68,3.0,3.0,78,0.00,,---,0.00,VWS V14.01,2013-08-14 23:09:00,
2013-08-14 19:10:00,71.5,64.3,30.04,ENE,68,4.0,5.0,78,0.00,,---,0.00,VWS V14.01,2013-08-14 23:10:00,
2013-08-14 19:11:00,71.5,64.3,30.04,ENE,68,3.0,5.0,78,0.00,,---,0.00,VWS V14.01,2013-08-14 23:11:00,
2013-08-14 19:12:00,71.4,64.2,30.04,ENE,68,3.0,3.0,78,0.00,,---,0.00,VWS V14.01,2013-08-14 23:12:00,
2013-08-14 19:13:00,71.4,64.2,30.03,ENE,68,4.0,5.0,78,0.00,,---,0.00,VWS V14.01,2013-08-14 23:13:00,
2013-08-14 19:14:00,71.4,64.2,30.04,East,90,3.0,3.0,78,0.00,,---,0.00,VWS V14.01,2013-08-14 23:14:00,
2013-08-14 19:15:00,71.4,64.2,30.03,East,90,3.0,5.0,78,0.00,,---,0.00,VWS V14.01,2013-08-14 23:15:00,
2013-08-14 19:16:00,71.4,64.6,30.03,East,90,3.0,5.0,79,0.00,,---,0.00,VWS V14.01,2013-08-14 23:16:00,
2013-08-14 19:17:00,71.3,64.5,30.04,East,90,2.0,3.0,79,0.00,,---,0.00,VWS V14.01,2013-08-14 23:17:00,
2013-08-14 19:18:00,71.3,64.5,30.04,ENE,68,3.0,3.0,79,0.00,,---,0.00,VWS V14.01,2013-08-14 23:18:00,
2013-08-14 19:19:00,71.2,64.4,30.04,ENE,68,3.0,4.0,79,0.00,,---,0.00,VWS V14.01,2013-08-14 23:19:00,
2013-08-14 19:20:00,71.2,64.4,30.04,ENE,68,2.0,4.0,79,0.00,,---,0.00,VWS V14.01,2013-08-14 23:20:00,
2013-08-14 19:21:00,71.2,64.4,30.04,ENE,68,3.0,4.0,79,0.00,,---,0.00,VWS V14.01,2013-08-14 23:21:00,
2013-08-14 19:22:00,71.1,64.6,30.04,ENE,68,2.0,3.0,80,0.00,,---,0.00,VWS V14.01,2013-08-14 23:22:00,
2013-08-14 19:23:00,71.1,64.6,30.03,ENE,68,2.0,3.0,80,0.00,,---,0.00,VWS V14.01,2013-08-14 23:23:00,
2013-08-14 19:24:00,71.1,64.6,30.03,ENE,68,2.0,3.0,80,0.00,,---,0.00,VWS V14.01,2013-08-14 23:24:00,
2013-08-14 19:25:00,71.1,64.6,30.03,ENE,68,2.0,3.0,80,0.00,,---,0.00,VWS V14.01,2013-08-14 23:25:00,
2013-08-14 19:26:00,71.0,64.9,30.04,ENE,68,2.0,3.0,81,0.00,,---,0.00,VWS V14.01,2013-08-14 23:26:00,
2013-08-14 19:27:00,71.0,64.5,30.04,ENE,68,2.0,2.0,80,0.00,,---,0.00,VWS V14.01,2013-08-14 23:27:00,
2013-08-14 19:28:00,70.9,64.4,30.04,ENE,68,2.0,3.0,80,0.00,,---,0.00,VWS V14.01,2013-08-14 23:28:00,
2013-08-14 19:29:00,70.9,64.4,30.04,ENE,68,2.0,3.0,80,0.00,,---,0.00,VWS V14.01,2013-08-14 23:29:00,
2013-08-14 19:30:00,70.9,64.8,30.04,ENE,68,2.0,3.0,81,0.00,,---,0.00,VWS V14.01,2013-08-14 23:30:00,
2013-08-14 19:31:00,70.9,64.8,30.04,ENE,68,2.0,3.0,81,0.00,,---,0.00,VWS V14.01,2013-08-14 23:31:00,
2013-08-14 19:32:00,70.8,64.7,30.04,ENE,68,2.0,2.0,81,0.00,,---,0.00,VWS V14.01,2013-08-14 23:32:00,
2013-08-14 19:33:00,70.8,64.7,30.04,ENE,68,2.0,3.0,81,0.00,,---,0.00,VWS V14.01,2013-08-14 23:33:00,
2013-08-14 19:34:00,70.7,64.6,30.04,ENE,68,1.0,2.0,81,0.00,,---,0.00,VWS V14.01,2013-08-14 23:34:00,
2013-08-14 19:35:00,70.7,64.6,30.04,ENE,68,1.0,2.0,81,0.00,,---,0.00,VWS V14.01,2013-08-14 23:35:00,
2013-08-14 19:36:00,70.7,64.6,30.05,ENE,68,2.0,2.0,81,0.00,,---,0.00,VWS V14.01,2013-08-14 23:36:00,
2013-08-14 19:37:00,70.7,64.6,30.05,ENE,68,1.0,2.0,81,0.00,,---,0.00,VWS V14.01,2013-08-14 23:37:00,
2013-08-14 19:38:00,70.7,64.6,30.05,ENE,68,1.0,2.0,81,0.00,,---,0.00,VWS V14.01,2013-08-14 23:38:00,
2013-08-14 19:39:00,70.7,64.6,30.05,ENE,68,1.0,2.0,81,0.00,,---,0.00,VWS V14.01,2013-08-14 23:39:00,
2013-08-14 19:40:00,70.7,64.6,30.05,ENE,68,2.0,2.0,81,0.00,,---,0.00,VWS V14.01,2013-08-14 23:40:00,
2013-08-14 19:41:00,70.7,64.6,30.05,ENE,68,2.0,3.0,81,0.00,,---,0.00,VWS V14.01,2013-08-14 23:41:00,
2013-08-14 19:42:00,70.7,64.6,30.05,ENE,68,2.0,2.0,81,0.00,,---,0.00,VWS V14.01,2013-08-14 23:42:00,
2013-08-14 19:43:00,70.7,64.6,30.05,ENE,68,1.0,2.0,81,0.00,,---,0.00,VWS V14.01,2013-08-14 23:43:00,
2013-08-14 19:44:00,70.7,64.2,30.05,ENE,68,2.0,2.0,80,0.00,,---,0.00,VWS V14.01,2013-08-14 23:44:00,
2013-08-14 19:45:00,70.7,64.6,30.05,ENE,68,1.0,2.0,81,0.00,,---,0.00,VWS V14.01,2013-08-14 23:45:00,
2013-08-14 19:46:00,70.7,64.6,30.05,ENE,68,1.0,2.0,81,0.00,,---,0.00,VWS V14.01,2013-08-14 23:46:00,
2013-08-14 19:47:00,70.6,64.5,30.05,ENE,68,2.0,3.0,81,0.00,,---,0.00,VWS V14.01,2013-08-14 23:47:00,
2013-08-14 19:48:00,70.6,64.5,30.05,NE,45,2.0,2.0,81,0.00,,---,0.00,VWS V14.01,2013-08-14 23:48:00,
2013-08-14 19:49:00,70.6,64.5,30.05,NE,45,2.0,2.0,81,0.00,,---,0.00,VWS V14.01,2013-08-14 23:49:00,
2013-08-14 19:50:00,70.6,64.5,30.05,ENE,68,2.0,3.0,81,0.00,,---,0.00,VWS V14.01,2013-08-14 23:50:00,
2013-08-14 19:51:00,70.6,64.5,30.05,ENE,68,2.0,2.0,81,0.00,,---,0.00,VWS V14.01,2013-08-14 23:51:00,
2013-08-14 19:52:00,70.5,64.4,30.05,ENE,68,1.0,2.0,81,0.00,,---,0.00,VWS V14.01,2013-08-14 23:52:00,
2013-08-14 19:53:00,70.5,64.4,30.06,ENE,68,2.0,2.0,81,0.00,,---,0.00,VWS V14.01,2013-08-14 23:53:00,
2013-08-14 19:54:00,70.5,64.4,30.06,ENE,68,2.0,2.0,81,0.00,,---,0.00,VWS V14.01,2013-08-14 23:54:00,
2013-08-14 19:55:00,70.4,64.3,30.06,ENE,68,2.0,2.0,81,0.00,,---,0.00,VWS V14.01,2013-08-14 23:55:00,
2013-08-14 19:56:00,70.4,64.7,30.06,ENE,68,1.0,1.0,82,0.00,,---,0.00,VWS V14.01,2013-08-14 23:56:00,
2013-08-14 19:57:00,70.4,64.7,30.06,ENE,68,1.0,2.0,82,0.00,,---,0.00,VWS V14.01,2013-08-14 23:57:00,
2013-08-14 19:58:00,70.4,64.7,30.06,ENE,68,1.0,2.0,82,0.00,,---,0.00,VWS V14.01,2013-08-14 23:58:00,
2013-08-14 19:59:00,70.3,64.6,30.06,ENE,68,2.0,2.0,82,0.00,,---,0.00,VWS V14.01,2013-08-14 23:59:00,
2013-08-14 20:00:00,70.3,64.6,30.06,ENE,68,2.0,2.0,82,0.00,,---,0.00,VWS V14.01,2013-08-15 00:00:00,
2013-08-14 20:01:00,70.3,64.6,30.06,ENE,68,1.0,2.0,82,0.00,,---,0.00,VWS V14.01,2013-08-15 00:01:00,
2013-08-14 20:02:00,70.3,64.6,30.06,ENE,68,2.0,3.0,82,0.00,,---,0.00,VWS V14.01,2013-08-15 00:02:00,
2013-08-14 20:03:00,70.2,64.1,30.06,ENE,68,1.0,2.0,81,0.00,,---,0.00,VWS V14.01,2013-08-15 00:03:00,
2013-08-14 20:04:00,70.2,64.1,30.06,ENE,68,2.0,2.0,81,0.00,,---,0.00,VWS V14.01,2013-08-15 00:04:00,
2013-08-14 20:05:00,70.1,64.0,30.06,ENE,68,2.0,3.0,81,0.00,,---,0.00,VWS V14.01,2013-08-15 00:05:00,
2013-08-14 20:06:00,70.1,64.0,30.06,NE,45,3.0,4.0,81,0.00,,---,0.00,VWS V14.01,2013-08-15 00:06:00,
2013-08-14 20:07:00,70.1,64.0,30.06,ENE,68,3.0,4.0,81,0.00,,---,0.00,VWS V14.01,2013-08-15 00:07:00,
2013-08-14 20:08:00,70.1,64.0,30.06,ENE,68,2.0,2.0,81,0.00,,---,0.00,VWS V14.01,2013-08-15 00:08:00,
2013-08-14 20:09:00,70.1,64.0,30.06,ENE,68,2.0,2.0,81,0.00,,---,0.00,VWS V14.01,2013-08-15 00:09:00,
2013-08-14 20:10:00,70.0,63.5,30.06,ENE,68,2.0,2.0,80,0.00,,---,0.00,VWS V14.01,2013-08-15 00:10:00,
2013-08-14 20:20:00,69.7,63.3,30.07,NE,45,1.0,3.0,80,0.00,,---,0.00,VWS V14.01,2013-08-15 00:20:00,
2013-08-14 20:25:00,69.5,63.1,30.07,NE,54,2.0,2.0,80,0.00,,---,0.00,VWS V14.01,2013-08-15 00:25:00,
2013-08-14 20:30:00,69.3,62.9,30.07,NE,53,2.0,3.0,80,0.00,,---,0.00,VWS V14.01,2013-08-15 00:30:00,
2013-08-14 20:35:00,69.1,62.7,30.07,ENE,57,2.0,3.0,80,0.00,,---,0.00,VWS V14.01,2013-08-15 00:35:00,
2013-08-14 20:40:00,68.9,62.5,30.07,NE,53,2.0,2.0,80,0.00,,---,0.00,VWS V14.01,2013-08-15 00:40:00,
2013-08-14 20:45:00,68.8,62.4,30.07,NE,55,3.0,4.0,80,0.00,,---,0.00,VWS V14.01,2013-08-15 00:45:00,
2013-08-14 20:50:00,68.6,62.5,30.07,NE,52,3.0,3.0,81,0.00,,---,0.00,VWS V14.01,2013-08-15 00:50:00,
2013-08-14 20:55:00,68.4,62.3,30.07,ENE,61,2.0,2.0,81,0.00,,---,0.00,VWS V14.01,2013-08-15 00:55:00,
2013-08-14 21:00:00,68.2,62.2,30.08,ENE,57,2.0,2.0,81,0.00,,---,0.00,VWS V14.01,2013-08-15 01:00:00,
2013-08-14 21:05:00,68.1,62.4,30.08,ENE,57,2.0,2.0,82,0.00,,---,0.00,VWS V14.01,2013-08-15 01:05:00,
2013-08-14 21:10:00,67.9,62.2,30.08,ENE,61,1.0,1.0,82,0.00,,---,0.00,VWS V14.01,2013-08-15 01:10:00,
2013-08-14 21:15:00,67.7,62.0,30.09,ENE,61,1.0,1.0,82,0.00,,---,0.00,VWS V14.01,2013-08-15 01:15:00,
2013-08-14 21:20:00,67.5,61.8,30.09,ENE,61,1.0,1.0,82,0.00,,---,0.00,VWS V14.01,2013-08-15 01:20:00,
2013-08-14 21:25:00,67.3,62.0,30.10,ENE,61,0.0,1.0,83,0.00,,---,0.00,VWS V14.01,2013-08-15 01:25:00,
2013-08-14 21:30:00,67.2,61.9,30.10,ENE,61,1.0,1.0,83,0.00,,---,0.00,VWS V14.01,2013-08-15 01:30:00,
2013-08-14 21:35:00,67.0,61.7,30.10,ENE,61,1.0,1.0,83,0.00,,---,0.00,VWS V14.01,2013-08-15 01:35:00,
2013-08-14 21:40:00,66.9,61.6,30.10,ENE,61,1.0,2.0,83,0.00,,---,0.00,VWS V14.01,2013-08-15 01:40:00,
2013-08-14 21:45:00,66.8,61.5,30.10,ENE,61,1.0,2.0,83,0.00,,---,0.00,VWS V14.01,2013-08-15 01:45:00,
2013-08-14 21:50:00,66.7,61.7,30.10,ENE,60,3.0,3.0,84,0.00,,---,0.00,VWS V14.01,2013-08-15 01:50:00,
2013-08-14 21:55:00,66.7,61.4,30.10,ENE,66,3.0,4.0,83,0.00,,---,0.00,VWS V14.01,2013-08-15 01:55:00,
2013-08-14 22:00:00,66.6,61.3,30.10,ENE,65,3.0,5.0,83,0.00,,---,0.00,VWS V14.01,2013-08-15 02:00:00,
2013-08-14 22:05:00,66.5,61.2,30.10,ENE,57,3.0,3.0,83,0.00,,---,0.00,VWS V14.01,2013-08-15 02:05:00,
2013-08-14 22:10:00,66.6,61.3,30.10,NE,55,3.0,4.0,83,0.00,,---,0.00,VWS V14.01,2013-08-15 02:10:00,
2013-08-14 22:15:00,66.6,60.9,30.10,NE,52,3.0,3.0,82,0.00,,---,0.00,VWS V14.01,2013-08-15 02:15:00,
2013-08-14 22:20:00,66.6,60.9,30.10,ENE,62,3.0,4.0,82,0.00,,---,0.00,VWS V14.01,2013-08-15 02:20:00,
2013-08-14 22:25:00,66.6,60.9,30.10,ENE,74,2.0,3.0,82,0.00,,---,0.00,VWS V14.01,2013-08-15 02:25:00,
2013-08-14 22:29:00,66.5,60.8,30.11,East,80,2.0,3.0,82,0.00,,---,0.00,VWS V14.01,2013-08-15 02:29:00,
2013-08-14 22:34:00,66.4,60.7,30.11,ENE,62,2.0,4.0,82,0.00,,---,0.00,VWS V14.01,2013-08-15 02:34:00,
2013-08-14 22:39:00,66.4,60.7,30.11,ENE,66,2.0,2.0,82,0.00,,---,0.00,VWS V14.01,2013-08-15 02:39:00,
2013-08-14 22:44:00,66.2,60.5,30.11,ENE,78,2.0,3.0,82,0.00,,---,0.00,VWS V14.01,2013-08-15 02:44:00,
2013-08-14 22:49:00,66.2,60.5,30.11,ENE,60,3.0,3.0,82,0.00,,---,0.00,VWS V14.01,2013-08-15 02:49:00,
2013-08-14 22:54:00,66.1,60.5,30.10,ENE,66,2.0,3.0,82,0.00,,---,0.00,VWS V14.01,2013-08-15 02:54:00,
2013-08-14 22:59:00,66.0,60.3,30.10,ENE,78,3.0,3.0,82,0.00,,---,0.00,VWS V14.01,2013-08-15 02:59:00,
2013-08-14 23:04:00,65.9,60.6,30.11,ENE,76,2.0,3.0,83,0.00,,---,0.00,VWS V14.01,2013-08-15 03:04:00,
2013-08-14 23:09:00,65.8,60.5,30.11,ENE,71,1.0,3.0,83,0.00,,---,0.00,VWS V14.01,2013-08-15 03:09:00,
2013-08-14 23:14:00,65.8,60.8,30.11,ENE,73,2.0,3.0,84,0.00,,---,0.00,VWS V14.01,2013-08-15 03:14:00,
2013-08-14 23:19:00,65.6,60.6,30.11,NE,54,2.0,2.0,84,0.00,,---,0.00,VWS V14.01,2013-08-15 03:19:00,
2013-08-14 23:24:00,65.6,60.6,30.11,ENE,70,3.0,4.0,84,0.00,,---,0.00,VWS V14.01,2013-08-15 03:24:00,
2013-08-14 23:29:00,65.6,60.3,30.11,ENE,73,2.0,3.0,83,0.00,,---,0.00,VWS V14.01,2013-08-15 03:29:00,
2013-08-14 23:34:00,65.5,60.2,30.11,ENE,70,2.0,5.0,83,0.00,,---,0.00,VWS V14.01,2013-08-15 03:34:00,
2013-08-14 23:39:00,65.4,60.1,30.11,ENE,75,2.0,3.0,83,0.00,,---,0.00,VWS V14.01,2013-08-15 03:39:00,
2013-08-14 23:44:00,65.3,60.3,30.11,ENE,66,3.0,3.0,84,0.00,,---,0.00,VWS V14.01,2013-08-15 03:44:00,
2013-08-14 23:49:00,65.2,60.2,30.11,ENE,67,2.0,4.0,84,0.00,,---,0.00,VWS V14.01,2013-08-15 03:49:00,
2013-08-14 23:54:00,65.0,60.0,30.11,ENE,63,3.0,3.0,84,0.00,,---,0.00,VWS V14.01,2013-08-15 03:54:00,
2013-08-14 23:59:00,64.9,60.0,30.11,ENE,65,2.0,3.0,84,0.00,,---,0.00,VWS V14.01,2013-08-15 03:59:00,